<?xml version="1.0" encoding="UTF-8" standalone="no" ?>
<gpx xmlns="http://www.topografix.com/GPX/1/1" xmlns:xsi="http://www.w3.org/2001/XMLSchema-instance" xsi:schemaLocation="http://www.topografix.com/GPX/1/1 http://www.topografix.com/GPX/1/1/gpx.xsd" version="1.1" creator="VisuGPX - https://www.visugpx.com">
  <metadata>
    <name>Landévant Fort-bloqué 80km</name>
    <desc><![CDATA[Landévant Fort-bloqué 80km]]></desc>
  </metadata>
  <wpt lat="38.85555" lon="-94.79902">
    <ele>333.5</ele>
    <name><![CDATA[GARMIN]]></name>
  </wpt>
  <wpt lat="50.98288" lon="-1.4639">
    <ele>33.5</ele>
    <name><![CDATA[GRMEUR]]></name>
  </wpt>
  <wpt lat="25.06178" lon="121.64027">
    <ele>19</ele>
    <name><![CDATA[GRMTWN]]></name>
  </wpt>
  <wpt lat="47.87632" lon="-3.01188">
    <ele>86.9</ele>
    <name><![CDATA[H]]></name>
  </wpt>
  <trk>
    <name><![CDATA[Landévant Fort-bloqué 80km_5]]></name>
    <extensions>
      <line xmlns="http://www.topografix.com/GPX/gpx_style/0/2">
        <color>0a0a0a</color>
        <width>4</width>
      </line>
    </extensions>
    <trkseg>
      <trkpt lat="47.75543" lon="-3.13514">
        <ele>35</ele>
        <time>2024-04-29T21:56:17Z</time>
      </trkpt>
      <trkpt lat="47.75482" lon="-3.13471">
        <ele>35</ele>
        <time>2024-04-29T21:56:02Z</time>
      </trkpt>
      <trkpt lat="47.75413" lon="-3.13454">
        <ele>35</ele>
        <time>2024-04-29T21:55:45Z</time>
      </trkpt>
      <trkpt lat="47.75352" lon="-3.13518">
        <ele>33</ele>
        <time>2024-04-29T21:55:28Z</time>
      </trkpt>
      <trkpt lat="47.75286" lon="-3.13668">
        <ele>30</ele>
        <time>2024-04-29T21:55:00Z</time>
      </trkpt>
      <trkpt lat="47.75228" lon="-3.13801">
        <ele>28</ele>
        <time>2024-04-29T21:54:35Z</time>
      </trkpt>
      <trkpt lat="47.75214" lon="-3.13951">
        <ele>26</ele>
        <time>2024-04-29T21:54:11Z</time>
      </trkpt>
      <trkpt lat="47.75182" lon="-3.14166">
        <ele>21</ele>
        <time>2024-04-29T21:53:37Z</time>
      </trkpt>
      <trkpt lat="47.75188" lon="-3.14286">
        <ele>17</ele>
        <time>2024-04-29T21:53:18Z</time>
      </trkpt>
      <trkpt lat="47.75216" lon="-3.14406">
        <ele>15</ele>
        <time>2024-04-29T21:52:58Z</time>
      </trkpt>
      <trkpt lat="47.75277" lon="-3.14488">
        <ele>15</ele>
        <time>2024-04-29T21:52:39Z</time>
      </trkpt>
      <trkpt lat="47.75289" lon="-3.14552">
        <ele>13</ele>
        <time>2024-04-29T21:52:28Z</time>
      </trkpt>
      <trkpt lat="47.75323" lon="-3.14552">
        <ele>11</ele>
        <time>2024-04-29T21:52:20Z</time>
      </trkpt>
      <trkpt lat="47.75369" lon="-3.14578">
        <ele>8</ele>
        <time>2024-04-29T21:52:09Z</time>
      </trkpt>
      <trkpt lat="47.7541" lon="-3.14664">
        <ele>7</ele>
        <time>2024-04-29T21:51:52Z</time>
      </trkpt>
      <trkpt lat="47.75496" lon="-3.14668">
        <ele>8</ele>
        <time>2024-04-29T21:51:32Z</time>
      </trkpt>
      <trkpt lat="47.75312" lon="-3.1531">
        <ele>11</ele>
        <time>2024-04-29T21:49:42Z</time>
      </trkpt>
      <trkpt lat="47.7528" lon="-3.15393">
        <ele>13</ele>
        <time>2024-04-29T21:49:27Z</time>
      </trkpt>
      <trkpt lat="47.75191" lon="-3.15417">
        <ele>14</ele>
        <time>2024-04-29T21:49:06Z</time>
      </trkpt>
      <trkpt lat="47.75144" lon="-3.15436">
        <ele>15</ele>
        <time>2024-04-29T21:48:55Z</time>
      </trkpt>
      <trkpt lat="47.75045" lon="-3.15507">
        <ele>21</ele>
        <time>2024-04-29T21:48:29Z</time>
      </trkpt>
      <trkpt lat="47.74991" lon="-3.15529">
        <ele>22</ele>
        <time>2024-04-29T21:48:16Z</time>
      </trkpt>
      <trkpt lat="47.74974" lon="-3.15569">
        <ele>21</ele>
        <time>2024-04-29T21:48:09Z</time>
      </trkpt>
      <trkpt lat="47.74932" lon="-3.15584">
        <ele>21</ele>
        <time>2024-04-29T21:47:59Z</time>
      </trkpt>
      <trkpt lat="47.74931" lon="-3.15625">
        <ele>20</ele>
        <time>2024-04-29T21:47:52Z</time>
      </trkpt>
      <trkpt lat="47.74902" lon="-3.15578">
        <ele>20</ele>
        <time>2024-04-29T21:47:42Z</time>
      </trkpt>
      <trkpt lat="47.7488" lon="-3.15559">
        <ele>20</ele>
        <time>2024-04-29T21:47:36Z</time>
      </trkpt>
      <trkpt lat="47.7453" lon="-3.15458">
        <ele>10</ele>
        <time>2024-04-29T21:46:13Z</time>
      </trkpt>
      <trkpt lat="47.74484" lon="-3.15454">
        <ele>9</ele>
        <time>2024-04-29T21:46:02Z</time>
      </trkpt>
      <trkpt lat="47.74245" lon="-3.15443">
        <ele>9</ele>
        <time>2024-04-29T21:45:06Z</time>
      </trkpt>
      <trkpt lat="47.74194" lon="-3.15473">
        <ele>8</ele>
        <time>2024-04-29T21:44:54Z</time>
      </trkpt>
      <trkpt lat="47.74198" lon="-3.15516">
        <ele>6</ele>
        <time>2024-04-29T21:44:47Z</time>
      </trkpt>
      <trkpt lat="47.74186" lon="-3.15554">
        <ele>5</ele>
        <time>2024-04-29T21:44:40Z</time>
      </trkpt>
      <trkpt lat="47.74202" lon="-3.15597">
        <ele>4</ele>
        <time>2024-04-29T21:44:32Z</time>
      </trkpt>
      <trkpt lat="47.74225" lon="-3.1569">
        <ele>3</ele>
        <time>2024-04-29T21:44:17Z</time>
      </trkpt>
      <trkpt lat="47.74228" lon="-3.15747">
        <ele>4</ele>
        <time>2024-04-29T21:44:08Z</time>
      </trkpt>
      <trkpt lat="47.74207" lon="-3.15808">
        <ele>7</ele>
        <time>2024-04-29T21:43:57Z</time>
      </trkpt>
      <trkpt lat="47.74191" lon="-3.15848">
        <ele>8</ele>
        <time>2024-04-29T21:43:50Z</time>
      </trkpt>
      <trkpt lat="47.74095" lon="-3.1585">
        <ele>12</ele>
        <time>2024-04-29T21:43:27Z</time>
      </trkpt>
      <trkpt lat="47.7408" lon="-3.15812">
        <ele>12</ele>
        <time>2024-04-29T21:43:21Z</time>
      </trkpt>
      <trkpt lat="47.7409" lon="-3.15765">
        <ele>11</ele>
        <time>2024-04-29T21:43:13Z</time>
      </trkpt>
      <trkpt lat="47.74075" lon="-3.15728">
        <ele>11</ele>
        <time>2024-04-29T21:43:06Z</time>
      </trkpt>
      <trkpt lat="47.74042" lon="-3.15698">
        <ele>12</ele>
        <time>2024-04-29T21:42:57Z</time>
      </trkpt>
      <trkpt lat="47.74023" lon="-3.1566">
        <ele>12</ele>
        <time>2024-04-29T21:42:50Z</time>
      </trkpt>
      <trkpt lat="47.73966" lon="-3.15636">
        <ele>11</ele>
        <time>2024-04-29T21:42:36Z</time>
      </trkpt>
      <trkpt lat="47.73919" lon="-3.15687">
        <ele>13</ele>
        <time>2024-04-29T21:42:22Z</time>
      </trkpt>
      <trkpt lat="47.73903" lon="-3.1576">
        <ele>15</ele>
        <time>2024-04-29T21:42:10Z</time>
      </trkpt>
      <trkpt lat="47.73878" lon="-3.15784">
        <ele>13</ele>
        <time>2024-04-29T21:42:03Z</time>
      </trkpt>
      <trkpt lat="47.73878" lon="-3.1587">
        <ele>10</ele>
        <time>2024-04-29T21:41:50Z</time>
      </trkpt>
      <trkpt lat="47.73867" lon="-3.15949">
        <ele>8</ele>
        <time>2024-04-29T21:41:37Z</time>
      </trkpt>
      <trkpt lat="47.73918" lon="-3.16039">
        <ele>11</ele>
        <time>2024-04-29T21:41:18Z</time>
      </trkpt>
      <trkpt lat="47.73909" lon="-3.16091">
        <ele>12</ele>
        <time>2024-04-29T21:41:10Z</time>
      </trkpt>
      <trkpt lat="47.73847" lon="-3.16162">
        <ele>15</ele>
        <time>2024-04-29T21:40:52Z</time>
      </trkpt>
      <trkpt lat="47.7374" lon="-3.16226">
        <ele>15</ele>
        <time>2024-04-29T21:40:25Z</time>
      </trkpt>
      <trkpt lat="47.73703" lon="-3.16393">
        <ele>16</ele>
        <time>2024-04-29T21:39:57Z</time>
      </trkpt>
      <trkpt lat="47.73789" lon="-3.16722">
        <ele>12</ele>
        <time>2024-04-29T21:39:02Z</time>
      </trkpt>
      <trkpt lat="47.73841" lon="-3.1696">
        <ele>4</ele>
        <time>2024-04-29T21:38:22Z</time>
      </trkpt>
      <trkpt lat="47.73909" lon="-3.17033">
        <ele>3</ele>
        <time>2024-04-29T21:38:03Z</time>
      </trkpt>
      <trkpt lat="47.73961" lon="-3.17121">
        <ele>6</ele>
        <time>2024-04-29T21:37:44Z</time>
      </trkpt>
      <trkpt lat="47.7401" lon="-3.17177">
        <ele>8</ele>
        <time>2024-04-29T21:37:30Z</time>
      </trkpt>
      <trkpt lat="47.74009" lon="-3.172">
        <ele>4.46</ele>
        <time>2012-05-13T06:54:48Z</time>
      </trkpt>
      <trkpt lat="47.74015" lon="-3.17228">
        <ele>8.31</ele>
        <time>2012-05-13T06:54:39Z</time>
      </trkpt>
      <trkpt lat="47.74015" lon="-3.17267">
        <ele>7.35</ele>
        <time>2012-05-13T06:54:30Z</time>
      </trkpt>
      <trkpt lat="47.74016" lon="-3.17274">
        <ele>6.87</ele>
        <time>2012-05-13T06:54:27Z</time>
      </trkpt>
      <trkpt lat="47.74014" lon="-3.17283">
        <ele>6.39</ele>
        <time>2012-05-13T06:54:24Z</time>
      </trkpt>
      <trkpt lat="47.74009" lon="-3.1729">
        <ele>5.42</ele>
        <time>2012-05-13T06:54:21Z</time>
      </trkpt>
      <trkpt lat="47.74009" lon="-3.17304">
        <ele>3.02</ele>
        <time>2012-05-13T06:54:12Z</time>
      </trkpt>
      <trkpt lat="47.74009" lon="-3.17308">
        <ele>1.58</ele>
        <time>2012-05-13T06:54:10Z</time>
      </trkpt>
      <trkpt lat="47.74005" lon="-3.17316">
        <ele>0.62</ele>
        <time>2012-05-13T06:54:06Z</time>
      </trkpt>
      <trkpt lat="47.74003" lon="-3.17322">
        <ele>0.14</ele>
        <time>2012-05-13T06:54:01Z</time>
      </trkpt>
      <trkpt lat="47.74003" lon="-3.17338">
        <ele>0.62</ele>
        <time>2012-05-13T06:53:56Z</time>
      </trkpt>
      <trkpt lat="47.74004" lon="-3.17341">
        <ele>1.1</ele>
        <time>2012-05-13T06:53:54Z</time>
      </trkpt>
      <trkpt lat="47.74002" lon="-3.17365">
        <ele>2.06</ele>
        <time>2012-05-13T06:53:46Z</time>
      </trkpt>
      <trkpt lat="47.74004" lon="-3.17371">
        <ele>2.54</ele>
        <time>2012-05-13T06:53:44Z</time>
      </trkpt>
      <trkpt lat="47.74005" lon="-3.17398">
        <ele>3.5</ele>
        <time>2012-05-13T06:53:34Z</time>
      </trkpt>
      <trkpt lat="47.74002" lon="-3.17412">
        <ele>3.98</ele>
        <time>2012-05-13T06:53:30Z</time>
      </trkpt>
      <trkpt lat="47.73999" lon="-3.17424">
        <ele>4.46</ele>
        <time>2012-05-13T06:53:25Z</time>
      </trkpt>
      <trkpt lat="47.73998" lon="-3.17432">
        <ele>4.46</ele>
        <time>2012-05-13T06:53:20Z</time>
      </trkpt>
      <trkpt lat="47.73995" lon="-3.17434">
        <ele>4.46</ele>
        <time>2012-05-13T06:53:16Z</time>
      </trkpt>
      <trkpt lat="47.73993" lon="-3.17442">
        <ele>4.94</ele>
        <time>2012-05-13T06:53:05Z</time>
      </trkpt>
      <trkpt lat="47.73992" lon="-3.17445">
        <ele>5.91</ele>
        <time>2012-05-13T06:53:03Z</time>
      </trkpt>
      <trkpt lat="47.73993" lon="-3.17449">
        <ele>5.91</ele>
        <time>2012-05-13T06:52:57Z</time>
      </trkpt>
      <trkpt lat="47.73995" lon="-3.17454">
        <ele>5.42</ele>
        <time>2012-05-13T06:52:51Z</time>
      </trkpt>
      <trkpt lat="47.73995" lon="-3.17458">
        <ele>4.94</ele>
        <time>2012-05-13T06:52:42Z</time>
      </trkpt>
      <trkpt lat="47.73989" lon="-3.17465">
        <ele>3.5</ele>
        <time>2012-05-13T06:52:31Z</time>
      </trkpt>
      <trkpt lat="47.73987" lon="-3.17482">
        <ele>2.06</ele>
        <time>2012-05-13T06:52:24Z</time>
      </trkpt>
      <trkpt lat="47.73984" lon="-3.17497">
        <ele>1.1</ele>
        <time>2012-05-13T06:52:18Z</time>
      </trkpt>
      <trkpt lat="47.73983" lon="-3.175">
        <ele>0.14</ele>
        <time>2012-05-13T06:52:17Z</time>
      </trkpt>
      <trkpt lat="47.73981" lon="-3.17521">
        <ele>-3.23</ele>
        <time>2012-05-13T06:52:09Z</time>
      </trkpt>
      <trkpt lat="47.73976" lon="-3.17531">
        <ele>-5.63</ele>
        <time>2012-05-13T06:52:03Z</time>
      </trkpt>
      <trkpt lat="47.73972" lon="-3.1753">
        <ele>-8.03</ele>
        <time>2012-05-13T06:51:57Z</time>
      </trkpt>
      <trkpt lat="47.73964" lon="-3.17536">
        <ele>-12.36</ele>
        <time>2012-05-13T06:51:48Z</time>
      </trkpt>
      <trkpt lat="47.73961" lon="-3.17537">
        <ele>-11.4</ele>
        <time>2012-05-13T06:51:41Z</time>
      </trkpt>
      <trkpt lat="47.73952" lon="-3.17568">
        <ele>-10.92</ele>
        <time>2012-05-13T06:51:31Z</time>
      </trkpt>
      <trkpt lat="47.73948" lon="-3.17613">
        <ele>-7.55</ele>
        <time>2012-05-13T06:51:22Z</time>
      </trkpt>
      <trkpt lat="47.7395" lon="-3.17632">
        <ele>-6.11</ele>
        <time>2012-05-13T06:51:15Z</time>
      </trkpt>
      <trkpt lat="47.73944" lon="-3.17641">
        <ele>-5.15</ele>
        <time>2012-05-13T06:51:11Z</time>
      </trkpt>
      <trkpt lat="47.73937" lon="-3.17668">
        <ele>-4.67</ele>
        <time>2012-05-13T06:51:03Z</time>
      </trkpt>
      <trkpt lat="47.73938" lon="-3.17676">
        <ele>-3.23</ele>
        <time>2012-05-13T06:51:00Z</time>
      </trkpt>
      <trkpt lat="47.73927" lon="-3.17698">
        <ele>1.1</ele>
        <time>2012-05-13T06:50:53Z</time>
      </trkpt>
      <trkpt lat="47.7393" lon="-3.17714">
        <ele>3.98</ele>
        <time>2012-05-13T06:50:46Z</time>
      </trkpt>
      <trkpt lat="47.73935" lon="-3.17731">
        <ele>7.83</ele>
        <time>2012-05-13T06:50:39Z</time>
      </trkpt>
      <trkpt lat="47.73943" lon="-3.17761">
        <ele>10.71</ele>
        <time>2012-05-13T06:50:28Z</time>
      </trkpt>
      <trkpt lat="47.73949" lon="-3.178">
        <ele>11.19</ele>
        <time>2012-05-13T06:50:21Z</time>
      </trkpt>
      <trkpt lat="47.73939" lon="-3.17833">
        <ele>12.15</ele>
        <time>2012-05-13T06:50:15Z</time>
      </trkpt>
      <trkpt lat="47.73938" lon="-3.17848">
        <ele>13.12</ele>
        <time>2012-05-13T06:50:11Z</time>
      </trkpt>
      <trkpt lat="47.73968" lon="-3.17854">
        <ele>10.23</ele>
        <time>2012-05-13T06:50:05Z</time>
      </trkpt>
      <trkpt lat="47.74001" lon="-3.17878">
        <ele>10.71</ele>
        <time>2012-05-13T06:50:00Z</time>
      </trkpt>
      <trkpt lat="47.74037" lon="-3.17913">
        <ele>14.56</ele>
        <time>2012-05-13T06:49:53Z</time>
      </trkpt>
      <trkpt lat="47.74087" lon="-3.17926">
        <ele>14.08</ele>
        <time>2012-05-13T06:49:44Z</time>
      </trkpt>
      <trkpt lat="47.7414" lon="-3.17937">
        <ele>14.08</ele>
        <time>2012-05-13T06:49:34Z</time>
      </trkpt>
      <trkpt lat="47.74134" lon="-3.17956">
        <ele>12.15</ele>
        <time>2012-05-13T06:49:29Z</time>
      </trkpt>
      <trkpt lat="47.74133" lon="-3.17987">
        <ele>10.71</ele>
        <time>2012-05-13T06:49:22Z</time>
      </trkpt>
      <trkpt lat="47.74133" lon="-3.18017">
        <ele>10.71</ele>
        <time>2012-05-13T06:49:15Z</time>
      </trkpt>
      <trkpt lat="47.74132" lon="-3.18022">
        <ele>11.67</ele>
        <time>2012-05-13T06:49:14Z</time>
      </trkpt>
      <trkpt lat="47.74125" lon="-3.18061">
        <ele>10.23</ele>
        <time>2012-05-13T06:49:06Z</time>
      </trkpt>
      <trkpt lat="47.74125" lon="-3.1811">
        <ele>13.12</ele>
        <time>2012-05-13T06:48:58Z</time>
      </trkpt>
      <trkpt lat="47.74119" lon="-3.18146">
        <ele>14.56</ele>
        <time>2012-05-13T06:48:54Z</time>
      </trkpt>
      <trkpt lat="47.74117" lon="-3.18171">
        <ele>19.36</ele>
        <time>2012-05-13T06:48:52Z</time>
      </trkpt>
      <trkpt lat="47.74119" lon="-3.18201">
        <ele>20.81</ele>
        <time>2012-05-13T06:48:49Z</time>
      </trkpt>
      <trkpt lat="47.74114" lon="-3.18228">
        <ele>23.21</ele>
        <time>2012-05-13T06:48:44Z</time>
      </trkpt>
      <trkpt lat="47.74114" lon="-3.18262">
        <ele>23.69</ele>
        <time>2012-05-13T06:48:40Z</time>
      </trkpt>
      <trkpt lat="47.74118" lon="-3.18307">
        <ele>25.61</ele>
        <time>2012-05-13T06:48:34Z</time>
      </trkpt>
      <trkpt lat="47.74124" lon="-3.18319">
        <ele>26.57</ele>
        <time>2012-05-13T06:48:32Z</time>
      </trkpt>
      <trkpt lat="47.7413" lon="-3.18331">
        <ele>23.69</ele>
        <time>2012-05-13T06:48:30Z</time>
      </trkpt>
      <trkpt lat="47.74148" lon="-3.18354">
        <ele>25.61</ele>
        <time>2012-05-13T06:48:25Z</time>
      </trkpt>
      <trkpt lat="47.74162" lon="-3.18404">
        <ele>28.02</ele>
        <time>2012-05-13T06:48:17Z</time>
      </trkpt>
      <trkpt lat="47.74166" lon="-3.18433">
        <ele>28.98</ele>
        <time>2012-05-13T06:48:12Z</time>
      </trkpt>
      <trkpt lat="47.74168" lon="-3.18451">
        <ele>28.02</ele>
        <time>2012-05-13T06:48:08Z</time>
      </trkpt>
      <trkpt lat="47.74169" lon="-3.18459">
        <ele>26.57</ele>
        <time>2012-05-13T06:48:06Z</time>
      </trkpt>
      <trkpt lat="47.7419" lon="-3.18497">
        <ele>22.73</ele>
        <time>2012-05-13T06:47:59Z</time>
      </trkpt>
      <trkpt lat="47.74207" lon="-3.18516">
        <ele>22.25</ele>
        <time>2012-05-13T06:47:52Z</time>
      </trkpt>
      <trkpt lat="47.74222" lon="-3.18522">
        <ele>20.32</ele>
        <time>2012-05-13T06:47:48Z</time>
      </trkpt>
      <trkpt lat="47.74243" lon="-3.18524">
        <ele>20.32</ele>
        <time>2012-05-13T06:47:42Z</time>
      </trkpt>
      <trkpt lat="47.74272" lon="-3.18528">
        <ele>16</ele>
        <time>2012-05-13T06:47:34Z</time>
      </trkpt>
      <trkpt lat="47.74293" lon="-3.18534">
        <ele>15.52</ele>
        <time>2012-05-13T06:47:27Z</time>
      </trkpt>
      <trkpt lat="47.74318" lon="-3.18528">
        <ele>11.67</ele>
        <time>2012-05-13T06:47:21Z</time>
      </trkpt>
      <trkpt lat="47.74351" lon="-3.18523">
        <ele>10.23</ele>
        <time>2012-05-13T06:47:13Z</time>
      </trkpt>
      <trkpt lat="47.74375" lon="-3.18537">
        <ele>18.4</ele>
        <time>2012-05-13T06:47:06Z</time>
      </trkpt>
      <trkpt lat="47.74388" lon="-3.18532">
        <ele>18.88</ele>
        <time>2012-05-13T06:47:02Z</time>
      </trkpt>
      <trkpt lat="47.74407" lon="-3.18522">
        <ele>18.88</ele>
        <time>2012-05-13T06:46:58Z</time>
      </trkpt>
      <trkpt lat="47.74421" lon="-3.18517">
        <ele>19.84</ele>
        <time>2012-05-13T06:46:55Z</time>
      </trkpt>
      <trkpt lat="47.74432" lon="-3.18505">
        <ele>19.84</ele>
        <time>2012-05-13T06:46:51Z</time>
      </trkpt>
      <trkpt lat="47.74437" lon="-3.18484">
        <ele>16.96</ele>
        <time>2012-05-13T06:46:48Z</time>
      </trkpt>
      <trkpt lat="47.7443" lon="-3.18439">
        <ele>16</ele>
        <time>2012-05-13T06:46:41Z</time>
      </trkpt>
      <trkpt lat="47.7444" lon="-3.18406">
        <ele>12.63</ele>
        <time>2012-05-13T06:46:36Z</time>
      </trkpt>
      <trkpt lat="47.74439" lon="-3.18395">
        <ele>12.15</ele>
        <time>2012-05-13T06:46:34Z</time>
      </trkpt>
      <trkpt lat="47.74431" lon="-3.18363">
        <ele>7.83</ele>
        <time>2012-05-13T06:46:28Z</time>
      </trkpt>
      <trkpt lat="47.74448" lon="-3.18331">
        <ele>5.42</ele>
        <time>2012-05-13T06:46:22Z</time>
      </trkpt>
      <trkpt lat="47.74463" lon="-3.18288">
        <ele>3.5</ele>
        <time>2012-05-13T06:46:15Z</time>
      </trkpt>
      <trkpt lat="47.74472" lon="-3.18266">
        <ele>3.98</ele>
        <time>2012-05-13T06:46:10Z</time>
      </trkpt>
      <trkpt lat="47.74477" lon="-3.1824">
        <ele>3.02</ele>
        <time>2012-05-13T06:46:06Z</time>
      </trkpt>
      <trkpt lat="47.74481" lon="-3.1823">
        <ele>3.5</ele>
        <time>2012-05-13T06:46:04Z</time>
      </trkpt>
      <trkpt lat="47.74486" lon="-3.1821">
        <ele>5.91</ele>
        <time>2012-05-13T06:45:59Z</time>
      </trkpt>
      <trkpt lat="47.74488" lon="-3.18206">
        <ele>7.35</ele>
        <time>2012-05-13T06:45:55Z</time>
      </trkpt>
      <trkpt lat="47.74486" lon="-3.18188">
        <ele>4.94</ele>
        <time>2012-05-13T06:45:47Z</time>
      </trkpt>
      <trkpt lat="47.74528" lon="-3.18239">
        <ele>14</ele>
        <time>2024-04-29T21:33:51Z</time>
      </trkpt>
      <trkpt lat="47.74583" lon="-3.18282">
        <ele>13</ele>
        <time>2024-04-29T21:33:36Z</time>
      </trkpt>
      <trkpt lat="47.74605" lon="-3.18316">
        <ele>12</ele>
        <time>2024-04-29T21:33:29Z</time>
      </trkpt>
      <trkpt lat="47.74606" lon="-3.18359">
        <ele>12</ele>
        <time>2024-04-29T21:33:22Z</time>
      </trkpt>
      <trkpt lat="47.74611" lon="-3.1841">
        <ele>11</ele>
        <time>2024-04-29T21:33:14Z</time>
      </trkpt>
      <trkpt lat="47.74642" lon="-3.18436">
        <ele>8</ele>
        <time>2024-04-29T21:33:05Z</time>
      </trkpt>
      <trkpt lat="47.74668" lon="-3.1843">
        <ele>6</ele>
        <time>2024-04-29T21:32:59Z</time>
      </trkpt>
      <trkpt lat="47.74681" lon="-3.18458">
        <ele>7</ele>
        <time>2024-04-29T21:32:54Z</time>
      </trkpt>
      <trkpt lat="47.74684" lon="-3.18507">
        <ele>7</ele>
        <time>2024-04-29T21:32:46Z</time>
      </trkpt>
      <trkpt lat="47.74664" lon="-3.18524">
        <ele>5</ele>
        <time>2024-04-29T21:32:41Z</time>
      </trkpt>
      <trkpt lat="47.74635" lon="-3.18558">
        <ele>4</ele>
        <time>2024-04-29T21:32:32Z</time>
      </trkpt>
      <trkpt lat="47.74635" lon="-3.18606">
        <ele>3</ele>
        <time>2024-04-29T21:32:25Z</time>
      </trkpt>
      <trkpt lat="47.74638" lon="-3.18661">
        <ele>1</ele>
        <time>2024-04-29T21:32:16Z</time>
      </trkpt>
      <trkpt lat="47.74635" lon="-3.187">
        <ele>1</ele>
        <time>2024-04-29T21:32:10Z</time>
      </trkpt>
      <trkpt lat="47.74647" lon="-3.18743">
        <ele>2</ele>
        <time>2024-04-29T21:32:03Z</time>
      </trkpt>
      <trkpt lat="47.74694" lon="-3.18752">
        <ele>4</ele>
        <time>2024-04-29T21:31:51Z</time>
      </trkpt>
      <trkpt lat="47.74733" lon="-3.18767">
        <ele>5</ele>
        <time>2024-04-29T21:31:42Z</time>
      </trkpt>
      <trkpt lat="47.74723" lon="-3.18825">
        <ele>4</ele>
        <time>2024-04-29T21:31:33Z</time>
      </trkpt>
      <trkpt lat="47.7473" lon="-3.1887">
        <ele>4</ele>
        <time>2024-04-29T21:31:25Z</time>
      </trkpt>
      <trkpt lat="47.74745" lon="-3.18893">
        <ele>3</ele>
        <time>2024-04-29T21:31:20Z</time>
      </trkpt>
      <trkpt lat="47.74736" lon="-3.18928">
        <ele>3</ele>
        <time>2024-04-29T21:31:15Z</time>
      </trkpt>
      <trkpt lat="47.74709" lon="-3.19013">
        <ele>2</ele>
        <time>2024-04-29T21:31:00Z</time>
      </trkpt>
      <trkpt lat="47.74649" lon="-3.19101">
        <ele>1.1</ele>
        <time>2024-04-29T21:30:40Z</time>
      </trkpt>
      <trkpt lat="47.74626" lon="-3.1923">
        <ele>6</ele>
        <time>2024-04-29T21:30:19Z</time>
      </trkpt>
      <trkpt lat="47.74611" lon="-3.19316">
        <ele>15</ele>
        <time>2024-04-29T21:30:05Z</time>
      </trkpt>
      <trkpt lat="47.74605" lon="-3.19391">
        <ele>17</ele>
        <time>2024-04-29T21:29:53Z</time>
      </trkpt>
      <trkpt lat="47.74577" lon="-3.19391">
        <ele>19</ele>
        <time>2024-04-29T21:29:47Z</time>
      </trkpt>
      <trkpt lat="47.74533" lon="-3.19363">
        <ele>19</ele>
        <time>2024-04-29T21:29:36Z</time>
      </trkpt>
      <trkpt lat="47.74494" lon="-3.19361">
        <ele>19</ele>
        <time>2024-04-29T21:29:26Z</time>
      </trkpt>
      <trkpt lat="47.73922" lon="-3.19427">
        <ele>12</ele>
        <time>2024-04-29T21:27:12Z</time>
      </trkpt>
      <trkpt lat="47.73878" lon="-3.19468">
        <ele>11</ele>
        <time>2024-04-29T21:27:00Z</time>
      </trkpt>
      <trkpt lat="47.73857" lon="-3.19556">
        <ele>10</ele>
        <time>2024-04-29T21:26:46Z</time>
      </trkpt>
      <trkpt lat="47.73813" lon="-3.19657">
        <ele>8</ele>
        <time>2024-04-29T21:26:27Z</time>
      </trkpt>
      <trkpt lat="47.73723" lon="-3.19696">
        <ele>13</ele>
        <time>2024-04-29T21:26:05Z</time>
      </trkpt>
      <trkpt lat="47.73553" lon="-3.19771">
        <ele>17</ele>
        <time>2024-04-29T21:25:23Z</time>
      </trkpt>
      <trkpt lat="47.73375" lon="-3.19975">
        <ele>17</ele>
        <time>2024-04-29T21:24:31Z</time>
      </trkpt>
      <trkpt lat="47.73313" lon="-3.19801">
        <ele>11</ele>
        <time>2024-04-29T21:24:00Z</time>
      </trkpt>
      <trkpt lat="47.73245" lon="-3.19681">
        <ele>9</ele>
        <time>2024-04-29T21:23:35Z</time>
      </trkpt>
      <trkpt lat="47.7317" lon="-3.19483">
        <ele>8</ele>
        <time>2024-04-29T21:23:00Z</time>
      </trkpt>
      <trkpt lat="47.73101" lon="-3.19374">
        <ele>6</ele>
        <time>2024-04-29T21:22:36Z</time>
      </trkpt>
      <trkpt lat="47.73211" lon="-3.19279">
        <ele>6</ele>
        <time>2024-04-29T21:22:07Z</time>
      </trkpt>
      <trkpt lat="47.73195" lon="-3.19219">
        <ele>9</ele>
        <time>2024-04-29T21:21:56Z</time>
      </trkpt>
      <trkpt lat="47.73176" lon="-3.19228">
        <ele>9</ele>
        <time>2024-04-29T21:21:52Z</time>
      </trkpt>
      <trkpt lat="47.73153" lon="-3.19275">
        <ele>9</ele>
        <time>2024-04-29T21:21:43Z</time>
      </trkpt>
      <trkpt lat="47.73114" lon="-3.19305">
        <ele>9</ele>
        <time>2024-04-29T21:21:32Z</time>
      </trkpt>
      <trkpt lat="47.73026" lon="-3.19322">
        <ele>11</ele>
        <time>2024-04-29T21:21:12Z</time>
      </trkpt>
      <trkpt lat="47.72942" lon="-3.19387">
        <ele>9</ele>
        <time>2024-04-29T21:20:50Z</time>
      </trkpt>
      <trkpt lat="47.72882" lon="-3.19374">
        <ele>8</ele>
        <time>2024-04-29T21:20:35Z</time>
      </trkpt>
      <trkpt lat="47.72843" lon="-3.1929">
        <ele>9</ele>
        <time>2024-04-29T21:20:19Z</time>
      </trkpt>
      <trkpt lat="47.72786" lon="-3.19155">
        <ele>11</ele>
        <time>2024-04-29T21:19:54Z</time>
      </trkpt>
      <trkpt lat="47.72714" lon="-3.19061">
        <ele>14</ele>
        <time>2024-04-29T21:19:32Z</time>
      </trkpt>
      <trkpt lat="47.72665" lon="-3.19011">
        <ele>17</ele>
        <time>2024-04-29T21:19:18Z</time>
      </trkpt>
      <trkpt lat="47.72594" lon="-3.19041">
        <ele>19</ele>
        <time>2024-04-29T21:19:01Z</time>
      </trkpt>
      <trkpt lat="47.72531" lon="-3.19028">
        <ele>18</ele>
        <time>2024-04-29T21:18:46Z</time>
      </trkpt>
      <trkpt lat="47.72465" lon="-3.19041">
        <ele>17</ele>
        <time>2024-04-29T21:18:30Z</time>
      </trkpt>
      <trkpt lat="47.72436" lon="-3.19026">
        <ele>18</ele>
        <time>2024-04-29T21:18:23Z</time>
      </trkpt>
      <trkpt lat="47.72415" lon="-3.18973">
        <ele>20</ele>
        <time>2024-04-29T21:18:14Z</time>
      </trkpt>
      <trkpt lat="47.72391" lon="-3.18932">
        <ele>20</ele>
        <time>2024-04-29T21:18:05Z</time>
      </trkpt>
      <trkpt lat="47.72346" lon="-3.18906">
        <ele>21</ele>
        <time>2024-04-29T21:17:54Z</time>
      </trkpt>
      <trkpt lat="47.72423" lon="-3.18631">
        <ele>23</ele>
        <time>2024-04-29T21:17:07Z</time>
      </trkpt>
      <trkpt lat="47.7226" lon="-3.18582">
        <ele>18</ele>
        <time>2024-04-29T21:16:28Z</time>
      </trkpt>
      <trkpt lat="47.72307" lon="-3.18183">
        <ele>13</ele>
        <time>2024-04-29T21:15:24Z</time>
      </trkpt>
      <trkpt lat="47.72037" lon="-3.18093">
        <ele>11</ele>
        <time>2024-04-29T21:14:20Z</time>
      </trkpt>
      <trkpt lat="47.72045" lon="-3.18038">
        <ele>11</ele>
        <time>2024-04-29T21:14:11Z</time>
      </trkpt>
      <trkpt lat="47.72024" lon="-3.18013">
        <ele>12</ele>
        <time>2024-04-30T00:15:55Z</time>
      </trkpt>
      <trkpt lat="47.71877" lon="-3.17917">
        <ele>10</ele>
        <time>2024-04-30T00:15:18Z</time>
      </trkpt>
      <trkpt lat="47.71776" lon="-3.179">
        <ele>9</ele>
        <time>2024-04-30T00:14:54Z</time>
      </trkpt>
      <trkpt lat="47.71747" lon="-3.18054">
        <ele>8</ele>
        <time>2024-04-30T00:14:29Z</time>
      </trkpt>
      <trkpt lat="47.71642" lon="-3.18131">
        <ele>7</ele>
        <time>2024-04-30T00:14:02Z</time>
      </trkpt>
      <trkpt lat="47.71558" lon="-3.18155">
        <ele>6</ele>
        <time>2024-04-30T00:13:42Z</time>
      </trkpt>
      <trkpt lat="47.71476" lon="-3.18207">
        <ele>5</ele>
        <time>2024-04-30T00:13:21Z</time>
      </trkpt>
      <trkpt lat="47.71409" lon="-3.18288">
        <ele>3</ele>
        <time>2024-04-30T00:13:01Z</time>
      </trkpt>
      <trkpt lat="47.71359" lon="-3.18224">
        <ele>4</ele>
        <time>2024-04-30T00:12:45Z</time>
      </trkpt>
      <trkpt lat="47.71324" lon="-3.18198">
        <ele>5</ele>
        <time>2024-04-30T00:12:36Z</time>
      </trkpt>
      <trkpt lat="47.71314" lon="-3.17977">
        <ele>5</ele>
        <time>2024-04-30T00:12:01Z</time>
      </trkpt>
      <trkpt lat="47.71224" lon="-3.17865">
        <ele>4</ele>
        <time>2024-04-30T00:11:34Z</time>
      </trkpt>
      <trkpt lat="47.71167" lon="-3.17827">
        <ele>4</ele>
        <time>2024-04-30T00:11:19Z</time>
      </trkpt>
      <trkpt lat="47.71131" lon="-3.17837">
        <ele>4</ele>
        <time>2024-04-30T00:11:11Z</time>
      </trkpt>
      <trkpt lat="47.71004" lon="-3.17848">
        <ele>3</ele>
        <time>2024-04-30T00:10:41Z</time>
      </trkpt>
      <trkpt lat="47.70999" lon="-3.17644">
        <ele>2</ele>
        <time>2024-04-30T00:10:09Z</time>
      </trkpt>
      <trkpt lat="47.70949" lon="-3.17501">
        <ele>9</ele>
        <time>2024-04-30T00:09:44Z</time>
      </trkpt>
      <trkpt lat="47.70856" lon="-3.17481">
        <ele>9</ele>
        <time>2024-04-30T00:09:22Z</time>
      </trkpt>
      <trkpt lat="47.70784" lon="-3.17496">
        <ele>6</ele>
        <time>2024-04-30T00:09:05Z</time>
      </trkpt>
      <trkpt lat="47.7071" lon="-3.17473">
        <ele>2</ele>
        <time>2024-04-30T00:08:47Z</time>
      </trkpt>
      <trkpt lat="47.70725" lon="-3.17565">
        <ele>2</ele>
        <time>2024-04-30T00:08:32Z</time>
      </trkpt>
      <trkpt lat="47.70728" lon="-3.17666">
        <ele>3</ele>
        <time>2024-04-30T00:08:16Z</time>
      </trkpt>
      <trkpt lat="47.70622" lon="-3.17726">
        <ele>2</ele>
        <time>2024-04-30T00:07:50Z</time>
      </trkpt>
      <trkpt lat="47.70601" lon="-3.17782">
        <ele>3</ele>
        <time>2024-04-30T00:07:40Z</time>
      </trkpt>
      <trkpt lat="47.70605" lon="-3.17829">
        <ele>4</ele>
        <time>2024-04-30T00:07:32Z</time>
      </trkpt>
      <trkpt lat="47.70565" lon="-3.17889">
        <ele>5</ele>
        <time>2024-04-30T00:07:19Z</time>
      </trkpt>
      <trkpt lat="47.70544" lon="-3.17885">
        <ele>4</ele>
        <time>2024-04-30T00:07:14Z</time>
      </trkpt>
      <trkpt lat="47.70526" lon="-3.17904">
        <ele>4</ele>
        <time>2024-04-30T00:07:09Z</time>
      </trkpt>
      <trkpt lat="47.70469" lon="-3.17902">
        <ele>2</ele>
        <time>2024-04-30T00:06:56Z</time>
      </trkpt>
      <trkpt lat="47.70429" lon="-3.18011">
        <ele>3</ele>
        <time>2024-04-30T00:06:36Z</time>
      </trkpt>
      <trkpt lat="47.7043" lon="-3.18063">
        <ele>1</ele>
        <time>2024-04-30T00:06:28Z</time>
      </trkpt>
      <trkpt lat="47.70451" lon="-3.18093">
        <ele>2</ele>
        <time>2024-04-30T00:06:21Z</time>
      </trkpt>
      <trkpt lat="47.70469" lon="-3.18076">
        <ele>3</ele>
        <time>2024-04-30T00:06:16Z</time>
      </trkpt>
      <trkpt lat="47.705" lon="-3.18082">
        <ele>4</ele>
        <time>2024-04-30T00:06:09Z</time>
      </trkpt>
      <trkpt lat="47.70527" lon="-3.1814">
        <ele>3</ele>
        <time>2024-04-30T00:05:58Z</time>
      </trkpt>
      <trkpt lat="47.70537" lon="-3.18226">
        <ele>2</ele>
        <time>2024-04-30T00:05:44Z</time>
      </trkpt>
      <trkpt lat="47.7056" lon="-3.1829">
        <ele>2</ele>
        <time>2024-04-30T00:05:33Z</time>
      </trkpt>
      <trkpt lat="47.70537" lon="-3.18299">
        <ele>2</ele>
        <time>2024-04-30T00:05:27Z</time>
      </trkpt>
      <trkpt lat="47.70537" lon="-3.18329">
        <ele>2</ele>
        <time>2024-04-30T00:05:22Z</time>
      </trkpt>
      <trkpt lat="47.7055" lon="-3.18352">
        <ele>2</ele>
        <time>2024-04-30T00:05:18Z</time>
      </trkpt>
      <trkpt lat="47.70542" lon="-3.18406">
        <ele>2</ele>
        <time>2024-04-30T00:05:09Z</time>
      </trkpt>
      <trkpt lat="47.70523" lon="-3.18438">
        <ele>2</ele>
        <time>2024-04-30T00:05:02Z</time>
      </trkpt>
      <trkpt lat="47.70508" lon="-3.18477">
        <ele>3</ele>
        <time>2024-04-30T00:04:55Z</time>
      </trkpt>
      <trkpt lat="47.70488" lon="-3.18582">
        <ele>3</ele>
        <time>2024-04-30T00:04:38Z</time>
      </trkpt>
      <trkpt lat="47.70485" lon="-3.18728">
        <ele>6</ele>
        <time>2024-04-30T00:04:15Z</time>
      </trkpt>
      <trkpt lat="47.70462" lon="-3.18747">
        <ele>6</ele>
        <time>2024-04-30T00:04:09Z</time>
      </trkpt>
      <trkpt lat="47.70459" lon="-3.18777">
        <ele>5</ele>
        <time>2024-04-30T00:04:04Z</time>
      </trkpt>
      <trkpt lat="47.7051" lon="-3.18799">
        <ele>5</ele>
        <time>2024-04-30T00:03:52Z</time>
      </trkpt>
      <trkpt lat="47.70527" lon="-3.18827">
        <ele>5</ele>
        <time>2024-04-30T00:03:46Z</time>
      </trkpt>
      <trkpt lat="47.70584" lon="-3.1909">
        <ele>7</ele>
        <time>2024-04-30T00:03:03Z</time>
      </trkpt>
      <trkpt lat="47.70554" lon="-3.19097">
        <ele>6</ele>
        <time>2024-04-30T00:02:55Z</time>
      </trkpt>
      <trkpt lat="47.70552" lon="-3.19136">
        <ele>5</ele>
        <time>2024-04-30T00:02:49Z</time>
      </trkpt>
      <trkpt lat="47.70543" lon="-3.19149">
        <ele>5</ele>
        <time>2024-04-30T00:02:46Z</time>
      </trkpt>
      <trkpt lat="47.70522" lon="-3.19145">
        <ele>5</ele>
        <time>2024-04-30T00:02:41Z</time>
      </trkpt>
      <trkpt lat="47.70512" lon="-3.19153">
        <ele>4</ele>
        <time>2024-04-30T00:02:39Z</time>
      </trkpt>
      <trkpt lat="47.70503" lon="-3.19188">
        <ele>5</ele>
        <time>2024-04-30T00:02:33Z</time>
      </trkpt>
      <trkpt lat="47.70481" lon="-3.19206">
        <ele>4</ele>
        <time>2024-04-30T00:02:27Z</time>
      </trkpt>
      <trkpt lat="47.70469" lon="-3.19232">
        <ele>4</ele>
        <time>2024-04-30T00:02:22Z</time>
      </trkpt>
      <trkpt lat="47.7047" lon="-3.19256">
        <ele>5</ele>
        <time>2024-04-30T00:02:18Z</time>
      </trkpt>
      <trkpt lat="47.70459" lon="-3.19269">
        <ele>4</ele>
        <time>2024-04-30T00:02:15Z</time>
      </trkpt>
      <trkpt lat="47.70455" lon="-3.19299">
        <ele>4</ele>
        <time>2024-04-30T00:02:10Z</time>
      </trkpt>
      <trkpt lat="47.70466" lon="-3.19345">
        <ele>4</ele>
        <time>2024-04-30T00:02:03Z</time>
      </trkpt>
      <trkpt lat="47.70484" lon="-3.19404">
        <ele>4</ele>
        <time>2024-04-30T00:01:52Z</time>
      </trkpt>
      <trkpt lat="47.70487" lon="-3.19478">
        <ele>2</ele>
        <time>2024-04-30T00:01:41Z</time>
      </trkpt>
      <trkpt lat="47.70484" lon="-3.19503">
        <ele>2</ele>
        <time>2024-04-30T00:01:37Z</time>
      </trkpt>
      <trkpt lat="47.70456" lon="-3.19507">
        <ele>2</ele>
        <time>2024-04-30T00:01:30Z</time>
      </trkpt>
      <trkpt lat="47.70409" lon="-3.19511">
        <ele>1</ele>
        <time>2024-04-30T00:01:19Z</time>
      </trkpt>
      <trkpt lat="47.70389" lon="-3.1955">
        <ele>2</ele>
        <time>2024-04-30T00:01:11Z</time>
      </trkpt>
      <trkpt lat="47.70378" lon="-3.1955">
        <ele>2</ele>
        <time>2024-04-30T00:01:09Z</time>
      </trkpt>
      <trkpt lat="47.70347" lon="-3.19556">
        <ele>2</ele>
        <time>2024-04-30T00:01:02Z</time>
      </trkpt>
      <trkpt lat="47.70323" lon="-3.19596">
        <ele>2</ele>
        <time>2024-04-30T00:00:53Z</time>
      </trkpt>
      <trkpt lat="47.70311" lon="-3.19632">
        <ele>4</ele>
        <time>2024-04-30T00:00:47Z</time>
      </trkpt>
      <trkpt lat="47.70272" lon="-3.19618">
        <ele>2</ele>
        <time>2024-04-30T00:00:37Z</time>
      </trkpt>
      <trkpt lat="47.70258" lon="-3.19606">
        <ele>2</ele>
        <time>2024-04-30T00:00:34Z</time>
      </trkpt>
      <trkpt lat="47.70197" lon="-3.19491">
        <ele>1</ele>
        <time>2024-04-30T00:00:11Z</time>
      </trkpt>
      <trkpt lat="47.70183" lon="-3.19474">
        <ele>1</ele>
        <time>2024-04-30T00:00:06Z</time>
      </trkpt>
      <trkpt lat="47.70168" lon="-3.19473">
        <ele>1</ele>
        <time>2024-04-30T00:00:03Z</time>
      </trkpt>
      <trkpt lat="47.70147" lon="-3.19493">
        <ele>2</ele>
        <time>2024-04-29T23:59:57Z</time>
      </trkpt>
      <trkpt lat="47.70104" lon="-3.19507">
        <ele>1</ele>
        <time>2024-04-29T23:59:47Z</time>
      </trkpt>
      <trkpt lat="47.70048" lon="-3.19508">
        <ele>1</ele>
        <time>2024-04-29T23:59:34Z</time>
      </trkpt>
      <trkpt lat="47.7003" lon="-3.19517">
        <ele>1</ele>
        <time>2024-04-29T23:59:29Z</time>
      </trkpt>
      <trkpt lat="47.7001" lon="-3.19565">
        <ele>1</ele>
        <time>2024-04-29T23:59:20Z</time>
      </trkpt>
      <trkpt lat="47.69987" lon="-3.1966">
        <ele>2</ele>
        <time>2024-04-29T23:59:05Z</time>
      </trkpt>
      <trkpt lat="47.69976" lon="-3.19789">
        <ele>4</ele>
        <time>2024-04-29T23:58:44Z</time>
      </trkpt>
      <trkpt lat="47.69968" lon="-3.19804">
        <ele>4</ele>
        <time>2024-04-29T23:58:41Z</time>
      </trkpt>
      <trkpt lat="47.69954" lon="-3.19838">
        <ele>5</ele>
        <time>2024-04-29T23:58:35Z</time>
      </trkpt>
      <trkpt lat="47.6993" lon="-3.19846">
        <ele>5</ele>
        <time>2024-04-29T23:58:29Z</time>
      </trkpt>
      <trkpt lat="47.69892" lon="-3.19828">
        <ele>5</ele>
        <time>2024-04-29T23:58:20Z</time>
      </trkpt>
      <trkpt lat="47.69865" lon="-3.19726">
        <ele>3</ele>
        <time>2024-04-29T23:58:03Z</time>
      </trkpt>
      <trkpt lat="47.6985" lon="-3.19726">
        <ele>3</ele>
        <time>2024-04-29T23:57:59Z</time>
      </trkpt>
      <trkpt lat="47.6981" lon="-3.19733">
        <ele>3</ele>
        <time>2024-04-29T23:57:50Z</time>
      </trkpt>
      <trkpt lat="47.69776" lon="-3.19755">
        <ele>4</ele>
        <time>2024-04-29T23:57:41Z</time>
      </trkpt>
      <trkpt lat="47.69755" lon="-3.19803">
        <ele>3</ele>
        <time>2024-04-29T23:57:32Z</time>
      </trkpt>
      <trkpt lat="47.69739" lon="-3.19816">
        <ele>3</ele>
        <time>2024-04-29T23:57:28Z</time>
      </trkpt>
      <trkpt lat="47.69748" lon="-3.1983">
        <ele>3</ele>
        <time>2024-04-29T23:57:25Z</time>
      </trkpt>
      <trkpt lat="47.69804" lon="-3.19856">
        <ele>4</ele>
        <time>2024-04-29T23:57:11Z</time>
      </trkpt>
      <trkpt lat="47.69744" lon="-3.19905">
        <ele>3</ele>
        <time>2024-04-29T23:56:55Z</time>
      </trkpt>
      <trkpt lat="47.69728" lon="-3.19929">
        <ele>3</ele>
        <time>2024-04-29T23:56:50Z</time>
      </trkpt>
      <trkpt lat="47.69731" lon="-3.19941">
        <ele>3</ele>
        <time>2024-04-29T23:56:48Z</time>
      </trkpt>
      <trkpt lat="47.6975" lon="-3.1995">
        <ele>3</ele>
        <time>2024-04-29T23:56:43Z</time>
      </trkpt>
      <trkpt lat="47.69786" lon="-3.20032">
        <ele>3</ele>
        <time>2024-04-29T23:56:28Z</time>
      </trkpt>
      <trkpt lat="47.69788" lon="-3.20059">
        <ele>3</ele>
        <time>2024-04-29T23:56:23Z</time>
      </trkpt>
      <trkpt lat="47.69791" lon="-3.20124">
        <ele>3</ele>
        <time>2024-04-29T23:56:13Z</time>
      </trkpt>
      <trkpt lat="47.69816" lon="-3.20266">
        <ele>4</ele>
        <time>2024-04-29T23:55:50Z</time>
      </trkpt>
      <trkpt lat="47.69827" lon="-3.20305">
        <ele>4</ele>
        <time>2024-04-29T23:55:43Z</time>
      </trkpt>
      <trkpt lat="47.69843" lon="-3.20415">
        <ele>5</ele>
        <time>2024-04-29T23:55:26Z</time>
      </trkpt>
      <trkpt lat="47.6984" lon="-3.20448">
        <ele>6</ele>
        <time>2024-04-29T23:55:21Z</time>
      </trkpt>
      <trkpt lat="47.69832" lon="-3.20462">
        <ele>7</ele>
        <time>2024-04-29T23:55:18Z</time>
      </trkpt>
      <trkpt lat="47.69817" lon="-3.20449">
        <ele>6</ele>
        <time>2024-04-29T23:55:14Z</time>
      </trkpt>
      <trkpt lat="47.69799" lon="-3.20434">
        <ele>5</ele>
        <time>2024-04-29T23:55:09Z</time>
      </trkpt>
      <trkpt lat="47.69632" lon="-3.20422">
        <ele>4</ele>
        <time>2024-04-29T23:54:30Z</time>
      </trkpt>
      <trkpt lat="47.69634" lon="-3.20391">
        <ele>5</ele>
        <time>2024-04-29T23:54:25Z</time>
      </trkpt>
      <trkpt lat="47.69654" lon="-3.20365">
        <ele>5</ele>
        <time>2024-04-29T23:54:19Z</time>
      </trkpt>
      <trkpt lat="47.69686" lon="-3.20359">
        <ele>4</ele>
        <time>2024-04-29T23:54:11Z</time>
      </trkpt>
      <trkpt lat="47.69734" lon="-3.20317">
        <ele>2</ele>
        <time>2024-04-29T23:53:58Z</time>
      </trkpt>
      <trkpt lat="47.69742" lon="-3.20265">
        <ele>2</ele>
        <time>2024-04-29T23:53:50Z</time>
      </trkpt>
      <trkpt lat="47.69735" lon="-3.20159">
        <ele>3</ele>
        <time>2024-04-29T23:53:33Z</time>
      </trkpt>
      <trkpt lat="47.69723" lon="-3.20062">
        <ele>3</ele>
        <time>2024-04-29T23:53:17Z</time>
      </trkpt>
      <trkpt lat="47.6971" lon="-3.20043">
        <ele>3</ele>
        <time>2024-04-29T23:53:13Z</time>
      </trkpt>
      <trkpt lat="47.69687" lon="-3.20043">
        <ele>2</ele>
        <time>2024-04-29T23:53:08Z</time>
      </trkpt>
      <trkpt lat="47.69655" lon="-3.20084">
        <ele>2</ele>
        <time>2024-04-29T23:52:58Z</time>
      </trkpt>
      <trkpt lat="47.69642" lon="-3.20088">
        <ele>2</ele>
        <time>2024-04-29T23:52:55Z</time>
      </trkpt>
      <trkpt lat="47.69628" lon="-3.20082">
        <ele>2</ele>
        <time>2024-04-29T23:52:51Z</time>
      </trkpt>
      <trkpt lat="47.69627" lon="-3.20058">
        <ele>2</ele>
        <time>2024-04-29T23:52:48Z</time>
      </trkpt>
      <trkpt lat="47.69635" lon="-3.20034">
        <ele>2</ele>
        <time>2024-04-29T23:52:43Z</time>
      </trkpt>
      <trkpt lat="47.69659" lon="-3.20011">
        <ele>2</ele>
        <time>2024-04-29T23:52:37Z</time>
      </trkpt>
      <trkpt lat="47.69668" lon="-3.1998">
        <ele>2</ele>
        <time>2024-04-29T23:52:31Z</time>
      </trkpt>
      <trkpt lat="47.69636" lon="-3.19915">
        <ele>3</ele>
        <time>2024-04-29T23:52:19Z</time>
      </trkpt>
      <trkpt lat="47.69609" lon="-3.1992">
        <ele>3</ele>
        <time>2024-04-29T23:52:12Z</time>
      </trkpt>
      <trkpt lat="47.69597" lon="-3.19906">
        <ele>3</ele>
        <time>2024-04-29T23:52:09Z</time>
      </trkpt>
      <trkpt lat="47.69584" lon="-3.19893">
        <ele>3</ele>
        <time>2024-04-29T23:52:05Z</time>
      </trkpt>
      <trkpt lat="47.6957" lon="-3.19842">
        <ele>3</ele>
        <time>2024-04-29T23:51:57Z</time>
      </trkpt>
      <trkpt lat="47.6959" lon="-3.19805">
        <ele>1</ele>
        <time>2024-04-29T23:51:49Z</time>
      </trkpt>
      <trkpt lat="47.69463" lon="-3.19741">
        <ele>4</ele>
        <time>2024-04-29T23:51:18Z</time>
      </trkpt>
      <trkpt lat="47.69437" lon="-3.19642">
        <ele>1</ele>
        <time>2024-04-29T23:51:01Z</time>
      </trkpt>
      <trkpt lat="47.69344" lon="-3.19565">
        <ele>2</ele>
        <time>2024-04-29T23:50:36Z</time>
      </trkpt>
      <trkpt lat="47.69229" lon="-3.19595">
        <ele>3</ele>
        <time>2024-04-29T23:50:09Z</time>
      </trkpt>
      <trkpt lat="47.69278" lon="-3.19779">
        <ele>7</ele>
        <time>2024-04-29T23:49:38Z</time>
      </trkpt>
      <trkpt lat="47.69284" lon="-3.19904">
        <ele>6</ele>
        <time>2024-04-29T23:49:18Z</time>
      </trkpt>
      <trkpt lat="47.69344" lon="-3.2005">
        <ele>6</ele>
        <time>2024-04-29T23:48:51Z</time>
      </trkpt>
      <trkpt lat="47.69353" lon="-3.20161">
        <ele>5</ele>
        <time>2024-04-29T23:48:34Z</time>
      </trkpt>
      <trkpt lat="47.69419" lon="-3.20209">
        <ele>6</ele>
        <time>2024-04-29T23:48:17Z</time>
      </trkpt>
      <trkpt lat="47.69437" lon="-3.2032">
        <ele>5</ele>
        <time>2024-04-29T23:47:59Z</time>
      </trkpt>
      <trkpt lat="47.69812" lon="-3.20994">
        <ele>9</ele>
        <time>2024-04-29T23:45:41Z</time>
      </trkpt>
      <trkpt lat="47.6987" lon="-3.21131">
        <ele>2</ele>
        <time>2024-04-29T23:45:16Z</time>
      </trkpt>
      <trkpt lat="47.69879" lon="-3.21226">
        <ele>3</ele>
        <time>2024-04-29T23:45:01Z</time>
      </trkpt>
      <trkpt lat="47.69916" lon="-3.21475">
        <ele>6</ele>
        <time>2024-04-29T23:44:21Z</time>
      </trkpt>
      <trkpt lat="47.69902" lon="-3.21642">
        <ele>4</ele>
        <time>2024-04-29T23:43:54Z</time>
      </trkpt>
      <trkpt lat="47.69778" lon="-3.21595">
        <ele>3</ele>
        <time>2024-04-29T23:43:24Z</time>
      </trkpt>
      <trkpt lat="47.69639" lon="-3.21659">
        <ele>2</ele>
        <time>2024-04-29T23:42:50Z</time>
      </trkpt>
      <trkpt lat="47.69503" lon="-3.21616">
        <ele>3</ele>
        <time>2024-04-29T23:42:18Z</time>
      </trkpt>
      <trkpt lat="47.69278" lon="-3.21586">
        <ele>3</ele>
        <time>2024-04-29T23:41:25Z</time>
      </trkpt>
      <trkpt lat="47.68836" lon="-3.21384">
        <ele>3</ele>
        <time>2024-04-29T23:39:37Z</time>
      </trkpt>
      <trkpt lat="47.68767" lon="-3.21372">
        <ele>4</ele>
        <time>2024-04-29T23:39:21Z</time>
      </trkpt>
      <trkpt lat="47.68356" lon="-3.21183">
        <ele>5</ele>
        <time>2024-04-29T23:37:40Z</time>
      </trkpt>
      <trkpt lat="47.68382" lon="-3.21071">
        <ele>2</ele>
        <time>2024-04-29T23:37:22Z</time>
      </trkpt>
      <trkpt lat="47.68371" lon="-3.21002">
        <ele>2</ele>
        <time>2024-04-29T23:37:11Z</time>
      </trkpt>
      <trkpt lat="47.68408" lon="-3.20994">
        <ele>1</ele>
        <time>2024-04-29T23:37:02Z</time>
      </trkpt>
      <trkpt lat="47.68437" lon="-3.20882">
        <ele>2</ele>
        <time>2024-04-29T23:36:43Z</time>
      </trkpt>
      <trkpt lat="47.68431" lon="-3.20766">
        <ele>2</ele>
        <time>2024-04-29T23:36:25Z</time>
      </trkpt>
      <trkpt lat="47.68385" lon="-3.20732">
        <ele>4</ele>
        <time>2024-04-29T23:36:13Z</time>
      </trkpt>
      <trkpt lat="47.6831" lon="-3.20646">
        <ele>5</ele>
        <time>2024-04-29T23:35:51Z</time>
      </trkpt>
      <trkpt lat="47.68342" lon="-3.20633">
        <ele>6</ele>
        <time>2024-04-29T23:35:43Z</time>
      </trkpt>
      <trkpt lat="47.68388" lon="-3.20676">
        <ele>6</ele>
        <time>2024-04-29T23:35:30Z</time>
      </trkpt>
      <trkpt lat="47.68431" lon="-3.20676">
        <ele>5</ele>
        <time>2024-04-29T23:35:20Z</time>
      </trkpt>
      <trkpt lat="47.68452" lon="-3.20552">
        <ele>2</ele>
        <time>2024-04-29T23:35:00Z</time>
      </trkpt>
      <trkpt lat="47.68408" lon="-3.20522">
        <ele>3</ele>
        <time>2024-04-29T23:34:49Z</time>
      </trkpt>
      <trkpt lat="47.68377" lon="-3.20466">
        <ele>5</ele>
        <time>2024-04-29T23:34:37Z</time>
      </trkpt>
      <trkpt lat="47.68397" lon="-3.20397">
        <ele>3</ele>
        <time>2024-04-29T23:34:25Z</time>
      </trkpt>
      <trkpt lat="47.68377" lon="-3.2029">
        <ele>5</ele>
        <time>2024-04-29T23:34:08Z</time>
      </trkpt>
      <trkpt lat="47.68403" lon="-3.20226">
        <ele>3</ele>
        <time>2024-04-29T23:33:56Z</time>
      </trkpt>
      <trkpt lat="47.68377" lon="-3.20131">
        <ele>3</ele>
        <time>2024-04-29T23:33:40Z</time>
      </trkpt>
      <trkpt lat="47.6829" lon="-3.20045">
        <ele>3</ele>
        <time>2024-04-29T23:33:16Z</time>
      </trkpt>
      <trkpt lat="47.68203" lon="-3.20058">
        <ele>3</ele>
        <time>2024-04-29T23:32:55Z</time>
      </trkpt>
      <trkpt lat="47.68148" lon="-3.20011">
        <ele>0.3</ele>
        <time>2024-04-29T23:32:40Z</time>
      </trkpt>
      <trkpt lat="47.68099" lon="-3.2002">
        <ele>1</ele>
        <time>2024-04-29T23:32:29Z</time>
      </trkpt>
      <trkpt lat="47.68079" lon="-3.20071">
        <ele>2</ele>
        <time>2024-04-29T23:32:20Z</time>
      </trkpt>
      <trkpt lat="47.68027" lon="-3.20144">
        <ele>3</ele>
        <time>2024-04-29T23:32:03Z</time>
      </trkpt>
      <trkpt lat="47.68015" lon="-3.20445">
        <ele>7</ele>
        <time>2024-04-29T23:31:16Z</time>
      </trkpt>
      <trkpt lat="47.6792" lon="-3.20659">
        <ele>10</ele>
        <time>2024-04-29T23:30:35Z</time>
      </trkpt>
      <trkpt lat="47.68162" lon="-3.21033">
        <ele>-77.539841</ele>
        <time>2020-12-29T12:00:00.000Z</time>
      </trkpt>
      <trkpt lat="47.68156" lon="-3.21044">
        <ele>-77.402522</ele>
        <time>2020-12-29T11:59:59.000Z</time>
      </trkpt>
      <trkpt lat="47.68083" lon="-3.21109">
        <ele>10</ele>
      </trkpt>
      <trkpt lat="47.68019" lon="-3.21183">
        <ele>-75.204038</ele>
        <time>2020-12-29T11:59:34.000Z</time>
      </trkpt>
      <trkpt lat="47.68009" lon="-3.2119">
        <ele>-75.104472</ele>
        <time>2020-12-29T11:59:31.000Z</time>
      </trkpt>
      <trkpt lat="47.67961" lon="-3.2119">
        <ele>-74.691758</ele>
        <time>2020-12-29T11:59:24.000Z</time>
      </trkpt>
      <trkpt lat="47.67913" lon="-3.21188">
        <ele>-74.278852</ele>
        <time>2020-12-29T11:59:16.000Z</time>
      </trkpt>
      <trkpt lat="47.67866" lon="-3.21191">
        <ele>-73.873124</ele>
        <time>2020-12-29T11:59:08.000Z</time>
      </trkpt>
      <trkpt lat="47.67855" lon="-3.21193">
        <ele>-73.772652</ele>
        <time>2020-12-29T11:59:06.000Z</time>
      </trkpt>
      <trkpt lat="47.67817" lon="-3.21205">
        <ele>-73.435876</ele>
        <time>2020-12-29T11:58:59.000Z</time>
      </trkpt>
      <trkpt lat="47.67775" lon="-3.21219">
        <ele>-73.066638</ele>
        <time>2020-12-29T11:58:51.000Z</time>
      </trkpt>
      <trkpt lat="47.67771" lon="-3.21221">
        <ele>-73.025389</ele>
        <time>2020-12-29T11:58:50.000Z</time>
      </trkpt>
      <trkpt lat="47.67758" lon="-3.21229">
        <ele>-72.907687</ele>
        <time>2020-12-29T11:58:47.000Z</time>
      </trkpt>
      <trkpt lat="47.67753" lon="-3.2124">
        <ele>-72.832134</ele>
        <time>2020-12-29T11:58:45.000Z</time>
      </trkpt>
      <trkpt lat="47.67753" lon="-3.21258">
        <ele>-72.726401</ele>
        <time>2020-12-29T11:58:42.000Z</time>
      </trkpt>
      <trkpt lat="47.67756" lon="-3.21296">
        <ele>-72.502441</ele>
        <time>2020-12-29T11:58:36.000Z</time>
      </trkpt>
      <trkpt lat="47.67766" lon="-3.21356">
        <ele>-72.989541</ele>
        <time>2020-12-29T11:58:28.000Z</time>
      </trkpt>
      <trkpt lat="47.67771" lon="-3.21386">
        <ele>-73.382012</ele>
        <time>2020-12-29T11:58:24.000Z</time>
      </trkpt>
      <trkpt lat="47.67776" lon="-3.21416">
        <ele>-73.762618</ele>
        <time>2020-12-29T11:58:19.000Z</time>
      </trkpt>
      <trkpt lat="47.67782" lon="-3.21468">
        <ele>-74.428078</ele>
        <time>2020-12-29T11:58:13.000Z</time>
      </trkpt>
      <trkpt lat="47.67783" lon="-3.21475">
        <ele>-74.522642</ele>
        <time>2020-12-29T11:58:12.000Z</time>
      </trkpt>
      <trkpt lat="47.67783" lon="-3.2149">
        <ele>-74.709924</ele>
        <time>2020-12-29T11:58:10.000Z</time>
      </trkpt>
      <trkpt lat="47.67778" lon="-3.21519">
        <ele>-75.082345</ele>
        <time>2020-12-29T11:58:06.000Z</time>
      </trkpt>
      <trkpt lat="47.67764" lon="-3.21569">
        <ele>-75.770079</ele>
        <time>2020-12-29T11:57:58.000Z</time>
      </trkpt>
      <trkpt lat="47.67759" lon="-3.21586">
        <ele>-76.018965</ele>
        <time>2020-12-29T11:57:54.000Z</time>
      </trkpt>
      <trkpt lat="47.67758" lon="-3.21588">
        <ele>-76.048673</ele>
        <time>2020-12-29T11:57:53.000Z</time>
      </trkpt>
      <trkpt lat="47.67752" lon="-3.2159">
        <ele>-76.169198</ele>
        <time>2020-12-29T11:57:50.000Z</time>
      </trkpt>
      <trkpt lat="47.6773" lon="-3.21585">
        <ele>-76.616094</ele>
        <time>2020-12-29T11:57:44.000Z</time>
      </trkpt>
      <trkpt lat="47.67722" lon="-3.21584">
        <ele>-76.786229</ele>
        <time>2020-12-29T11:57:42.000Z</time>
      </trkpt>
      <trkpt lat="47.67698" lon="-3.2158">
        <ele>-77.258059</ele>
        <time>2020-12-29T11:57:37.000Z</time>
      </trkpt>
      <trkpt lat="47.67659" lon="-3.21573">
        <ele>-78.033038</ele>
        <time>2020-12-29T11:57:29.000Z</time>
      </trkpt>
      <trkpt lat="47.67639" lon="-3.21569">
        <ele>-78.438275</ele>
        <time>2020-12-29T11:57:25.000Z</time>
      </trkpt>
      <trkpt lat="47.67619" lon="-3.21566">
        <ele>-78.848075</ele>
        <time>2020-12-29T11:57:21.000Z</time>
      </trkpt>
      <trkpt lat="47.67613" lon="-3.21565">
        <ele>-78.954199</ele>
        <time>2020-12-29T11:57:20.000Z</time>
      </trkpt>
      <trkpt lat="47.67571" lon="-3.21557">
        <ele>-79.344956</ele>
        <time>2020-12-29T11:57:12.000Z</time>
      </trkpt>
      <trkpt lat="47.67528" lon="-3.21551">
        <ele>-79.342544</ele>
        <time>2020-12-29T11:57:04.000Z</time>
      </trkpt>
      <trkpt lat="47.67491" lon="-3.21544">
        <ele>-79.340441</ele>
        <time>2020-12-29T11:56:57.000Z</time>
      </trkpt>
      <trkpt lat="47.67481" lon="-3.21543">
        <ele>-79.339866</ele>
        <time>2020-12-29T11:56:55.000Z</time>
      </trkpt>
      <trkpt lat="47.67466" lon="-3.2154">
        <ele>-79.338999</ele>
        <time>2020-12-29T11:56:52.000Z</time>
      </trkpt>
      <trkpt lat="47.67456" lon="-3.21539">
        <ele>-79.338446</ele>
        <time>2020-12-29T11:56:49.000Z</time>
      </trkpt>
      <trkpt lat="47.67435" lon="-3.21531">
        <ele>-79.337218</ele>
        <time>2020-12-29T11:56:44.000Z</time>
      </trkpt>
      <trkpt lat="47.67428" lon="-3.21538">
        <ele>-79.336755</ele>
        <time>2020-12-29T11:56:41.000Z</time>
      </trkpt>
      <trkpt lat="47.67432" lon="-3.21559">
        <ele>-79.359631</ele>
        <time>2020-12-29T11:56:37.000Z</time>
      </trkpt>
      <trkpt lat="47.67432" lon="-3.21566">
        <ele>-79.386278</ele>
        <time>2020-12-29T11:56:36.000Z</time>
      </trkpt>
      <trkpt lat="47.67433" lon="-3.2158">
        <ele>-79.441436</ele>
        <time>2020-12-29T11:56:34.000Z</time>
      </trkpt>
      <trkpt lat="47.67434" lon="-3.21616">
        <ele>-79.586072</ele>
        <time>2020-12-29T11:56:29.000Z</time>
      </trkpt>
      <trkpt lat="47.67435" lon="-3.21632">
        <ele>-79.647815</ele>
        <time>2020-12-29T11:56:27.000Z</time>
      </trkpt>
      <trkpt lat="47.67436" lon="-3.21671">
        <ele>-79.804231</ele>
        <time>2020-12-29T11:56:22.000Z</time>
      </trkpt>
      <trkpt lat="47.67436" lon="-3.21687">
        <ele>-79.864786</ele>
        <time>2020-12-29T11:56:19.000Z</time>
      </trkpt>
      <trkpt lat="47.67439" lon="-3.21736">
        <ele>-80.062142</ele>
        <time>2020-12-29T11:56:13.000Z</time>
      </trkpt>
      <trkpt lat="47.6744" lon="-3.21776">
        <ele>-80.21952</ele>
        <time>2020-12-29T11:56:10.000Z</time>
      </trkpt>
      <trkpt lat="47.67441" lon="-3.21819">
        <ele>-80.389701</ele>
        <time>2020-12-29T11:56:06.000Z</time>
      </trkpt>
      <trkpt lat="47.67441" lon="-3.21829">
        <ele>-80.289228</ele>
        <time>2020-12-29T11:56:05.000Z</time>
      </trkpt>
      <trkpt lat="47.67443" lon="-3.219">
        <ele>-79.526982</ele>
        <time>2020-12-29T11:55:58.000Z</time>
      </trkpt>
      <trkpt lat="47.67443" lon="-3.21919">
        <ele>-79.318625</ele>
        <time>2020-12-29T11:55:55.000Z</time>
      </trkpt>
      <trkpt lat="47.67447" lon="-3.22009">
        <ele>-78.344067</ele>
        <time>2020-12-29T11:55:46.000Z</time>
      </trkpt>
      <trkpt lat="47.67447" lon="-3.22018">
        <ele>-78.251212</ele>
        <time>2020-12-29T11:55:45.000Z</time>
      </trkpt>
      <trkpt lat="47.67446" lon="-3.22051">
        <ele>-77.894313</ele>
        <time>2020-12-29T11:55:41.000Z</time>
      </trkpt>
      <trkpt lat="47.67441" lon="-3.22064">
        <ele>-77.734493</ele>
        <time>2020-12-29T11:55:39.000Z</time>
      </trkpt>
      <trkpt lat="47.67439" lon="-3.22066">
        <ele>-77.697786</ele>
        <time>2020-12-29T11:55:38.000Z</time>
      </trkpt>
      <trkpt lat="47.67437" lon="-3.22068">
        <ele>-77.661079</ele>
        <time>2020-12-29T11:55:37.000Z</time>
      </trkpt>
      <trkpt lat="47.67416" lon="-3.22072">
        <ele>-77.230989</ele>
        <time>2020-12-29T11:55:34.000Z</time>
      </trkpt>
      <trkpt lat="47.67409" lon="-3.22073">
        <ele>-77.082181</ele>
        <time>2020-12-29T11:55:33.000Z</time>
      </trkpt>
      <trkpt lat="47.67388" lon="-3.22075">
        <ele>-76.615538</ele>
        <time>2020-12-29T11:55:30.000Z</time>
      </trkpt>
      <trkpt lat="47.6736" lon="-3.22078">
        <ele>-75.985025</ele>
        <time>2020-12-29T11:55:25.000Z</time>
      </trkpt>
      <trkpt lat="47.67327" lon="-3.2209">
        <ele>-75.213875</ele>
        <time>2020-12-29T11:55:21.000Z</time>
      </trkpt>
      <trkpt lat="47.67321" lon="-3.22094">
        <ele>-75.062347</ele>
        <time>2020-12-29T11:55:20.000Z</time>
      </trkpt>
      <trkpt lat="47.67309" lon="-3.22103">
        <ele>-74.772584</ele>
        <time>2020-12-29T11:55:18.000Z</time>
      </trkpt>
      <trkpt lat="47.67285" lon="-3.22114">
        <ele>-74.19569</ele>
        <time>2020-12-29T11:55:13.000Z</time>
      </trkpt>
      <trkpt lat="47.67262" lon="-3.22118">
        <ele>-73.667841</ele>
        <time>2020-12-29T11:55:10.000Z</time>
      </trkpt>
      <trkpt lat="47.67228" lon="-3.22116">
        <ele>-73.242367</ele>
        <time>2020-12-29T11:55:04.000Z</time>
      </trkpt>
      <trkpt lat="47.67198" lon="-3.22117">
        <ele>-72.97661</ele>
        <time>2020-12-29T11:54:58.000Z</time>
      </trkpt>
      <trkpt lat="47.67193" lon="-3.22116">
        <ele>-72.935662</ele>
        <time>2020-12-29T11:54:57.000Z</time>
      </trkpt>
      <trkpt lat="47.67158" lon="-3.22115">
        <ele>-72.620126</ele>
        <time>2020-12-29T11:54:49.000Z</time>
      </trkpt>
      <trkpt lat="47.6712" lon="-3.22114">
        <ele>-72.288476</ele>
        <time>2020-12-29T11:54:42.000Z</time>
      </trkpt>
      <trkpt lat="47.67106" lon="-3.22114">
        <ele>-72.159617</ele>
        <time>2020-12-29T11:54:37.000Z</time>
      </trkpt>
      <trkpt lat="47.67091" lon="-3.22113">
        <ele>-72.02532</ele>
        <time>2020-12-29T11:54:32.000Z</time>
      </trkpt>
      <trkpt lat="47.67091" lon="-3.22113">
        <ele>-72.02532</ele>
        <time>2020-12-29T11:54:31.000Z</time>
      </trkpt>
      <trkpt lat="47.67074" lon="-3.22113">
        <ele>-71.87691</ele>
        <time>2020-12-29T11:54:27.000Z</time>
      </trkpt>
      <trkpt lat="47.67048" lon="-3.2211">
        <ele>-71.816441</ele>
        <time>2020-12-29T11:54:21.000Z</time>
      </trkpt>
      <trkpt lat="47.67036" lon="-3.2211">
        <ele>-71.793557</ele>
        <time>2020-12-29T11:54:16.000Z</time>
      </trkpt>
      <trkpt lat="47.67032" lon="-3.22108">
        <ele>-71.786185</ele>
        <time>2020-12-29T11:54:15.000Z</time>
      </trkpt>
      <trkpt lat="47.67029" lon="-3.221">
        <ele>-71.774219</ele>
        <time>2020-12-29T11:54:12.000Z</time>
      </trkpt>
      <trkpt lat="47.67028" lon="-3.22098">
        <ele>-71.769981</ele>
        <time>2020-12-29T11:54:11.000Z</time>
      </trkpt>
      <trkpt lat="47.6702" lon="-3.22099">
        <ele>-71.755527</ele>
        <time>2020-12-29T11:54:08.000Z</time>
      </trkpt>
      <trkpt lat="47.67012" lon="-3.22107">
        <ele>-71.735741</ele>
        <time>2020-12-29T11:54:05.000Z</time>
      </trkpt>
      <trkpt lat="47.67001" lon="-3.22118">
        <ele>-71.711818</ele>
        <time>2020-12-29T11:54:01.000Z</time>
      </trkpt>
      <trkpt lat="47.6699" lon="-3.22124">
        <ele>-71.688704</ele>
        <time>2020-12-29T11:53:59.000Z</time>
      </trkpt>
      <trkpt lat="47.66982" lon="-3.22125">
        <ele>-71.673132</ele>
        <time>2020-12-29T11:53:57.000Z</time>
      </trkpt>
      <trkpt lat="47.66982" lon="-3.22125">
        <ele>-71.673132</ele>
        <time>2020-12-29T11:53:56.000Z</time>
      </trkpt>
      <trkpt lat="47.66963" lon="-3.22108">
        <ele>-71.630924</ele>
        <time>2020-12-29T11:53:52.000Z</time>
      </trkpt>
      <trkpt lat="47.6696" lon="-3.22103">
        <ele>-71.621766</ele>
        <time>2020-12-29T11:53:51.000Z</time>
      </trkpt>
      <trkpt lat="47.66956" lon="-3.22099">
        <ele>-71.612497</ele>
        <time>2020-12-29T11:53:49.000Z</time>
      </trkpt>
      <trkpt lat="47.66937" lon="-3.22088">
        <ele>-71.57296</ele>
        <time>2020-12-29T11:53:46.000Z</time>
      </trkpt>
      <trkpt lat="47.66932" lon="-3.22085">
        <ele>-71.563001</ele>
        <time>2020-12-29T11:53:44.000Z</time>
      </trkpt>
      <trkpt lat="47.66927" lon="-3.22082">
        <ele>-71.553088</ele>
        <time>2020-12-29T11:53:43.000Z</time>
      </trkpt>
      <trkpt lat="47.66907" lon="-3.22069">
        <ele>-71.401222</ele>
        <time>2020-12-29T11:53:40.000Z</time>
      </trkpt>
      <trkpt lat="47.66902" lon="-3.22065">
        <ele>-71.238498</ele>
        <time>2020-12-29T11:53:39.000Z</time>
      </trkpt>
      <trkpt lat="47.66897" lon="-3.22061">
        <ele>-71.077485</ele>
        <time>2020-12-29T11:53:37.000Z</time>
      </trkpt>
      <trkpt lat="47.66873" lon="-3.22059">
        <ele>-70.373638</ele>
        <time>2020-12-29T11:53:33.000Z</time>
      </trkpt>
      <trkpt lat="47.66869" lon="-3.22063">
        <ele>-70.235575</ele>
        <time>2020-12-29T11:53:32.000Z</time>
      </trkpt>
      <trkpt lat="47.66865" lon="-3.22076">
        <ele>-69.949851</ele>
        <time>2020-12-29T11:53:30.000Z</time>
      </trkpt>
      <trkpt lat="47.66865" lon="-3.2209">
        <ele>-69.674847</ele>
        <time>2020-12-29T11:53:28.000Z</time>
      </trkpt>
      <trkpt lat="47.66866" lon="-3.22097">
        <ele>-69.525542</ele>
        <time>2020-12-29T11:53:27.000Z</time>
      </trkpt>
      <trkpt lat="47.66868" lon="-3.22105">
        <ele>-69.362838</ele>
        <time>2020-12-29T11:53:25.000Z</time>
      </trkpt>
      <trkpt lat="47.6688" lon="-3.22149">
        <ele>-68.434894</ele>
        <time>2020-12-29T11:53:21.000Z</time>
      </trkpt>
      <trkpt lat="47.66894" lon="-3.22194">
        <ele>-67.475727</ele>
        <time>2020-12-29T11:53:16.000Z</time>
      </trkpt>
      <trkpt lat="47.66899" lon="-3.22211">
        <ele>-67.099916</ele>
        <time>2020-12-29T11:53:14.000Z</time>
      </trkpt>
      <trkpt lat="47.66916" lon="-3.22263">
        <ele>-66.233605</ele>
        <time>2020-12-29T11:53:07.000Z</time>
      </trkpt>
      <trkpt lat="47.66943" lon="-3.22355">
        <ele>-65.953998</ele>
        <time>2020-12-29T11:52:58.000Z</time>
      </trkpt>
      <trkpt lat="47.66945" lon="-3.22364">
        <ele>-65.92666</ele>
        <time>2020-12-29T11:52:57.000Z</time>
      </trkpt>
      <trkpt lat="47.66965" lon="-3.22442">
        <ele>-65.690575</ele>
        <time>2020-12-29T11:52:48.000Z</time>
      </trkpt>
      <trkpt lat="47.66986" lon="-3.22497">
        <ele>-65.526466</ele>
        <time>2020-12-29T11:52:40.000Z</time>
      </trkpt>
      <trkpt lat="47.67011" lon="-3.22555">
        <ele>-65.508242</ele>
        <time>2020-12-29T11:52:33.000Z</time>
      </trkpt>
      <trkpt lat="47.67012" lon="-3.22559">
        <ele>-65.50706</ele>
        <time>2020-12-29T11:52:32.000Z</time>
      </trkpt>
      <trkpt lat="47.67013" lon="-3.22563">
        <ele>-65.505894</ele>
        <time>2020-12-29T11:52:31.000Z</time>
      </trkpt>
      <trkpt lat="47.67042" lon="-3.2264">
        <ele>-65.482591</ele>
        <time>2020-12-29T11:52:22.000Z</time>
      </trkpt>
      <trkpt lat="47.67047" lon="-3.22655">
        <ele>-65.478076</ele>
        <time>2020-12-29T11:52:19.000Z</time>
      </trkpt>
      <trkpt lat="47.67062" lon="-3.22699">
        <ele>-65.464949</ele>
        <time>2020-12-29T11:52:13.000Z</time>
      </trkpt>
      <trkpt lat="47.6707" lon="-3.22718">
        <ele>-65.458965</ele>
        <time>2020-12-29T11:52:11.000Z</time>
      </trkpt>
      <trkpt lat="47.67086" lon="-3.22734">
        <ele>-65.559219</ele>
        <time>2020-12-29T11:52:06.000Z</time>
      </trkpt>
      <trkpt lat="47.67115" lon="-3.22768">
        <ele>-65.816535</ele>
        <time>2020-12-29T11:51:59.000Z</time>
      </trkpt>
      <trkpt lat="47.67132" lon="-3.22788">
        <ele>-65.96893</ele>
        <time>2020-12-29T11:51:55.000Z</time>
      </trkpt>
      <trkpt lat="47.6714" lon="-3.22797">
        <ele>-66.044292</ele>
        <time>2020-12-29T11:51:53.000Z</time>
      </trkpt>
      <trkpt lat="47.67183" lon="-3.22846">
        <ele>-66.426115</ele>
        <time>2020-12-29T11:51:44.000Z</time>
      </trkpt>
      <trkpt lat="47.67222" lon="-3.22891">
        <ele>-66.786155</ele>
        <time>2020-12-29T11:51:35.000Z</time>
      </trkpt>
      <trkpt lat="47.67234" lon="-3.22905">
        <ele>-66.93046</ele>
        <time>2020-12-29T11:51:32.000Z</time>
      </trkpt>
      <trkpt lat="47.67259" lon="-3.22935">
        <ele>-67.219784</ele>
        <time>2020-12-29T11:51:26.000Z</time>
      </trkpt>
      <trkpt lat="47.6729" lon="-3.22971">
        <ele>-67.589287</ele>
        <time>2020-12-29T11:51:18.000Z</time>
      </trkpt>
      <trkpt lat="47.67301" lon="-3.22983">
        <ele>-67.711944</ele>
        <time>2020-12-29T11:51:15.000Z</time>
      </trkpt>
      <trkpt lat="47.67303" lon="-3.22988">
        <ele>-67.749105</ele>
        <time>2020-12-29T11:51:13.000Z</time>
      </trkpt>
      <trkpt lat="47.67306" lon="-3.23017">
        <ele>-67.932252</ele>
        <time>2020-12-29T11:51:09.000Z</time>
      </trkpt>
      <trkpt lat="47.67305" lon="-3.23023">
        <ele>-67.972416</ele>
        <time>2020-12-29T11:51:07.000Z</time>
      </trkpt>
      <trkpt lat="47.67302" lon="-3.23059">
        <ele>-68.194274</ele>
        <time>2020-12-29T11:51:03.000Z</time>
      </trkpt>
      <trkpt lat="47.673" lon="-3.23102">
        <ele>-68.579114</ele>
        <time>2020-12-29T11:50:57.000Z</time>
      </trkpt>
      <trkpt lat="47.67299" lon="-3.23125">
        <ele>-68.919335</ele>
        <time>2020-12-29T11:50:54.000Z</time>
      </trkpt>
      <trkpt lat="47.67297" lon="-3.23185">
        <ele>-69.829473</ele>
        <time>2020-12-29T11:50:46.000Z</time>
      </trkpt>
      <trkpt lat="47.67295" lon="-3.23228">
        <ele>-70.486345</ele>
        <time>2020-12-29T11:50:40.000Z</time>
      </trkpt>
      <trkpt lat="47.67295" lon="-3.23242">
        <ele>-70.706383</ele>
        <time>2020-12-29T11:50:38.000Z</time>
      </trkpt>
      <trkpt lat="47.67293" lon="-3.23278">
        <ele>-71.251366</ele>
        <time>2020-12-29T11:50:33.000Z</time>
      </trkpt>
      <trkpt lat="47.67293" lon="-3.23285">
        <ele>-71.359554</ele>
        <time>2020-12-29T11:50:32.000Z</time>
      </trkpt>
      <trkpt lat="47.67291" lon="-3.23314">
        <ele>-71.800918</ele>
        <time>2020-12-29T11:50:28.000Z</time>
      </trkpt>
      <trkpt lat="47.6729" lon="-3.23328">
        <ele>-72.012774</ele>
        <time>2020-12-29T11:50:26.000Z</time>
      </trkpt>
      <trkpt lat="47.6729" lon="-3.23328">
        <ele>-72.012774</ele>
        <time>2020-12-29T11:50:25.000Z</time>
      </trkpt>
      <trkpt lat="47.67285" lon="-3.23409">
        <ele>-73.075675</ele>
        <time>2020-12-29T11:50:15.000Z</time>
      </trkpt>
      <trkpt lat="47.67284" lon="-3.23417">
        <ele>-73.164413</ele>
        <time>2020-12-29T11:50:14.000Z</time>
      </trkpt>
      <trkpt lat="47.67281" lon="-3.23478">
        <ele>-73.90485</ele>
        <time>2020-12-29T11:50:06.000Z</time>
      </trkpt>
      <trkpt lat="47.67276" lon="-3.23558">
        <ele>-74.866411</ele>
        <time>2020-12-29T11:49:56.000Z</time>
      </trkpt>
      <trkpt lat="47.67276" lon="-3.23574">
        <ele>-75.049862</ele>
        <time>2020-12-29T11:49:54.000Z</time>
      </trkpt>
      <trkpt lat="47.67276" lon="-3.23589">
        <ele>-75.227026</ele>
        <time>2020-12-29T11:49:52.000Z</time>
      </trkpt>
      <trkpt lat="47.67275" lon="-3.23604">
        <ele>-75.410477</ele>
        <time>2020-12-29T11:49:50.000Z</time>
      </trkpt>
      <trkpt lat="47.67275" lon="-3.23604">
        <ele>-75.410477</ele>
        <time>2020-12-29T11:49:49.000Z</time>
      </trkpt>
      <trkpt lat="47.67274" lon="-3.23649">
        <ele>-75.548118</ele>
        <time>2020-12-29T11:49:44.000Z</time>
      </trkpt>
      <trkpt lat="47.67274" lon="-3.23649">
        <ele>-75.548118</ele>
        <time>2020-12-29T11:49:43.000Z</time>
      </trkpt>
      <trkpt lat="47.67273" lon="-3.23678">
        <ele>-75.458673</ele>
        <time>2020-12-29T11:49:40.000Z</time>
      </trkpt>
      <trkpt lat="47.67276" lon="-3.23684">
        <ele>-75.435812</ele>
        <time>2020-12-29T11:49:39.000Z</time>
      </trkpt>
      <trkpt lat="47.67297" lon="-3.23717">
        <ele>-75.295292</ele>
        <time>2020-12-29T11:49:33.000Z</time>
      </trkpt>
      <trkpt lat="47.67309" lon="-3.23734">
        <ele>-75.220183</ele>
        <time>2020-12-29T11:49:30.000Z</time>
      </trkpt>
      <trkpt lat="47.67318" lon="-3.23745">
        <ele>-75.167558</ele>
        <time>2020-12-29T11:49:28.000Z</time>
      </trkpt>
      <trkpt lat="47.67353" lon="-3.23791">
        <ele>-74.950245</ele>
        <time>2020-12-29T11:49:19.000Z</time>
      </trkpt>
      <trkpt lat="47.67373" lon="-3.23812">
        <ele>-74.839362</ele>
        <time>2020-12-29T11:49:16.000Z</time>
      </trkpt>
      <trkpt lat="47.67379" lon="-3.23814">
        <ele>-74.81214</ele>
        <time>2020-12-29T11:49:15.000Z</time>
      </trkpt>
      <trkpt lat="47.67385" lon="-3.23815">
        <ele>-74.784092</ele>
        <time>2020-12-29T11:49:13.000Z</time>
      </trkpt>
      <trkpt lat="47.67396" lon="-3.23816">
        <ele>-74.727594</ele>
        <time>2020-12-29T11:49:12.000Z</time>
      </trkpt>
      <trkpt lat="47.67402" lon="-3.23817">
        <ele>-74.699586</ele>
        <time>2020-12-29T11:49:11.000Z</time>
      </trkpt>
      <trkpt lat="47.67435" lon="-3.23823">
        <ele>-74.543539</ele>
        <time>2020-12-29T11:49:05.000Z</time>
      </trkpt>
      <trkpt lat="47.67444" lon="-3.23826">
        <ele>-74.498949</ele>
        <time>2020-12-29T11:49:03.000Z</time>
      </trkpt>
      <trkpt lat="47.67447" lon="-3.2383">
        <ele>-74.479196</ele>
        <time>2020-12-29T11:49:01.000Z</time>
      </trkpt>
      <trkpt lat="47.67439" lon="-3.2387">
        <ele>-74.342662</ele>
        <time>2020-12-29T11:48:55.000Z</time>
      </trkpt>
      <trkpt lat="47.6743" lon="-3.23896">
        <ele>-74.250179</ele>
        <time>2020-12-29T11:48:51.000Z</time>
      </trkpt>
      <trkpt lat="47.67428" lon="-3.23903">
        <ele>-74.22702</ele>
        <time>2020-12-29T11:48:49.000Z</time>
      </trkpt>
      <trkpt lat="47.67428" lon="-3.2397">
        <ele>-74.009356</ele>
        <time>2020-12-29T11:48:41.000Z</time>
      </trkpt>
      <trkpt lat="47.6743" lon="-3.24026">
        <ele>-74.065365</ele>
        <time>2020-12-29T11:48:34.000Z</time>
      </trkpt>
      <trkpt lat="47.67434" lon="-3.2409">
        <ele>-74.275049</ele>
        <time>2020-12-29T11:48:26.000Z</time>
      </trkpt>
      <trkpt lat="47.67435" lon="-3.2412">
        <ele>-74.371672</ele>
        <time>2020-12-29T11:48:22.000Z</time>
      </trkpt>
      <trkpt lat="47.67434" lon="-3.24135">
        <ele>-74.419716</ele>
        <time>2020-12-29T11:48:20.000Z</time>
      </trkpt>
      <trkpt lat="47.67431" lon="-3.24171">
        <ele>-74.540776</ele>
        <time>2020-12-29T11:48:15.000Z</time>
      </trkpt>
      <trkpt lat="47.6743" lon="-3.24179">
        <ele>-74.565416</ele>
        <time>2020-12-29T11:48:13.000Z</time>
      </trkpt>
      <trkpt lat="47.67427" lon="-3.24227">
        <ele>-74.722592</ele>
        <time>2020-12-29T11:48:07.000Z</time>
      </trkpt>
      <trkpt lat="47.67428" lon="-3.24244">
        <ele>-74.7768</ele>
        <time>2020-12-29T11:48:06.000Z</time>
      </trkpt>
      <trkpt lat="47.67429" lon="-3.24259">
        <ele>-74.800815</ele>
        <time>2020-12-29T11:48:04.000Z</time>
      </trkpt>
      <trkpt lat="47.67429" lon="-3.24275">
        <ele>-74.718685</ele>
        <time>2020-12-29T11:48:02.000Z</time>
      </trkpt>
      <trkpt lat="47.6743" lon="-3.24283">
        <ele>-74.676353</ele>
        <time>2020-12-29T11:48:00.000Z</time>
      </trkpt>
      <trkpt lat="47.67436" lon="-3.24324">
        <ele>-74.454396</ele>
        <time>2020-12-29T11:47:55.000Z</time>
      </trkpt>
      <trkpt lat="47.67446" lon="-3.24356">
        <ele>-74.272225</ele>
        <time>2020-12-29T11:47:52.000Z</time>
      </trkpt>
      <trkpt lat="47.67482" lon="-3.24399">
        <ele>-73.914643</ele>
        <time>2020-12-29T11:47:44.000Z</time>
      </trkpt>
      <trkpt lat="47.67486" lon="-3.24404">
        <ele>-73.870943</ele>
        <time>2020-12-29T11:47:42.000Z</time>
      </trkpt>
      <trkpt lat="47.67512" lon="-3.2444">
        <ele>-73.598676</ele>
        <time>2020-12-29T11:47:36.000Z</time>
      </trkpt>
      <trkpt lat="47.67552" lon="-3.24503">
        <ele>-73.771577</ele>
        <time>2020-12-29T11:47:27.000Z</time>
      </trkpt>
      <trkpt lat="47.6756" lon="-3.24514">
        <ele>-73.883532</ele>
        <time>2020-12-29T11:47:24.000Z</time>
      </trkpt>
      <trkpt lat="47.67578" lon="-3.24532">
        <ele>-74.091647</ele>
        <time>2020-12-29T11:47:20.000Z</time>
      </trkpt>
      <trkpt lat="47.67606" lon="-3.24551">
        <ele>-74.399529</ele>
        <time>2020-12-29T11:47:13.000Z</time>
      </trkpt>
      <trkpt lat="47.67609" lon="-3.24553">
        <ele>-74.434271</ele>
        <time>2020-12-29T11:47:12.000Z</time>
      </trkpt>
      <trkpt lat="47.67615" lon="-3.24564">
        <ele>-74.527049</ele>
        <time>2020-12-29T11:47:10.000Z</time>
      </trkpt>
      <trkpt lat="47.67616" lon="-3.24568">
        <ele>-74.555109</ele>
        <time>2020-12-29T11:47:09.000Z</time>
      </trkpt>
      <trkpt lat="47.67613" lon="-3.24588">
        <ele>-74.690181</ele>
        <time>2020-12-29T11:47:05.000Z</time>
      </trkpt>
      <trkpt lat="47.67606" lon="-3.24625">
        <ele>-74.945599</ele>
        <time>2020-12-29T11:46:59.000Z</time>
      </trkpt>
      <trkpt lat="47.67596" lon="-3.24676">
        <ele>-75.114333</ele>
        <time>2020-12-29T11:46:51.000Z</time>
      </trkpt>
      <trkpt lat="47.67594" lon="-3.24689">
        <ele>-75.0448</ele>
        <time>2020-12-29T11:46:48.000Z</time>
      </trkpt>
      <trkpt lat="47.67587" lon="-3.24729">
        <ele>-74.829532</ele>
        <time>2020-12-29T11:46:42.000Z</time>
      </trkpt>
      <trkpt lat="47.67586" lon="-3.24735">
        <ele>-74.794037</ele>
        <time>2020-12-29T11:46:41.000Z</time>
      </trkpt>
      <trkpt lat="47.67584" lon="-3.24742">
        <ele>-74.758299</ele>
        <time>2020-12-29T11:46:40.000Z</time>
      </trkpt>
      <trkpt lat="47.67542" lon="-3.24846">
        <ele>-76.194979</ele>
        <time>2020-12-29T11:44:23.000Z</time>
      </trkpt>
      <trkpt lat="47.6753" lon="-3.24875">
        <ele>-76.668685</ele>
        <time>2020-12-29T11:44:17.000Z</time>
      </trkpt>
      <trkpt lat="47.67529" lon="-3.24882">
        <ele>-76.755491</ele>
        <time>2020-12-29T11:44:15.000Z</time>
      </trkpt>
      <trkpt lat="47.67531" lon="-3.24883">
        <ele>-76.799053</ele>
        <time>2020-12-29T11:43:46.000Z</time>
      </trkpt>
      <trkpt lat="47.67531" lon="-3.24884">
        <ele>-76.801803</ele>
        <time>2020-12-29T11:43:45.000Z</time>
      </trkpt>
      <trkpt lat="47.67538" lon="-3.24883">
        <ele>-76.949001</ele>
        <time>2020-12-29T11:43:41.000Z</time>
      </trkpt>
      <trkpt lat="47.67545" lon="-3.24884">
        <ele>-76.878341</ele>
        <time>2020-12-29T11:43:38.000Z</time>
      </trkpt>
      <trkpt lat="47.67558" lon="-3.24883">
        <ele>-76.669838</ele>
        <time>2020-12-29T11:43:36.000Z</time>
      </trkpt>
      <trkpt lat="47.67595" lon="-3.24882">
        <ele>-76.088295</ele>
        <time>2020-12-29T11:43:29.000Z</time>
      </trkpt>
      <trkpt lat="47.67601" lon="-3.24882">
        <ele>-75.997167</ele>
        <time>2020-12-29T11:43:28.000Z</time>
      </trkpt>
      <trkpt lat="47.67644" lon="-3.24881">
        <ele>-75.331003</ele>
        <time>2020-12-29T11:43:20.000Z</time>
      </trkpt>
      <trkpt lat="47.67681" lon="-3.24881">
        <ele>-74.738526</ele>
        <time>2020-12-29T11:43:15.000Z</time>
      </trkpt>
      <trkpt lat="47.67699" lon="-3.24881">
        <ele>-74.456397</ele>
        <time>2020-12-29T11:43:12.000Z</time>
      </trkpt>
      <trkpt lat="47.67749" lon="-3.2488">
        <ele>-74.095302</ele>
        <time>2020-12-29T11:43:03.000Z</time>
      </trkpt>
      <trkpt lat="47.67784" lon="-3.24879">
        <ele>-74.028323</ele>
        <time>2020-12-29T11:42:56.000Z</time>
      </trkpt>
      <trkpt lat="47.67784" lon="-3.24879">
        <ele>-74.028323</ele>
        <time>2020-12-29T11:42:55.000Z</time>
      </trkpt>
      <trkpt lat="47.67797" lon="-3.24878">
        <ele>-74.0027</ele>
        <time>2020-12-29T11:42:53.000Z</time>
      </trkpt>
      <trkpt lat="47.67809" lon="-3.24876">
        <ele>-73.979315</ele>
        <time>2020-12-29T11:42:49.000Z</time>
      </trkpt>
      <trkpt lat="47.67813" lon="-3.24876">
        <ele>-73.973146</ele>
        <time>2020-12-29T11:42:48.000Z</time>
      </trkpt>
      <trkpt lat="47.67818" lon="-3.24891">
        <ele>-73.951408</ele>
        <time>2020-12-29T11:42:43.000Z</time>
      </trkpt>
      <trkpt lat="47.67825" lon="-3.24919">
        <ele>-73.912294</ele>
        <time>2020-12-29T11:42:38.000Z</time>
      </trkpt>
      <trkpt lat="47.67825" lon="-3.24919">
        <ele>-73.912294</ele>
        <time>2020-12-29T11:42:37.000Z</time>
      </trkpt>
      <trkpt lat="47.67826" lon="-3.24952">
        <ele>-73.869788</ele>
        <time>2020-12-29T11:42:30.000Z</time>
      </trkpt>
      <trkpt lat="47.67825" lon="-3.24971">
        <ele>-73.844738</ele>
        <time>2020-12-29T11:42:26.000Z</time>
      </trkpt>
      <trkpt lat="47.67823" lon="-3.25004">
        <ele>-73.858528</ele>
        <time>2020-12-29T11:42:20.000Z</time>
      </trkpt>
      <trkpt lat="47.67822" lon="-3.25027">
        <ele>-74.095685</ele>
        <time>2020-12-29T11:42:17.000Z</time>
      </trkpt>
      <trkpt lat="47.67819" lon="-3.2506">
        <ele>-74.445117</ele>
        <time>2020-12-29T11:42:11.000Z</time>
      </trkpt>
      <trkpt lat="47.67818" lon="-3.25075">
        <ele>-74.613392</ele>
        <time>2020-12-29T11:42:07.000Z</time>
      </trkpt>
      <trkpt lat="47.67816" lon="-3.25096">
        <ele>-74.836926</ele>
        <time>2020-12-29T11:42:04.000Z</time>
      </trkpt>
      <trkpt lat="47.67816" lon="-3.25115">
        <ele>-75.035495</ele>
        <time>2020-12-29T11:41:59.000Z</time>
      </trkpt>
      <trkpt lat="47.67818" lon="-3.25119">
        <ele>-75.079394</ele>
        <time>2020-12-29T11:41:53.000Z</time>
      </trkpt>
      <trkpt lat="47.6782" lon="-3.2512">
        <ele>-75.122791</ele>
        <time>2020-12-29T11:41:50.000Z</time>
      </trkpt>
      <trkpt lat="47.6784" lon="-3.25123">
        <ele>-75.43838</ele>
        <time>2020-12-29T11:41:44.000Z</time>
      </trkpt>
      <trkpt lat="47.67866" lon="-3.25126">
        <ele>-75.843123</ele>
        <time>2020-12-29T11:41:35.000Z</time>
      </trkpt>
      <trkpt lat="47.67889" lon="-3.25129">
        <ele>-76.208083</ele>
        <time>2020-12-29T11:41:27.000Z</time>
      </trkpt>
      <trkpt lat="47.67926" lon="-3.25134">
        <ele>-76.811854</ele>
        <time>2020-12-29T11:41:17.000Z</time>
      </trkpt>
      <trkpt lat="47.67956" lon="-3.25139">
        <ele>-77.398235</ele>
        <time>2020-12-29T11:41:09.000Z</time>
      </trkpt>
      <trkpt lat="47.6796" lon="-3.25139">
        <ele>-77.473352</ele>
        <time>2020-12-29T11:41:07.000Z</time>
      </trkpt>
      <trkpt lat="47.67989" lon="-3.25144">
        <ele>-78.029337</ele>
        <time>2020-12-29T11:41:00.000Z</time>
      </trkpt>
      <trkpt lat="47.68024" lon="-3.25149">
        <ele>-78.708269</ele>
        <time>2020-12-29T11:40:49.000Z</time>
      </trkpt>
      <trkpt lat="47.68064" lon="-3.25155">
        <ele>-79.473521</ele>
        <time>2020-12-29T11:40:39.000Z</time>
      </trkpt>
      <trkpt lat="47.68064" lon="-3.25155">
        <ele>-79.473521</ele>
        <time>2020-12-29T11:40:38.000Z</time>
      </trkpt>
      <trkpt lat="47.68083" lon="-3.25157">
        <ele>-79.850613</ele>
        <time>2020-12-29T11:40:34.000Z</time>
      </trkpt>
      <trkpt lat="47.68091" lon="-3.25157">
        <ele>-80.009933</ele>
        <time>2020-12-29T11:40:31.000Z</time>
      </trkpt>
      <trkpt lat="47.68109" lon="-3.25143">
        <ele>-80.268439</ele>
        <time>2020-12-29T11:40:27.000Z</time>
      </trkpt>
      <trkpt lat="47.68124" lon="-3.25131">
        <ele>-80.46737</ele>
        <time>2020-12-29T11:40:23.000Z</time>
      </trkpt>
      <trkpt lat="47.68152" lon="-3.25107">
        <ele>-80.845937</ele>
        <time>2020-12-29T11:40:16.000Z</time>
      </trkpt>
      <trkpt lat="47.6816" lon="-3.25101">
        <ele>-80.949898</ele>
        <time>2020-12-29T11:40:13.000Z</time>
      </trkpt>
      <trkpt lat="47.6819" lon="-3.25072">
        <ele>-81.37389</ele>
        <time>2020-12-29T11:40:06.000Z</time>
      </trkpt>
      <trkpt lat="47.68198" lon="-3.25065">
        <ele>-81.478705</ele>
        <time>2020-12-29T11:40:04.000Z</time>
      </trkpt>
      <trkpt lat="47.68215" lon="-3.2505">
        <ele>-81.703999</ele>
        <time>2020-12-29T11:39:59.000Z</time>
      </trkpt>
      <trkpt lat="47.68218" lon="-3.25043">
        <ele>-81.773341</ele>
        <time>2020-12-29T11:39:57.000Z</time>
      </trkpt>
      <trkpt lat="47.68218" lon="-3.25039">
        <ele>-81.804087</ele>
        <time>2020-12-29T11:39:56.000Z</time>
      </trkpt>
      <trkpt lat="47.68214" lon="-3.25034">
        <ele>-81.868268</ele>
        <time>2020-12-29T11:39:53.000Z</time>
      </trkpt>
      <trkpt lat="47.68214" lon="-3.25031">
        <ele>-81.884776</ele>
        <time>2020-12-29T11:39:51.000Z</time>
      </trkpt>
      <trkpt lat="47.68216" lon="-3.25031">
        <ele>-81.90896</ele>
        <time>2020-12-29T11:39:49.000Z</time>
      </trkpt>
      <trkpt lat="47.6822" lon="-3.25032">
        <ele>-81.953742</ele>
        <time>2020-12-29T11:39:48.000Z</time>
      </trkpt>
      <trkpt lat="47.68231" lon="-3.25037">
        <ele>-82.093218</ele>
        <time>2020-12-29T11:39:46.000Z</time>
      </trkpt>
      <trkpt lat="47.68244" lon="-3.25039">
        <ele>-82.090173</ele>
        <time>2020-12-29T11:39:45.000Z</time>
      </trkpt>
      <trkpt lat="47.68286" lon="-3.25035">
        <ele>-81.411944</ele>
        <time>2020-12-29T11:39:38.000Z</time>
      </trkpt>
      <trkpt lat="47.68293" lon="-3.25033">
        <ele>-81.291889</ele>
        <time>2020-12-29T11:39:37.000Z</time>
      </trkpt>
      <trkpt lat="47.68329" lon="-3.25025">
        <ele>-80.697658</ele>
        <time>2020-12-29T11:39:32.000Z</time>
      </trkpt>
      <trkpt lat="47.68356" lon="-3.25013">
        <ele>-80.232901</ele>
        <time>2020-12-29T11:39:29.000Z</time>
      </trkpt>
      <trkpt lat="47.68376" lon="-3.25003">
        <ele>-79.884665</ele>
        <time>2020-12-29T11:39:25.000Z</time>
      </trkpt>
      <trkpt lat="47.68412" lon="-3.24986">
        <ele>-79.270663</ele>
        <time>2020-12-29T11:39:21.000Z</time>
      </trkpt>
      <trkpt lat="47.68419" lon="-3.24982">
        <ele>-79.021902</ele>
        <time>2020-12-29T11:39:20.000Z</time>
      </trkpt>
      <trkpt lat="47.68449" lon="-3.24971">
        <ele>-77.8385</ele>
        <time>2020-12-29T11:39:16.000Z</time>
      </trkpt>
      <trkpt lat="47.68464" lon="-3.24969">
        <ele>-77.240219</ele>
        <time>2020-12-29T11:39:14.000Z</time>
      </trkpt>
      <trkpt lat="47.68487" lon="-3.24967">
        <ele>-76.350987</ele>
        <time>2020-12-29T11:39:11.000Z</time>
      </trkpt>
      <trkpt lat="47.68509" lon="-3.24962">
        <ele>-75.48529</ele>
        <time>2020-12-29T11:39:08.000Z</time>
      </trkpt>
      <trkpt lat="47.68509" lon="-3.24962">
        <ele>-75.48529</ele>
        <time>2020-12-29T11:39:07.000Z</time>
      </trkpt>
      <trkpt lat="47.68545" lon="-3.24954">
        <ele>-74.093797</ele>
        <time>2020-12-29T11:39:03.000Z</time>
      </trkpt>
      <trkpt lat="47.68572" lon="-3.24948">
        <ele>-73.029563</ele>
        <time>2020-12-29T11:38:59.000Z</time>
      </trkpt>
      <trkpt lat="47.68572" lon="-3.24948">
        <ele>-73.029563</ele>
        <time>2020-12-29T11:38:58.000Z</time>
      </trkpt>
      <trkpt lat="47.68592" lon="-3.24945">
        <ele>-72.262095</ele>
        <time>2020-12-29T11:38:55.000Z</time>
      </trkpt>
      <trkpt lat="47.68616" lon="-3.2494">
        <ele>-71.565497</ele>
        <time>2020-12-29T11:38:52.000Z</time>
      </trkpt>
      <trkpt lat="47.68628" lon="-3.24936">
        <ele>-71.236084</ele>
        <time>2020-12-29T11:38:50.000Z</time>
      </trkpt>
      <trkpt lat="47.68656" lon="-3.24928">
        <ele>-70.434304</ele>
        <time>2020-12-29T11:38:45.000Z</time>
      </trkpt>
      <trkpt lat="47.68667" lon="-3.24925">
        <ele>-70.119762</ele>
        <time>2020-12-29T11:38:42.000Z</time>
      </trkpt>
      <trkpt lat="47.68677" lon="-3.24923">
        <ele>-69.820464</ele>
        <time>2020-12-29T11:38:40.000Z</time>
      </trkpt>
      <trkpt lat="47.68686" lon="-3.24927">
        <ele>-69.564328</ele>
        <time>2020-12-29T11:38:39.000Z</time>
      </trkpt>
      <trkpt lat="47.68689" lon="-3.24932">
        <ele>-69.449693</ele>
        <time>2020-12-29T11:38:37.000Z</time>
      </trkpt>
      <trkpt lat="47.68694" lon="-3.24949">
        <ele>-69.096708</ele>
        <time>2020-12-29T11:38:35.000Z</time>
      </trkpt>
      <trkpt lat="47.68716" lon="-3.25005">
        <ele>-67.863416</ele>
        <time>2020-12-29T11:38:27.000Z</time>
      </trkpt>
      <trkpt lat="47.68719" lon="-3.25012">
        <ele>-67.707376</ele>
        <time>2020-12-29T11:38:25.000Z</time>
      </trkpt>
      <trkpt lat="47.68743" lon="-3.25072">
        <ele>-66.908011</ele>
        <time>2020-12-29T11:38:18.000Z</time>
      </trkpt>
      <trkpt lat="47.68763" lon="-3.25125">
        <ele>-66.48339</ele>
        <time>2020-12-29T11:38:11.000Z</time>
      </trkpt>
      <trkpt lat="47.68773" lon="-3.25148">
        <ele>-66.293848</ele>
        <time>2020-12-29T11:38:07.000Z</time>
      </trkpt>
      <trkpt lat="47.68798" lon="-3.25217">
        <ele>-65.744605</ele>
        <time>2020-12-29T11:37:59.000Z</time>
      </trkpt>
      <trkpt lat="47.68824" lon="-3.25281">
        <ele>-65.509566</ele>
        <time>2020-12-29T11:37:49.000Z</time>
      </trkpt>
      <trkpt lat="47.68836" lon="-3.25324">
        <ele>-65.917618</ele>
        <time>2020-12-29T11:37:44.000Z</time>
      </trkpt>
      <trkpt lat="47.68836" lon="-3.25324">
        <ele>-65.917618</ele>
        <time>2020-12-29T11:37:43.000Z</time>
      </trkpt>
      <trkpt lat="47.68843" lon="-3.25396">
        <ele>-66.565525</ele>
        <time>2020-12-29T11:37:35.000Z</time>
      </trkpt>
      <trkpt lat="47.68843" lon="-3.25404">
        <ele>-66.638321</ele>
        <time>2020-12-29T11:37:34.000Z</time>
      </trkpt>
      <trkpt lat="47.68848" lon="-3.25469">
        <ele>-67.227126</ele>
        <time>2020-12-29T11:37:25.000Z</time>
      </trkpt>
      <trkpt lat="47.6885" lon="-3.25494">
        <ele>-67.451542</ele>
        <time>2020-12-29T11:37:23.000Z</time>
      </trkpt>
      <trkpt lat="47.68859" lon="-3.25542">
        <ele>-67.922381</ele>
        <time>2020-12-29T11:37:17.000Z</time>
      </trkpt>
      <trkpt lat="47.68864" lon="-3.25565">
        <ele>-68.179545</ele>
        <time>2020-12-29T11:37:14.000Z</time>
      </trkpt>
      <trkpt lat="47.68875" lon="-3.25613">
        <ele>-68.704679</ele>
        <time>2020-12-29T11:37:08.000Z</time>
      </trkpt>
      <trkpt lat="47.68882" lon="-3.25644">
        <ele>-69.05361</ele>
        <time>2020-12-29T11:37:04.000Z</time>
      </trkpt>
      <trkpt lat="47.68893" lon="-3.25691">
        <ele>-69.571802</ele>
        <time>2020-12-29T11:36:58.000Z</time>
      </trkpt>
      <trkpt lat="47.68911" lon="-3.25769">
        <ele>-70.439467</ele>
        <time>2020-12-29T11:36:48.000Z</time>
      </trkpt>
      <trkpt lat="47.68931" lon="-3.25852">
        <ele>-70.404098</ele>
        <time>2020-12-29T11:36:37.000Z</time>
      </trkpt>
      <trkpt lat="47.68948" lon="-3.25925">
        <ele>-70.282634</ele>
        <time>2020-12-29T11:36:29.000Z</time>
      </trkpt>
      <trkpt lat="47.68962" lon="-3.25986">
        <ele>-70.179843</ele>
        <time>2020-12-29T11:36:21.000Z</time>
      </trkpt>
      <trkpt lat="47.68963" lon="-3.25994">
        <ele>-70.167616</ele>
        <time>2020-12-29T11:36:19.000Z</time>
      </trkpt>
      <trkpt lat="47.68969" lon="-3.26012">
        <ele>-70.135138</ele>
        <time>2020-12-29T11:36:17.000Z</time>
      </trkpt>
      <trkpt lat="47.68973" lon="-3.2603">
        <ele>-70.107604</ele>
        <time>2020-12-29T11:36:12.000Z</time>
      </trkpt>
      <trkpt lat="47.68976" lon="-3.26047">
        <ele>-70.239556</ele>
        <time>2020-12-29T11:36:07.000Z</time>
      </trkpt>
      <trkpt lat="47.68983" lon="-3.2608">
        <ele>-70.50344</ele>
        <time>2020-12-29T11:36:03.000Z</time>
      </trkpt>
      <trkpt lat="47.68986" lon="-3.26085">
        <ele>-70.558239</ele>
        <time>2020-12-29T11:36:01.000Z</time>
      </trkpt>
      <trkpt lat="47.68999" lon="-3.26096">
        <ele>-70.719132</ele>
        <time>2020-12-29T11:35:59.000Z</time>
      </trkpt>
      <trkpt lat="47.69003" lon="-3.26108">
        <ele>-70.828364</ele>
        <time>2020-12-29T11:35:57.000Z</time>
      </trkpt>
      <trkpt lat="47.6901" lon="-3.26153">
        <ele>-71.176013</ele>
        <time>2020-12-29T11:35:51.000Z</time>
      </trkpt>
      <trkpt lat="47.69016" lon="-3.26198">
        <ele>-71.524823</ele>
        <time>2020-12-29T11:35:45.000Z</time>
      </trkpt>
      <trkpt lat="47.6902" lon="-3.26227">
        <ele>-71.750678</ele>
        <time>2020-12-29T11:35:41.000Z</time>
      </trkpt>
      <trkpt lat="47.69026" lon="-3.26271">
        <ele>-72.089576</ele>
        <time>2020-12-29T11:35:35.000Z</time>
      </trkpt>
      <trkpt lat="47.69028" lon="-3.26292">
        <ele>-72.292555</ele>
        <time>2020-12-29T11:35:32.000Z</time>
      </trkpt>
      <trkpt lat="47.69032" lon="-3.26321">
        <ele>-72.584474</ele>
        <time>2020-12-29T11:35:28.000Z</time>
      </trkpt>
      <trkpt lat="47.69036" lon="-3.26351">
        <ele>-72.880123</ele>
        <time>2020-12-29T11:35:24.000Z</time>
      </trkpt>
      <trkpt lat="47.69037" lon="-3.26358">
        <ele>-72.95732</ele>
        <time>2020-12-29T11:35:23.000Z</time>
      </trkpt>
      <trkpt lat="47.69039" lon="-3.26381">
        <ele>-73.189376</ele>
        <time>2020-12-29T11:35:20.000Z</time>
      </trkpt>
      <trkpt lat="47.69043" lon="-3.26414">
        <ele>-73.518896</ele>
        <time>2020-12-29T11:35:16.000Z</time>
      </trkpt>
      <trkpt lat="47.69044" lon="-3.26423">
        <ele>-73.606604</ele>
        <time>2020-12-29T11:35:15.000Z</time>
      </trkpt>
      <trkpt lat="47.69051" lon="-3.26448">
        <ele>-73.874139</ele>
        <time>2020-12-29T11:35:12.000Z</time>
      </trkpt>
      <trkpt lat="47.69055" lon="-3.26455">
        <ele>-73.968272</ele>
        <time>2020-12-29T11:35:11.000Z</time>
      </trkpt>
      <trkpt lat="47.6908" lon="-3.2647">
        <ele>-74.357341</ele>
        <time>2020-12-29T11:35:07.000Z</time>
      </trkpt>
      <trkpt lat="47.69112" lon="-3.26487">
        <ele>-74.69543</ele>
        <time>2020-12-29T11:35:02.000Z</time>
      </trkpt>
      <trkpt lat="47.69132" lon="-3.26498">
        <ele>-74.334442</ele>
        <time>2020-12-29T11:34:59.000Z</time>
      </trkpt>
      <trkpt lat="47.69138" lon="-3.26503">
        <ele>-74.211891</ele>
        <time>2020-12-29T11:34:58.000Z</time>
      </trkpt>
      <trkpt lat="47.69164" lon="-3.2652">
        <ele>-73.732026</ele>
        <time>2020-12-29T11:34:54.000Z</time>
      </trkpt>
      <trkpt lat="47.69189" lon="-3.26535">
        <ele>-73.281111</ele>
        <time>2020-12-29T11:34:50.000Z</time>
      </trkpt>
      <trkpt lat="47.69206" lon="-3.26545">
        <ele>-72.966333</ele>
        <time>2020-12-29T11:34:47.000Z</time>
      </trkpt>
      <trkpt lat="47.69222" lon="-3.26555">
        <ele>-72.677839</ele>
        <time>2020-12-29T11:34:44.000Z</time>
      </trkpt>
      <trkpt lat="47.69226" lon="-3.26558">
        <ele>-72.59118</ele>
        <time>2020-12-29T11:34:43.000Z</time>
      </trkpt>
      <trkpt lat="47.69238" lon="-3.26565">
        <ele>-72.371937</ele>
        <time>2020-12-29T11:34:40.000Z</time>
      </trkpt>
      <trkpt lat="47.69243" lon="-3.26576">
        <ele>-72.23288</ele>
        <time>2020-12-29T11:34:37.000Z</time>
      </trkpt>
      <trkpt lat="47.69242" lon="-3.2658">
        <ele>-72.18255</ele>
        <time>2020-12-29T11:34:36.000Z</time>
      </trkpt>
      <trkpt lat="47.69224" lon="-3.26603">
        <ele>-71.779599</ele>
        <time>2020-12-29T11:34:30.000Z</time>
      </trkpt>
      <trkpt lat="47.69217" lon="-3.26611">
        <ele>-71.872927</ele>
        <time>2020-12-29T11:34:28.000Z</time>
      </trkpt>
      <trkpt lat="47.69203" lon="-3.26637">
        <ele>-72.391859</ele>
        <time>2020-12-29T11:34:23.000Z</time>
      </trkpt>
      <trkpt lat="47.69198" lon="-3.26648">
        <ele>-72.595057</ele>
        <time>2020-12-29T11:34:21.000Z</time>
      </trkpt>
      <trkpt lat="47.6919" lon="-3.26673">
        <ele>-73.018063</ele>
        <time>2020-12-29T11:34:17.000Z</time>
      </trkpt>
      <trkpt lat="47.69183" lon="-3.26705">
        <ele>-73.544104</ele>
        <time>2020-12-29T11:34:12.000Z</time>
      </trkpt>
      <trkpt lat="47.69177" lon="-3.26724">
        <ele>-73.862528</ele>
        <time>2020-12-29T11:34:09.000Z</time>
      </trkpt>
      <trkpt lat="47.69169" lon="-3.26749">
        <ele>-74.288936</ele>
        <time>2020-12-29T11:34:05.000Z</time>
      </trkpt>
      <trkpt lat="47.6916" lon="-3.26774">
        <ele>-74.725653</ele>
        <time>2020-12-29T11:34:01.000Z</time>
      </trkpt>
      <trkpt lat="47.69144" lon="-3.26827">
        <ele>-75.62522</ele>
        <time>2020-12-29T11:33:53.000Z</time>
      </trkpt>
      <trkpt lat="47.69134" lon="-3.26893">
        <ele>-75.36723</ele>
        <time>2020-12-29T11:33:44.000Z</time>
      </trkpt>
      <trkpt lat="47.69131" lon="-3.26921">
        <ele>-75.104229</ele>
        <time>2020-12-29T11:33:40.000Z</time>
      </trkpt>
      <trkpt lat="47.69127" lon="-3.26941">
        <ele>-74.914558</ele>
        <time>2020-12-29T11:33:37.000Z</time>
      </trkpt>
      <trkpt lat="47.69118" lon="-3.26965">
        <ele>-74.664175</ele>
        <time>2020-12-29T11:33:33.000Z</time>
      </trkpt>
      <trkpt lat="47.69114" lon="-3.2697">
        <ele>-74.601355</ele>
        <time>2020-12-29T11:33:32.000Z</time>
      </trkpt>
      <trkpt lat="47.69104" lon="-3.26982">
        <ele>-74.419526</ele>
        <time>2020-12-29T11:33:29.000Z</time>
      </trkpt>
      <trkpt lat="47.69098" lon="-3.26989">
        <ele>-74.312867</ele>
        <time>2020-12-29T11:33:27.000Z</time>
      </trkpt>
      <trkpt lat="47.69095" lon="-3.26996">
        <ele>-74.240724</ele>
        <time>2020-12-29T11:33:25.000Z</time>
      </trkpt>
      <trkpt lat="47.69096" lon="-3.27001">
        <ele>-74.193336</ele>
        <time>2020-12-29T11:33:13.000Z</time>
      </trkpt>
      <trkpt lat="47.69096" lon="-3.27001">
        <ele>-74.191975</ele>
        <time>2020-12-29T11:33:12.000Z</time>
      </trkpt>
      <trkpt lat="47.69102" lon="-3.27006">
        <ele>-74.106847</ele>
        <time>2020-12-29T11:33:08.000Z</time>
      </trkpt>
      <trkpt lat="47.69108" lon="-3.27006">
        <ele>-74.017073</ele>
        <time>2020-12-29T11:33:06.000Z</time>
      </trkpt>
      <trkpt lat="47.69117" lon="-3.27004">
        <ele>-73.905385</ele>
        <time>2020-12-29T11:33:04.000Z</time>
      </trkpt>
      <trkpt lat="47.69129" lon="-3.26999">
        <ele>-73.724274</ele>
        <time>2020-12-29T11:33:01.000Z</time>
      </trkpt>
      <trkpt lat="47.69147" lon="-3.26992">
        <ele>-73.480862</ele>
        <time>2020-12-29T11:32:57.000Z</time>
      </trkpt>
      <trkpt lat="47.69155" lon="-3.26989">
        <ele>-73.328771</ele>
        <time>2020-12-29T11:32:55.000Z</time>
      </trkpt>
      <trkpt lat="47.69175" lon="-3.26977">
        <ele>-72.768347</ele>
        <time>2020-12-29T11:32:49.000Z</time>
      </trkpt>
      <trkpt lat="47.6919" lon="-3.26968">
        <ele>-72.34416</ele>
        <time>2020-12-29T11:32:44.000Z</time>
      </trkpt>
      <trkpt lat="47.69204" lon="-3.26958">
        <ele>-71.941351</ele>
        <time>2020-12-29T11:32:38.000Z</time>
      </trkpt>
      <trkpt lat="47.69207" lon="-3.26956">
        <ele>-71.856785</ele>
        <time>2020-12-29T11:32:37.000Z</time>
      </trkpt>
      <trkpt lat="47.69217" lon="-3.2695">
        <ele>-71.577773</ele>
        <time>2020-12-29T11:32:34.000Z</time>
      </trkpt>
      <trkpt lat="47.69225" lon="-3.26944">
        <ele>-71.34211</ele>
        <time>2020-12-29T11:32:31.000Z</time>
      </trkpt>
      <trkpt lat="47.69236" lon="-3.26937">
        <ele>-71.0415</ele>
        <time>2020-12-29T11:32:27.000Z</time>
      </trkpt>
      <trkpt lat="47.69245" lon="-3.26931">
        <ele>-70.782767</ele>
        <time>2020-12-29T11:32:24.000Z</time>
      </trkpt>
      <trkpt lat="47.69266" lon="-3.26916">
        <ele>-70.16919</ele>
        <time>2020-12-29T11:32:17.000Z</time>
      </trkpt>
      <trkpt lat="47.69281" lon="-3.26905">
        <ele>-69.749368</ele>
        <time>2020-12-29T11:32:12.000Z</time>
      </trkpt>
      <trkpt lat="47.69306" lon="-3.26887">
        <ele>-69.023477</ele>
        <time>2020-12-29T11:32:05.000Z</time>
      </trkpt>
      <trkpt lat="47.69312" lon="-3.26883">
        <ele>-68.853069</ele>
        <time>2020-12-29T11:32:03.000Z</time>
      </trkpt>
      <trkpt lat="47.69327" lon="-3.26872">
        <ele>-68.645797</ele>
        <time>2020-12-29T11:31:58.000Z</time>
      </trkpt>
      <trkpt lat="47.69349" lon="-3.26856">
        <ele>-68.466201</ele>
        <time>2020-12-29T11:31:51.000Z</time>
      </trkpt>
      <trkpt lat="47.69375" lon="-3.26839">
        <ele>-68.259102</ele>
        <time>2020-12-29T11:31:43.000Z</time>
      </trkpt>
      <trkpt lat="47.69399" lon="-3.26822">
        <ele>-68.056664</ele>
        <time>2020-12-29T11:31:36.000Z</time>
      </trkpt>
      <trkpt lat="47.69423" lon="-3.26804">
        <ele>-67.860705</ele>
        <time>2020-12-29T11:31:29.000Z</time>
      </trkpt>
      <trkpt lat="47.69444" lon="-3.26788">
        <ele>-67.684155</ele>
        <time>2020-12-29T11:31:23.000Z</time>
      </trkpt>
      <trkpt lat="47.69481" lon="-3.2676">
        <ele>-67.392809</ele>
        <time>2020-12-29T11:31:15.000Z</time>
      </trkpt>
      <trkpt lat="47.69485" lon="-3.26757">
        <ele>-67.369283</ele>
        <time>2020-12-29T11:31:14.000Z</time>
      </trkpt>
      <trkpt lat="47.69522" lon="-3.2673">
        <ele>-67.184538</ele>
        <time>2020-12-29T11:31:06.000Z</time>
      </trkpt>
      <trkpt lat="47.69527" lon="-3.26727">
        <ele>-67.16288</ele>
        <time>2020-12-29T11:31:05.000Z</time>
      </trkpt>
      <trkpt lat="47.69546" lon="-3.26711">
        <ele>-67.063125</ele>
        <time>2020-12-29T11:31:00.000Z</time>
      </trkpt>
      <trkpt lat="47.69557" lon="-3.26711">
        <ele>-67.017919</ele>
        <time>2020-12-29T11:30:57.000Z</time>
      </trkpt>
      <trkpt lat="47.69565" lon="-3.2673">
        <ele>-66.951435</ele>
        <time>2020-12-29T11:30:53.000Z</time>
      </trkpt>
      <trkpt lat="47.69567" lon="-3.26763">
        <ele>-66.850216</ele>
        <time>2020-12-29T11:30:48.000Z</time>
      </trkpt>
      <trkpt lat="47.69569" lon="-3.26784">
        <ele>-66.786098</ele>
        <time>2020-12-29T11:30:45.000Z</time>
      </trkpt>
      <trkpt lat="47.69576" lon="-3.26863">
        <ele>-66.803794</ele>
        <time>2020-12-29T11:30:35.000Z</time>
      </trkpt>
      <trkpt lat="47.69584" lon="-3.26926">
        <ele>-67.495169</ele>
        <time>2020-12-29T11:30:27.000Z</time>
      </trkpt>
      <trkpt lat="47.69606" lon="-3.27">
        <ele>-68.363886</ele>
        <time>2020-12-29T11:30:17.000Z</time>
      </trkpt>
      <trkpt lat="47.69613" lon="-3.27021">
        <ele>-68.621925</ele>
        <time>2020-12-29T11:30:14.000Z</time>
      </trkpt>
      <trkpt lat="47.69623" lon="-3.27057">
        <ele>-69.035196</ele>
        <time>2020-12-29T11:30:09.000Z</time>
      </trkpt>
      <trkpt lat="47.69625" lon="-3.27071">
        <ele>-69.193029</ele>
        <time>2020-12-29T11:30:07.000Z</time>
      </trkpt>
      <trkpt lat="47.69626" lon="-3.27093">
        <ele>-69.429533</ele>
        <time>2020-12-29T11:30:04.000Z</time>
      </trkpt>
      <trkpt lat="47.69626" lon="-3.27101">
        <ele>-69.485554</ele>
        <time>2020-12-29T11:30:03.000Z</time>
      </trkpt>
      <trkpt lat="47.69614" lon="-3.27181">
        <ele>-69.817678</ele>
        <time>2020-12-29T11:29:52.000Z</time>
      </trkpt>
      <trkpt lat="47.69611" lon="-3.27203">
        <ele>-69.907772</ele>
        <time>2020-12-29T11:29:49.000Z</time>
      </trkpt>
      <trkpt lat="47.69607" lon="-3.27238">
        <ele>-70.052454</ele>
        <time>2020-12-29T11:29:44.000Z</time>
      </trkpt>
      <trkpt lat="47.69603" lon="-3.27289">
        <ele>-70.258363</ele>
        <time>2020-12-29T11:29:37.000Z</time>
      </trkpt>
      <trkpt lat="47.69602" lon="-3.27296">
        <ele>-70.288581</ele>
        <time>2020-12-29T11:29:36.000Z</time>
      </trkpt>
      <trkpt lat="47.69602" lon="-3.27318">
        <ele>-70.378805</ele>
        <time>2020-12-29T11:29:33.000Z</time>
      </trkpt>
      <trkpt lat="47.69603" lon="-3.27326">
        <ele>-70.410118</ele>
        <time>2020-12-29T11:29:32.000Z</time>
      </trkpt>
      <trkpt lat="47.69612" lon="-3.27375">
        <ele>-70.334817</ele>
        <time>2020-12-29T11:29:25.000Z</time>
      </trkpt>
      <trkpt lat="47.69613" lon="-3.27387">
        <ele>-70.160562</ele>
        <time>2020-12-29T11:29:23.000Z</time>
      </trkpt>
      <trkpt lat="47.69614" lon="-3.27412">
        <ele>-69.818226</ele>
        <time>2020-12-29T11:29:19.000Z</time>
      </trkpt>
      <trkpt lat="47.69614" lon="-3.27418">
        <ele>-69.737101</ele>
        <time>2020-12-29T11:29:18.000Z</time>
      </trkpt>
      <trkpt lat="47.69617" lon="-3.27432">
        <ele>-69.523249</ele>
        <time>2020-12-29T11:29:15.000Z</time>
      </trkpt>
      <trkpt lat="47.69621" lon="-3.27439">
        <ele>-69.395937</ele>
        <time>2020-12-29T11:29:13.000Z</time>
      </trkpt>
      <trkpt lat="47.69626" lon="-3.27446">
        <ele>-69.251766</ele>
        <time>2020-12-29T11:29:11.000Z</time>
      </trkpt>
      <trkpt lat="47.69636" lon="-3.27471">
        <ele>-68.854552</ele>
        <time>2020-12-29T11:29:07.000Z</time>
      </trkpt>
      <trkpt lat="47.6964" lon="-3.27483">
        <ele>-68.657296</ele>
        <time>2020-12-29T11:29:05.000Z</time>
      </trkpt>
      <trkpt lat="47.69652" lon="-3.27514">
        <ele>-68.169744</ele>
        <time>2020-12-29T11:29:00.000Z</time>
      </trkpt>
      <trkpt lat="47.69672" lon="-3.27568">
        <ele>-67.307984</ele>
        <time>2020-12-29T11:28:51.000Z</time>
      </trkpt>
      <trkpt lat="47.6969" lon="-3.27616">
        <ele>-66.900428</ele>
        <time>2020-12-29T11:28:43.000Z</time>
      </trkpt>
      <trkpt lat="47.69695" lon="-3.27629">
        <ele>-66.956286</ele>
        <time>2020-12-29T11:28:41.000Z</time>
      </trkpt>
      <trkpt lat="47.69712" lon="-3.27672">
        <ele>-67.150803</ele>
        <time>2020-12-29T11:28:34.000Z</time>
      </trkpt>
      <trkpt lat="47.69716" lon="-3.27685">
        <ele>-67.207619</ele>
        <time>2020-12-29T11:28:32.000Z</time>
      </trkpt>
      <trkpt lat="47.69729" lon="-3.27716">
        <ele>-67.346152</ele>
        <time>2020-12-29T11:28:27.000Z</time>
      </trkpt>
      <trkpt lat="47.69738" lon="-3.27741">
        <ele>-67.457419</ele>
        <time>2020-12-29T11:28:23.000Z</time>
      </trkpt>
      <trkpt lat="47.69743" lon="-3.27753">
        <ele>-67.511703</ele>
        <time>2020-12-29T11:28:21.000Z</time>
      </trkpt>
      <trkpt lat="47.69745" lon="-3.27759">
        <ele>-67.537518</ele>
        <time>2020-12-29T11:28:20.000Z</time>
      </trkpt>
      <trkpt lat="47.69755" lon="-3.2778">
        <ele>-67.63756</ele>
        <time>2020-12-29T11:28:16.000Z</time>
      </trkpt>
      <trkpt lat="47.69757" lon="-3.27786">
        <ele>-67.661877</ele>
        <time>2020-12-29T11:28:15.000Z</time>
      </trkpt>
      <trkpt lat="47.69777" lon="-3.27846">
        <ele>-67.868182</ele>
        <time>2020-12-29T11:28:05.000Z</time>
      </trkpt>
      <trkpt lat="47.69795" lon="-3.27893">
        <ele>-67.906694</ele>
        <time>2020-12-29T11:27:57.000Z</time>
      </trkpt>
      <trkpt lat="47.69817" lon="-3.27949">
        <ele>-67.953473</ele>
        <time>2020-12-29T11:27:48.000Z</time>
      </trkpt>
      <trkpt lat="47.6983" lon="-3.27988">
        <ele>-67.984579</ele>
        <time>2020-12-29T11:27:42.000Z</time>
      </trkpt>
      <trkpt lat="47.69841" lon="-3.28019">
        <ele>-68.01008</ele>
        <time>2020-12-29T11:27:37.000Z</time>
      </trkpt>
      <trkpt lat="47.69844" lon="-3.28025">
        <ele>-68.015147</ele>
        <time>2020-12-29T11:27:36.000Z</time>
      </trkpt>
      <trkpt lat="47.69853" lon="-3.28049">
        <ele>-68.034637</ele>
        <time>2020-12-29T11:27:32.000Z</time>
      </trkpt>
      <trkpt lat="47.6986" lon="-3.28067">
        <ele>-68.023039</ele>
        <time>2020-12-29T11:27:29.000Z</time>
      </trkpt>
      <trkpt lat="47.69878" lon="-3.28118">
        <ele>-67.507257</ele>
        <time>2020-12-29T11:27:21.000Z</time>
      </trkpt>
      <trkpt lat="47.69897" lon="-3.28167">
        <ele>-67.011564</ele>
        <time>2020-12-29T11:27:13.000Z</time>
      </trkpt>
      <trkpt lat="47.69901" lon="-3.28178">
        <ele>-66.89243</ele>
        <time>2020-12-29T11:27:11.000Z</time>
      </trkpt>
      <trkpt lat="47.69911" lon="-3.28207">
        <ele>-66.609657</ele>
        <time>2020-12-29T11:27:06.000Z</time>
      </trkpt>
      <trkpt lat="47.69915" lon="-3.28218">
        <ele>-66.500116</ele>
        <time>2020-12-29T11:27:04.000Z</time>
      </trkpt>
      <trkpt lat="47.69921" lon="-3.28234">
        <ele>-66.341583</ele>
        <time>2020-12-29T11:27:01.000Z</time>
      </trkpt>
      <trkpt lat="47.69923" lon="-3.28238">
        <ele>-66.296306</ele>
        <time>2020-12-29T11:27:00.000Z</time>
      </trkpt>
      <trkpt lat="47.6993" lon="-3.28241">
        <ele>-66.201157</ele>
        <time>2020-12-29T11:26:58.000Z</time>
      </trkpt>
      <trkpt lat="47.69934" lon="-3.2824">
        <ele>-66.1466</ele>
        <time>2020-12-29T11:26:57.000Z</time>
      </trkpt>
      <trkpt lat="47.69961" lon="-3.28227">
        <ele>-65.775324</ele>
        <time>2020-12-29T11:26:52.000Z</time>
      </trkpt>
      <trkpt lat="47.69982" lon="-3.28217">
        <ele>-65.564464</ele>
        <time>2020-12-29T11:26:48.000Z</time>
      </trkpt>
      <trkpt lat="47.69992" lon="-3.28213">
        <ele>-65.485362</ele>
        <time>2020-12-29T11:26:46.000Z</time>
      </trkpt>
      <trkpt lat="47.70001" lon="-3.28209">
        <ele>-65.411093</ele>
        <time>2020-12-29T11:26:44.000Z</time>
      </trkpt>
      <trkpt lat="47.70031" lon="-3.28196">
        <ele>-65.174788</ele>
        <time>2020-12-29T11:26:37.000Z</time>
      </trkpt>
      <trkpt lat="47.70058" lon="-3.28186">
        <ele>-64.958888</ele>
        <time>2020-12-29T11:26:30.000Z</time>
      </trkpt>
      <trkpt lat="47.70062" lon="-3.28185">
        <ele>-64.926581</ele>
        <time>2020-12-29T11:26:29.000Z</time>
      </trkpt>
      <trkpt lat="47.70075" lon="-3.28182">
        <ele>-64.832637</ele>
        <time>2020-12-29T11:26:26.000Z</time>
      </trkpt>
      <trkpt lat="47.70086" lon="-3.28192">
        <ele>-64.732008</ele>
        <time>2020-12-29T11:26:23.000Z</time>
      </trkpt>
      <trkpt lat="47.7009" lon="-3.28203">
        <ele>-64.667627</ele>
        <time>2020-12-29T11:26:21.000Z</time>
      </trkpt>
      <trkpt lat="47.70095" lon="-3.28218">
        <ele>-64.578764</ele>
        <time>2020-12-29T11:26:18.000Z</time>
      </trkpt>
      <trkpt lat="47.70108" lon="-3.28247">
        <ele>-64.400175</ele>
        <time>2020-12-29T11:26:12.000Z</time>
      </trkpt>
      <trkpt lat="47.70115" lon="-3.28265">
        <ele>-64.37956</ele>
        <time>2020-12-29T11:26:08.000Z</time>
      </trkpt>
      <trkpt lat="47.70121" lon="-3.28278">
        <ele>-65.002469</ele>
        <time>2020-12-29T11:26:05.000Z</time>
      </trkpt>
      <trkpt lat="47.70124" lon="-3.28286">
        <ele>-65.359498</ele>
        <time>2020-12-29T11:26:03.000Z</time>
      </trkpt>
      <trkpt lat="47.70131" lon="-3.28299">
        <ele>-66.029004</ele>
        <time>2020-12-29T11:25:59.000Z</time>
      </trkpt>
      <trkpt lat="47.7015" lon="-3.28295">
        <ele>-67.12737</ele>
        <time>2020-12-29T11:25:52.000Z</time>
      </trkpt>
      <trkpt lat="47.70157" lon="-3.2829">
        <ele>-67.610145</ele>
        <time>2020-12-29T11:25:49.000Z</time>
      </trkpt>
      <trkpt lat="47.70169" lon="-3.28284">
        <ele>-68.360054</ele>
        <time>2020-12-29T11:25:44.000Z</time>
      </trkpt>
      <trkpt lat="47.70189" lon="-3.28273">
        <ele>-69.571053</ele>
        <time>2020-12-29T11:25:36.000Z</time>
      </trkpt>
      <trkpt lat="47.70191" lon="-3.28271">
        <ele>-69.725244</ele>
        <time>2020-12-29T11:25:35.000Z</time>
      </trkpt>
      <trkpt lat="47.70202" lon="-3.28266">
        <ele>-70.384744</ele>
        <time>2020-12-29T11:25:30.000Z</time>
      </trkpt>
      <trkpt lat="47.70205" lon="-3.28266">
        <ele>-70.596949</ele>
        <time>2020-12-29T11:25:28.000Z</time>
      </trkpt>
      <trkpt lat="47.7021" lon="-3.28264">
        <ele>-70.900641</ele>
        <time>2020-12-29T11:25:25.000Z</time>
      </trkpt>
      <trkpt lat="47.70212" lon="-3.28264">
        <ele>-71.006557</ele>
        <time>2020-12-29T11:25:24.000Z</time>
      </trkpt>
      <trkpt lat="47.70227" lon="-3.28257">
        <ele>-71.907824</ele>
        <time>2020-12-29T11:25:17.000Z</time>
      </trkpt>
      <trkpt lat="47.70229" lon="-3.28256">
        <ele>-72.026124</ele>
        <time>2020-12-29T11:25:16.000Z</time>
      </trkpt>
      <trkpt lat="47.70232" lon="-3.28253">
        <ele>-72.26805</ele>
        <time>2020-12-29T11:25:14.000Z</time>
      </trkpt>
      <trkpt lat="47.7024" lon="-3.28249">
        <ele>-72.73311</ele>
        <time>2020-12-29T11:25:10.000Z</time>
      </trkpt>
      <trkpt lat="47.70246" lon="-3.28246">
        <ele>-73.108957</ele>
        <time>2020-12-29T11:25:07.000Z</time>
      </trkpt>
      <trkpt lat="47.70254" lon="-3.28241">
        <ele>-73.640037</ele>
        <time>2020-12-29T11:25:03.000Z</time>
      </trkpt>
      <trkpt lat="47.70258" lon="-3.28239">
        <ele>-73.900116</ele>
        <time>2020-12-29T11:25:01.000Z</time>
      </trkpt>
      <trkpt lat="47.7027" lon="-3.28233">
        <ele>-74.583185</ele>
        <time>2020-12-29T11:24:56.000Z</time>
      </trkpt>
      <trkpt lat="47.70276" lon="-3.2823">
        <ele>-74.848891</ele>
        <time>2020-12-29T11:24:53.000Z</time>
      </trkpt>
      <trkpt lat="47.70285" lon="-3.28228">
        <ele>-74.80407</ele>
        <time>2020-12-29T11:24:49.000Z</time>
      </trkpt>
      <trkpt lat="47.70287" lon="-3.28227">
        <ele>-74.791173</ele>
        <time>2020-12-29T11:24:48.000Z</time>
      </trkpt>
      <trkpt lat="47.70299" lon="-3.28221">
        <ele>-74.727941</ele>
        <time>2020-12-29T11:24:43.000Z</time>
      </trkpt>
      <trkpt lat="47.7031" lon="-3.28214">
        <ele>-74.668018</ele>
        <time>2020-12-29T11:24:38.000Z</time>
      </trkpt>
      <trkpt lat="47.70318" lon="-3.2821">
        <ele>-74.627354</ele>
        <time>2020-12-29T11:24:35.000Z</time>
      </trkpt>
      <trkpt lat="47.70322" lon="-3.28209">
        <ele>-74.60336</ele>
        <time>2020-12-29T11:24:33.000Z</time>
      </trkpt>
      <trkpt lat="47.70327" lon="-3.28208">
        <ele>-74.581044</ele>
        <time>2020-12-29T11:24:31.000Z</time>
      </trkpt>
      <trkpt lat="47.70333" lon="-3.28204">
        <ele>-74.548412</ele>
        <time>2020-12-29T11:24:29.000Z</time>
      </trkpt>
      <trkpt lat="47.7035" lon="-3.28192">
        <ele>-74.452905</ele>
        <time>2020-12-29T11:24:24.000Z</time>
      </trkpt>
      <trkpt lat="47.70354" lon="-3.28189">
        <ele>-74.428302</ele>
        <time>2020-12-29T11:24:23.000Z</time>
      </trkpt>
      <trkpt lat="47.70365" lon="-3.28181">
        <ele>-74.367878</ele>
        <time>2020-12-29T11:24:20.000Z</time>
      </trkpt>
      <trkpt lat="47.70368" lon="-3.28176">
        <ele>-74.348166</ele>
        <time>2020-12-29T11:24:19.000Z</time>
      </trkpt>
      <trkpt lat="47.70377" lon="-3.28154">
        <ele>-74.258263</ele>
        <time>2020-12-29T11:24:15.000Z</time>
      </trkpt>
      <trkpt lat="47.7038" lon="-3.28141">
        <ele>-74.211301</ele>
        <time>2020-12-29T11:24:12.000Z</time>
      </trkpt>
      <trkpt lat="47.70381" lon="-3.28135">
        <ele>-74.190323</ele>
        <time>2020-12-29T11:24:10.000Z</time>
      </trkpt>
      <trkpt lat="47.70384" lon="-3.28119">
        <ele>-74.13288</ele>
        <time>2020-12-29T11:24:05.000Z</time>
      </trkpt>
      <trkpt lat="47.70388" lon="-3.28106">
        <ele>-74.084368</ele>
        <time>2020-12-29T11:24:01.000Z</time>
      </trkpt>
      <trkpt lat="47.70389" lon="-3.28102">
        <ele>-74.069814</ele>
        <time>2020-12-29T11:24:00.000Z</time>
      </trkpt>
      <trkpt lat="47.70391" lon="-3.28085">
        <ele>-74.011626</ele>
        <time>2020-12-29T11:23:56.000Z</time>
      </trkpt>
      <trkpt lat="47.70391" lon="-3.28081">
        <ele>-73.999737</ele>
        <time>2020-12-29T11:23:55.000Z</time>
      </trkpt>
      <trkpt lat="47.7039" lon="-3.28068">
        <ele>-73.956448</ele>
        <time>2020-12-29T11:23:51.000Z</time>
      </trkpt>
      <trkpt lat="47.7039" lon="-3.28065">
        <ele>-73.867234</ele>
        <time>2020-12-29T11:23:50.000Z</time>
      </trkpt>
      <trkpt lat="47.70391" lon="-3.28057">
        <ele>-73.625095</ele>
        <time>2020-12-29T11:23:48.000Z</time>
      </trkpt>
      <trkpt lat="47.70392" lon="-3.28049">
        <ele>-73.399666</ele>
        <time>2020-12-29T11:23:46.000Z</time>
      </trkpt>
      <trkpt lat="47.70395" lon="-3.28041">
        <ele>-73.1317</ele>
        <time>2020-12-29T11:23:43.000Z</time>
      </trkpt>
      <trkpt lat="47.70403" lon="-3.28026">
        <ele>-72.554271</ele>
        <time>2020-12-29T11:23:38.000Z</time>
      </trkpt>
      <trkpt lat="47.70405" lon="-3.28018">
        <ele>-72.308107</ele>
        <time>2020-12-29T11:23:36.000Z</time>
      </trkpt>
      <trkpt lat="47.70406" lon="-3.28004">
        <ele>-71.867454</ele>
        <time>2020-12-29T11:23:33.000Z</time>
      </trkpt>
      <trkpt lat="47.70406" lon="-3.27971">
        <ele>-70.89375</ele>
        <time>2020-12-29T11:23:27.000Z</time>
      </trkpt>
      <trkpt lat="47.70406" lon="-3.2796">
        <ele>-70.559278</ele>
        <time>2020-12-29T11:23:25.000Z</time>
      </trkpt>
      <trkpt lat="47.70405" lon="-3.27926">
        <ele>-69.555587</ele>
        <time>2020-12-29T11:23:19.000Z</time>
      </trkpt>
      <trkpt lat="47.70405" lon="-3.27916">
        <ele>-69.242005</ele>
        <time>2020-12-29T11:23:17.000Z</time>
      </trkpt>
      <trkpt lat="47.70404" lon="-3.27879">
        <ele>-68.144378</ele>
        <time>2020-12-29T11:23:10.000Z</time>
      </trkpt>
      <trkpt lat="47.70402" lon="-3.27855">
        <ele>-67.423469</ele>
        <time>2020-12-29T11:23:06.000Z</time>
      </trkpt>
      <trkpt lat="47.70402" lon="-3.27849">
        <ele>-67.247336</ele>
        <time>2020-12-29T11:23:05.000Z</time>
      </trkpt>
      <trkpt lat="47.70398" lon="-3.27815">
        <ele>-66.229376</ele>
        <time>2020-12-29T11:22:58.000Z</time>
      </trkpt>
      <trkpt lat="47.70398" lon="-3.2781">
        <ele>-66.073991</ele>
        <time>2020-12-29T11:22:57.000Z</time>
      </trkpt>
      <trkpt lat="47.70397" lon="-3.27787">
        <ele>-66.409106</ele>
        <time>2020-12-29T11:22:53.000Z</time>
      </trkpt>
      <trkpt lat="47.70398" lon="-3.27781">
        <ele>-66.54446</ele>
        <time>2020-12-29T11:22:52.000Z</time>
      </trkpt>
      <trkpt lat="47.70406" lon="-3.27762">
        <ele>-67.048264</ele>
        <time>2020-12-29T11:22:48.000Z</time>
      </trkpt>
      <trkpt lat="47.70409" lon="-3.27759">
        <ele>-67.145624</ele>
        <time>2020-12-29T11:22:47.000Z</time>
      </trkpt>
      <trkpt lat="47.70422" lon="-3.27759">
        <ele>-67.559622</ele>
        <time>2020-12-29T11:22:43.000Z</time>
      </trkpt>
      <trkpt lat="47.70437" lon="-3.2776">
        <ele>-68.068458</ele>
        <time>2020-12-29T11:22:39.000Z</time>
      </trkpt>
      <trkpt lat="47.70454" lon="-3.27761">
        <ele>-68.599332</ele>
        <time>2020-12-29T11:22:35.000Z</time>
      </trkpt>
      <trkpt lat="47.70486" lon="-3.27766">
        <ele>-69.636803</ele>
        <time>2020-12-29T11:22:27.000Z</time>
      </trkpt>
      <trkpt lat="47.70499" lon="-3.27771">
        <ele>-70.092845</ele>
        <time>2020-12-29T11:22:23.000Z</time>
      </trkpt>
      <trkpt lat="47.70517" lon="-3.27777">
        <ele>-70.680513</ele>
        <time>2020-12-29T11:22:18.000Z</time>
      </trkpt>
      <trkpt lat="47.70521" lon="-3.27778">
        <ele>-70.803482</ele>
        <time>2020-12-29T11:22:17.000Z</time>
      </trkpt>
      <trkpt lat="47.70539" lon="-3.27785">
        <ele>-71.411525</ele>
        <time>2020-12-29T11:22:12.000Z</time>
      </trkpt>
      <trkpt lat="47.70543" lon="-3.27786">
        <ele>-71.533566</ele>
        <time>2020-12-29T11:22:11.000Z</time>
      </trkpt>
      <trkpt lat="47.7055" lon="-3.27787">
        <ele>-71.777318</ele>
        <time>2020-12-29T11:22:09.000Z</time>
      </trkpt>
      <trkpt lat="47.70566" lon="-3.27787">
        <ele>-71.999014</ele>
        <time>2020-12-29T11:22:05.000Z</time>
      </trkpt>
      <trkpt lat="47.70574" lon="-3.27786">
        <ele>-72.112958</ele>
        <time>2020-12-29T11:22:03.000Z</time>
      </trkpt>
      <trkpt lat="47.70584" lon="-3.27785">
        <ele>-72.240442</ele>
        <time>2020-12-29T11:22:01.000Z</time>
      </trkpt>
      <trkpt lat="47.70597" lon="-3.27782">
        <ele>-72.419407</ele>
        <time>2020-12-29T11:21:58.000Z</time>
      </trkpt>
      <trkpt lat="47.70606" lon="-3.27779">
        <ele>-72.545766</ele>
        <time>2020-12-29T11:21:56.000Z</time>
      </trkpt>
      <trkpt lat="47.70611" lon="-3.27777">
        <ele>-72.613757</ele>
        <time>2020-12-29T11:21:55.000Z</time>
      </trkpt>
      <trkpt lat="47.70622" lon="-3.27774">
        <ele>-72.764636</ele>
        <time>2020-12-29T11:21:53.000Z</time>
      </trkpt>
      <trkpt lat="47.70628" lon="-3.27772">
        <ele>-72.851685</ele>
        <time>2020-12-29T11:21:52.000Z</time>
      </trkpt>
      <trkpt lat="47.70651" lon="-3.27769">
        <ele>-73.163235</ele>
        <time>2020-12-29T11:21:49.000Z</time>
      </trkpt>
      <trkpt lat="47.70659" lon="-3.27771">
        <ele>-73.272433</ele>
        <time>2020-12-29T11:21:48.000Z</time>
      </trkpt>
      <trkpt lat="47.70668" lon="-3.27774">
        <ele>-73.390072</ele>
        <time>2020-12-29T11:21:47.000Z</time>
      </trkpt>
      <trkpt lat="47.70676" lon="-3.27779">
        <ele>-73.509839</ele>
        <time>2020-12-29T11:21:46.000Z</time>
      </trkpt>
      <trkpt lat="47.70683" lon="-3.27785">
        <ele>-73.626079</ele>
        <time>2020-12-29T11:21:45.000Z</time>
      </trkpt>
      <trkpt lat="47.70691" lon="-3.27791">
        <ele>-73.743669</ele>
        <time>2020-12-29T11:21:44.000Z</time>
      </trkpt>
      <trkpt lat="47.70705" lon="-3.27804">
        <ele>-73.966737</ele>
        <time>2020-12-29T11:21:42.000Z</time>
      </trkpt>
      <trkpt lat="47.70718" lon="-3.27814">
        <ele>-74.161719</ele>
        <time>2020-12-29T11:21:40.000Z</time>
      </trkpt>
      <trkpt lat="47.7073" lon="-3.27822">
        <ele>-73.874471</ele>
        <time>2020-12-29T11:21:38.000Z</time>
      </trkpt>
      <trkpt lat="47.70748" lon="-3.27829">
        <ele>-73.170573</ele>
        <time>2020-12-29T11:21:35.000Z</time>
      </trkpt>
      <trkpt lat="47.70766" lon="-3.27831">
        <ele>-72.4825</ele>
        <time>2020-12-29T11:21:32.000Z</time>
      </trkpt>
      <trkpt lat="47.70778" lon="-3.2783">
        <ele>-72.020224</ele>
        <time>2020-12-29T11:21:30.000Z</time>
      </trkpt>
      <trkpt lat="47.70784" lon="-3.27829">
        <ele>-71.785664</ele>
        <time>2020-12-29T11:21:29.000Z</time>
      </trkpt>
      <trkpt lat="47.70819" lon="-3.27826">
        <ele>-70.460199</ele>
        <time>2020-12-29T11:21:23.000Z</time>
      </trkpt>
      <trkpt lat="47.70824" lon="-3.27825">
        <ele>-70.253332</ele>
        <time>2020-12-29T11:21:22.000Z</time>
      </trkpt>
      <trkpt lat="47.70845" lon="-3.2782">
        <ele>-69.456815</ele>
        <time>2020-12-29T11:21:18.000Z</time>
      </trkpt>
      <trkpt lat="47.7085" lon="-3.27819">
        <ele>-69.269166</ele>
        <time>2020-12-29T11:21:17.000Z</time>
      </trkpt>
      <trkpt lat="47.7086" lon="-3.27817">
        <ele>-68.889823</ele>
        <time>2020-12-29T11:21:15.000Z</time>
      </trkpt>
      <trkpt lat="47.70875" lon="-3.27814">
        <ele>-68.299324</ele>
        <time>2020-12-29T11:21:12.000Z</time>
      </trkpt>
      <trkpt lat="47.7088" lon="-3.27812">
        <ele>-68.111225</ele>
        <time>2020-12-29T11:21:11.000Z</time>
      </trkpt>
      <trkpt lat="47.70884" lon="-3.2781">
        <ele>-67.93423</ele>
        <time>2020-12-29T11:21:10.000Z</time>
      </trkpt>
      <trkpt lat="47.70896" lon="-3.27811">
        <ele>-67.491296</ele>
        <time>2020-12-29T11:21:07.000Z</time>
      </trkpt>
      <trkpt lat="47.70907" lon="-3.27859">
        <ele>-67.078613</ele>
        <time>2020-12-29T11:21:00.000Z</time>
      </trkpt>
      <trkpt lat="47.70921" lon="-3.27921">
        <ele>-66.658466</ele>
        <time>2020-12-29T11:20:52.000Z</time>
      </trkpt>
      <trkpt lat="47.70934" lon="-3.27987">
        <ele>-66.21796</ele>
        <time>2020-12-29T11:20:44.000Z</time>
      </trkpt>
      <trkpt lat="47.70949" lon="-3.28053">
        <ele>-65.769979</ele>
        <time>2020-12-29T11:20:36.000Z</time>
      </trkpt>
      <trkpt lat="47.70962" lon="-3.28109">
        <ele>-65.922827</ele>
        <time>2020-12-29T11:20:29.000Z</time>
      </trkpt>
      <trkpt lat="47.70974" lon="-3.28179">
        <ele>-66.391042</ele>
        <time>2020-12-29T11:20:20.000Z</time>
      </trkpt>
      <trkpt lat="47.70985" lon="-3.28256">
        <ele>-66.901633</ele>
        <time>2020-12-29T11:20:10.000Z</time>
      </trkpt>
      <trkpt lat="47.70988" lon="-3.28279">
        <ele>-67.05341</ele>
        <time>2020-12-29T11:20:07.000Z</time>
      </trkpt>
      <trkpt lat="47.70995" lon="-3.28333">
        <ele>-67.454444</ele>
        <time>2020-12-29T11:20:00.000Z</time>
      </trkpt>
      <trkpt lat="47.70996" lon="-3.2834">
        <ele>-67.644785</ele>
        <time>2020-12-29T11:19:59.000Z</time>
      </trkpt>
      <trkpt lat="47.71003" lon="-3.28395">
        <ele>-68.96526</ele>
        <time>2020-12-29T11:19:52.000Z</time>
      </trkpt>
      <trkpt lat="47.71004" lon="-3.28402">
        <ele>-69.146625</ele>
        <time>2020-12-29T11:19:51.000Z</time>
      </trkpt>
      <trkpt lat="47.71006" lon="-3.28462">
        <ele>-70.58893</ele>
        <time>2020-12-29T11:19:43.000Z</time>
      </trkpt>
      <trkpt lat="47.71006" lon="-3.28477">
        <ele>-70.935263</ele>
        <time>2020-12-29T11:19:41.000Z</time>
      </trkpt>
      <trkpt lat="47.71006" lon="-3.28513">
        <ele>-71.802308</ele>
        <time>2020-12-29T11:19:36.000Z</time>
      </trkpt>
      <trkpt lat="47.71005" lon="-3.28542">
        <ele>-72.497905</ele>
        <time>2020-12-29T11:19:32.000Z</time>
      </trkpt>
      <trkpt lat="47.71004" lon="-3.28565">
        <ele>-73.038097</ele>
        <time>2020-12-29T11:19:29.000Z</time>
      </trkpt>
      <trkpt lat="47.71004" lon="-3.28586">
        <ele>-73.549259</ele>
        <time>2020-12-29T11:19:26.000Z</time>
      </trkpt>
      <trkpt lat="47.71004" lon="-3.286">
        <ele>-73.829657</ele>
        <time>2020-12-29T11:19:24.000Z</time>
      </trkpt>
      <trkpt lat="47.71004" lon="-3.28623">
        <ele>-74.105904</ele>
        <time>2020-12-29T11:19:21.000Z</time>
      </trkpt>
      <trkpt lat="47.71004" lon="-3.2863">
        <ele>-74.201352</ele>
        <time>2020-12-29T11:19:20.000Z</time>
      </trkpt>
      <trkpt lat="47.71004" lon="-3.28637">
        <ele>-74.289374</ele>
        <time>2020-12-29T11:19:19.000Z</time>
      </trkpt>
      <trkpt lat="47.71005" lon="-3.28659">
        <ele>-74.555915</ele>
        <time>2020-12-29T11:19:16.000Z</time>
      </trkpt>
      <trkpt lat="47.71006" lon="-3.28683">
        <ele>-74.852235</ele>
        <time>2020-12-29T11:19:13.000Z</time>
      </trkpt>
      <trkpt lat="47.71008" lon="-3.28741">
        <ele>-75.570895</ele>
        <time>2020-12-29T11:19:06.000Z</time>
      </trkpt>
      <trkpt lat="47.7101" lon="-3.28801">
        <ele>-76.3249</ele>
        <time>2020-12-29T11:18:59.000Z</time>
      </trkpt>
      <trkpt lat="47.71006" lon="-3.28862">
        <ele>-77.072444</ele>
        <time>2020-12-29T11:18:52.000Z</time>
      </trkpt>
      <trkpt lat="47.70997" lon="-3.28926">
        <ele>-78.009979</ele>
        <time>2020-12-29T11:18:44.000Z</time>
      </trkpt>
      <trkpt lat="47.70994" lon="-3.28949">
        <ele>-78.343109</ele>
        <time>2020-12-29T11:18:41.000Z</time>
      </trkpt>
      <trkpt lat="47.70992" lon="-3.28979">
        <ele>-78.780857</ele>
        <time>2020-12-29T11:18:37.000Z</time>
      </trkpt>
      <trkpt lat="47.70991" lon="-3.28987">
        <ele>-78.892715</ele>
        <time>2020-12-29T11:18:36.000Z</time>
      </trkpt>
      <trkpt lat="47.70988" lon="-3.29027">
        <ele>-79.46735</ele>
        <time>2020-12-29T11:18:31.000Z</time>
      </trkpt>
      <trkpt lat="47.70986" lon="-3.29051">
        <ele>-79.816812</ele>
        <time>2020-12-29T11:18:28.000Z</time>
      </trkpt>
      <trkpt lat="47.70986" lon="-3.29059">
        <ele>-79.934196</ele>
        <time>2020-12-29T11:18:27.000Z</time>
      </trkpt>
      <trkpt lat="47.70985" lon="-3.29119">
        <ele>-80.799066</ele>
        <time>2020-12-29T11:18:20.000Z</time>
      </trkpt>
      <trkpt lat="47.70983" lon="-3.29192">
        <ele>-80.786309</ele>
        <time>2020-12-29T11:18:12.000Z</time>
      </trkpt>
      <trkpt lat="47.70983" lon="-3.2925">
        <ele>-80.673503</ele>
        <time>2020-12-29T11:18:06.000Z</time>
      </trkpt>
      <trkpt lat="47.70984" lon="-3.2928">
        <ele>-80.61493</ele>
        <time>2020-12-29T11:18:03.000Z</time>
      </trkpt>
      <trkpt lat="47.70991" lon="-3.29348">
        <ele>-80.481187</ele>
        <time>2020-12-29T11:17:56.000Z</time>
      </trkpt>
      <trkpt lat="47.71006" lon="-3.29427">
        <ele>-80.454895</ele>
        <time>2020-12-29T11:17:47.000Z</time>
      </trkpt>
      <trkpt lat="47.71024" lon="-3.29504">
        <ele>-80.59029</ele>
        <time>2020-12-29T11:17:38.000Z</time>
      </trkpt>
      <trkpt lat="47.71044" lon="-3.29584">
        <ele>-80.731865</ele>
        <time>2020-12-29T11:17:28.000Z</time>
      </trkpt>
      <trkpt lat="47.7106" lon="-3.29648">
        <ele>-80.870737</ele>
        <time>2020-12-29T11:17:20.000Z</time>
      </trkpt>
      <trkpt lat="47.71062" lon="-3.29655">
        <ele>-80.942079</ele>
        <time>2020-12-29T11:17:19.000Z</time>
      </trkpt>
      <trkpt lat="47.71071" lon="-3.29694">
        <ele>-81.299506</ele>
        <time>2020-12-29T11:17:14.000Z</time>
      </trkpt>
      <trkpt lat="47.71077" lon="-3.29718">
        <ele>-81.521404</ele>
        <time>2020-12-29T11:17:11.000Z</time>
      </trkpt>
      <trkpt lat="47.71082" lon="-3.29742">
        <ele>-81.737837</ele>
        <time>2020-12-29T11:17:08.000Z</time>
      </trkpt>
      <trkpt lat="47.71092" lon="-3.2978">
        <ele>-82.099156</ele>
        <time>2020-12-29T11:17:03.000Z</time>
      </trkpt>
      <trkpt lat="47.71095" lon="-3.29797">
        <ele>-82.248891</ele>
        <time>2020-12-29T11:17:01.000Z</time>
      </trkpt>
      <trkpt lat="47.71099" lon="-3.2984">
        <ele>-82.624594</ele>
        <time>2020-12-29T11:16:56.000Z</time>
      </trkpt>
      <trkpt lat="47.711" lon="-3.29848">
        <ele>-82.700511</ele>
        <time>2020-12-29T11:16:55.000Z</time>
      </trkpt>
      <trkpt lat="47.71113" lon="-3.29906">
        <ele>-83.117703</ele>
        <time>2020-12-29T11:16:48.000Z</time>
      </trkpt>
      <trkpt lat="47.71121" lon="-3.29939">
        <ele>-82.916132</ele>
        <time>2020-12-29T11:16:44.000Z</time>
      </trkpt>
      <trkpt lat="47.71123" lon="-3.29955">
        <ele>-82.820225</ele>
        <time>2020-12-29T11:16:42.000Z</time>
      </trkpt>
      <trkpt lat="47.71136" lon="-3.29977">
        <ele>-82.650886</ele>
        <time>2020-12-29T11:16:38.000Z</time>
      </trkpt>
      <trkpt lat="47.71145" lon="-3.29993">
        <ele>-82.528292</ele>
        <time>2020-12-29T11:16:35.000Z</time>
      </trkpt>
      <trkpt lat="47.71105" lon="-3.30214">
        <ele>3</ele>
        <time>2024-04-29T21:35:04Z</time>
      </trkpt>
      <trkpt lat="47.71093" lon="-3.30547">
        <ele>3</ele>
        <time>2024-04-29T21:34:12Z</time>
      </trkpt>
      <trkpt lat="47.71085" lon="-3.30597">
        <ele>3</ele>
        <time>2024-04-29T21:34:04Z</time>
      </trkpt>
      <trkpt lat="47.71082" lon="-3.30601">
        <ele>3</ele>
        <time>2024-04-29T21:34:03Z</time>
      </trkpt>
      <trkpt lat="47.7108" lon="-3.30611">
        <ele>3</ele>
        <time>2024-04-29T21:34:01Z</time>
      </trkpt>
      <trkpt lat="47.7108" lon="-3.30619">
        <ele>3</ele>
        <time>2024-04-29T21:34:00Z</time>
      </trkpt>
      <trkpt lat="47.71072" lon="-3.3066">
        <ele>4</ele>
        <time>2024-04-29T21:33:53Z</time>
      </trkpt>
      <trkpt lat="47.7103" lon="-3.30828">
        <ele>4</ele>
        <time>2024-04-29T21:33:25Z</time>
      </trkpt>
      <trkpt lat="47.71022" lon="-3.30866">
        <ele>4</ele>
        <time>2024-04-29T21:33:19Z</time>
      </trkpt>
      <trkpt lat="47.70997" lon="-3.3091">
        <ele>3</ele>
        <time>2024-04-29T21:33:10Z</time>
      </trkpt>
      <trkpt lat="47.70971" lon="-3.30969">
        <ele>3</ele>
        <time>2024-04-29T21:32:59Z</time>
      </trkpt>
      <trkpt lat="47.71014" lon="-3.31009">
        <ele>5</ele>
        <time>2024-04-29T21:32:47Z</time>
      </trkpt>
      <trkpt lat="47.7103" lon="-3.3103">
        <ele>5</ele>
        <time>2024-04-29T21:32:42Z</time>
      </trkpt>
      <trkpt lat="47.71032" lon="-3.31041">
        <ele>5</ele>
        <time>2024-04-29T21:32:40Z</time>
      </trkpt>
      <trkpt lat="47.71028" lon="-3.31105">
        <ele>6</ele>
        <time>2024-04-29T21:32:30Z</time>
      </trkpt>
      <trkpt lat="47.71023" lon="-3.31149">
        <ele>6</ele>
        <time>2024-04-29T21:32:23Z</time>
      </trkpt>
      <trkpt lat="47.71017" lon="-3.31261">
        <ele>6</ele>
        <time>2024-04-29T21:32:05Z</time>
      </trkpt>
      <trkpt lat="47.71023" lon="-3.31321">
        <ele>6</ele>
        <time>2024-04-29T21:31:56Z</time>
      </trkpt>
      <trkpt lat="47.71022" lon="-3.31358">
        <ele>6</ele>
        <time>2024-04-29T21:31:50Z</time>
      </trkpt>
      <trkpt lat="47.71018" lon="-3.31396">
        <ele>6</ele>
        <time>2024-04-29T21:31:44Z</time>
      </trkpt>
      <trkpt lat="47.70998" lon="-3.31501">
        <ele>7</ele>
        <time>2024-04-29T21:31:27Z</time>
      </trkpt>
      <trkpt lat="47.70989" lon="-3.31631">
        <ele>8</ele>
        <time>2024-04-29T21:31:06Z</time>
      </trkpt>
      <trkpt lat="47.70982" lon="-3.31661">
        <ele>8</ele>
        <time>2024-04-29T21:31:01Z</time>
      </trkpt>
      <trkpt lat="47.70964" lon="-3.31695">
        <ele>8</ele>
        <time>2024-04-29T21:30:54Z</time>
      </trkpt>
      <trkpt lat="47.70921" lon="-3.31777">
        <ele>10</ele>
        <time>2024-04-29T21:30:38Z</time>
      </trkpt>
      <trkpt lat="47.70892" lon="-3.31852">
        <ele>9</ele>
        <time>2024-04-29T21:30:24Z</time>
      </trkpt>
      <trkpt lat="47.70842" lon="-3.3206">
        <ele>10</ele>
        <time>2024-04-29T21:29:50Z</time>
      </trkpt>
      <trkpt lat="47.70825" lon="-3.32138">
        <ele>10</ele>
        <time>2024-04-29T21:29:37Z</time>
      </trkpt>
      <trkpt lat="47.70822" lon="-3.32162">
        <ele>11</ele>
        <time>2024-04-29T21:29:33Z</time>
      </trkpt>
      <trkpt lat="47.70824" lon="-3.32186">
        <ele>11</ele>
        <time>2024-04-29T21:29:29Z</time>
      </trkpt>
      <trkpt lat="47.70858" lon="-3.32393">
        <ele>9</ele>
        <time>2024-04-29T21:28:56Z</time>
      </trkpt>
      <trkpt lat="47.70863" lon="-3.32442">
        <ele>8</ele>
        <time>2024-04-29T21:28:48Z</time>
      </trkpt>
      <trkpt lat="47.70872" lon="-3.32588">
        <ele>2</ele>
        <time>2024-04-29T21:28:25Z</time>
      </trkpt>
      <trkpt lat="47.70878" lon="-3.32637">
        <ele>2</ele>
        <time>2024-04-29T21:28:17Z</time>
      </trkpt>
      <trkpt lat="47.7089" lon="-3.32697">
        <ele>3</ele>
        <time>2024-04-29T21:28:07Z</time>
      </trkpt>
      <trkpt lat="47.70897" lon="-3.32719">
        <ele>4</ele>
        <time>2024-04-29T21:28:03Z</time>
      </trkpt>
      <trkpt lat="47.70907" lon="-3.32738">
        <ele>5</ele>
        <time>2024-04-29T21:28:00Z</time>
      </trkpt>
      <trkpt lat="47.70926" lon="-3.32782">
        <ele>6</ele>
        <time>2024-04-29T21:27:51Z</time>
      </trkpt>
      <trkpt lat="47.70938" lon="-3.32818">
        <ele>7</ele>
        <time>2024-04-29T21:27:45Z</time>
      </trkpt>
      <trkpt lat="47.7096" lon="-3.32978">
        <ele>8</ele>
        <time>2024-04-29T21:27:19Z</time>
      </trkpt>
      <trkpt lat="47.70976" lon="-3.32993">
        <ele>7</ele>
        <time>2024-04-29T21:27:15Z</time>
      </trkpt>
      <trkpt lat="47.70973" lon="-3.33013">
        <ele>7</ele>
        <time>2024-04-29T21:27:12Z</time>
      </trkpt>
      <trkpt lat="47.7097" lon="-3.33087">
        <ele>6</ele>
        <time>2024-04-29T21:27:00Z</time>
      </trkpt>
      <trkpt lat="47.70971" lon="-3.33156">
        <ele>5</ele>
        <time>2024-04-29T21:26:49Z</time>
      </trkpt>
      <trkpt lat="47.70974" lon="-3.33165">
        <ele>5</ele>
        <time>2024-04-29T21:26:48Z</time>
      </trkpt>
      <trkpt lat="47.70969" lon="-3.3317">
        <ele>5</ele>
        <time>2024-04-29T21:26:46Z</time>
      </trkpt>
      <trkpt lat="47.7097" lon="-3.33177">
        <ele>5</ele>
        <time>2024-04-29T21:26:45Z</time>
      </trkpt>
      <trkpt lat="47.70972" lon="-3.33179">
        <ele>5</ele>
        <time>2024-04-29T21:26:45Z</time>
      </trkpt>
      <trkpt lat="47.70967" lon="-3.33226">
        <ele>6</ele>
        <time>2024-04-29T21:26:37Z</time>
      </trkpt>
      <trkpt lat="47.70963" lon="-3.33321">
        <ele>7</ele>
        <time>2024-04-29T21:26:22Z</time>
      </trkpt>
      <trkpt lat="47.70952" lon="-3.33488">
        <ele>7</ele>
        <time>2024-04-29T21:25:56Z</time>
      </trkpt>
      <trkpt lat="47.70938" lon="-3.33592">
        <ele>10</ele>
        <time>2024-04-29T21:25:39Z</time>
      </trkpt>
      <trkpt lat="47.70925" lon="-3.33662">
        <ele>10</ele>
        <time>2024-04-29T21:25:28Z</time>
      </trkpt>
      <trkpt lat="47.7089" lon="-3.339">
        <ele>6</ele>
        <time>2024-04-29T21:24:49Z</time>
      </trkpt>
      <trkpt lat="47.70889" lon="-3.33915">
        <ele>6</ele>
        <time>2024-04-29T21:24:47Z</time>
      </trkpt>
      <trkpt lat="47.70893" lon="-3.34121">
        <ele>5</ele>
        <time>2024-04-29T21:24:15Z</time>
      </trkpt>
      <trkpt lat="47.70884" lon="-3.34193">
        <ele>4</ele>
        <time>2024-04-29T21:24:03Z</time>
      </trkpt>
      <trkpt lat="47.70883" lon="-3.34221">
        <ele>4</ele>
        <time>2024-04-29T21:23:59Z</time>
      </trkpt>
      <trkpt lat="47.70886" lon="-3.34259">
        <ele>5</ele>
        <time>2024-04-29T21:23:53Z</time>
      </trkpt>
      <trkpt lat="47.7088" lon="-3.34264">
        <ele>5</ele>
        <time>2024-04-29T21:23:51Z</time>
      </trkpt>
      <trkpt lat="47.70879" lon="-3.34268">
        <ele>5</ele>
        <time>2024-04-29T21:23:51Z</time>
      </trkpt>
      <trkpt lat="47.70881" lon="-3.34278">
        <ele>5</ele>
        <time>2024-04-29T21:23:49Z</time>
      </trkpt>
      <trkpt lat="47.70883" lon="-3.3428">
        <ele>5</ele>
        <time>2024-04-29T21:23:48Z</time>
      </trkpt>
      <trkpt lat="47.7087" lon="-3.34309">
        <ele>4</ele>
        <time>2024-04-29T21:23:43Z</time>
      </trkpt>
      <trkpt lat="47.70863" lon="-3.34331">
        <ele>4</ele>
        <time>2024-04-29T21:23:39Z</time>
      </trkpt>
      <trkpt lat="47.70856" lon="-3.34379">
        <ele>4</ele>
        <time>2024-04-29T21:23:31Z</time>
      </trkpt>
      <trkpt lat="47.70851" lon="-3.34449">
        <ele>5</ele>
        <time>2024-04-29T21:23:20Z</time>
      </trkpt>
      <trkpt lat="47.70844" lon="-3.34589">
        <ele>7</ele>
        <time>2024-04-29T21:22:58Z</time>
      </trkpt>
      <trkpt lat="47.70843" lon="-3.346">
        <ele>7</ele>
        <time>2024-04-29T21:22:56Z</time>
      </trkpt>
      <trkpt lat="47.70836" lon="-3.34611">
        <ele>7</ele>
        <time>2024-04-29T21:22:54Z</time>
      </trkpt>
      <trkpt lat="47.70788" lon="-3.34572">
        <ele>6</ele>
        <time>2024-04-29T21:22:41Z</time>
      </trkpt>
      <trkpt lat="47.70778" lon="-3.34568">
        <ele>6</ele>
        <time>2024-04-29T21:22:39Z</time>
      </trkpt>
      <trkpt lat="47.7077" lon="-3.34567">
        <ele>6</ele>
        <time>2024-04-29T21:22:37Z</time>
      </trkpt>
      <trkpt lat="47.70756" lon="-3.34575">
        <ele>6</ele>
        <time>2024-04-29T21:22:33Z</time>
      </trkpt>
      <trkpt lat="47.70737" lon="-3.34592">
        <ele>7</ele>
        <time>2024-04-29T21:22:28Z</time>
      </trkpt>
      <trkpt lat="47.70731" lon="-3.34594">
        <ele>7</ele>
        <time>2024-04-29T21:22:27Z</time>
      </trkpt>
      <trkpt lat="47.70717" lon="-3.34603">
        <ele>7</ele>
        <time>2024-04-29T21:22:23Z</time>
      </trkpt>
      <trkpt lat="47.70704" lon="-3.34614">
        <ele>8</ele>
        <time>2024-04-29T21:22:20Z</time>
      </trkpt>
      <trkpt lat="47.70688" lon="-3.34642">
        <ele>8</ele>
        <time>2024-04-29T21:22:14Z</time>
      </trkpt>
      <trkpt lat="47.70669" lon="-3.3468">
        <ele>8</ele>
        <time>2024-04-29T21:22:07Z</time>
      </trkpt>
      <trkpt lat="47.70612" lon="-3.3474">
        <ele>6</ele>
        <time>2024-04-29T21:21:50Z</time>
      </trkpt>
      <trkpt lat="47.70524" lon="-3.34945">
        <ele>7</ele>
        <time>2024-04-29T21:21:12Z</time>
      </trkpt>
      <trkpt lat="47.70494" lon="-3.3502">
        <ele>9</ele>
        <time>2024-04-29T21:20:58Z</time>
      </trkpt>
      <trkpt lat="47.70489" lon="-3.35039">
        <ele>9</ele>
        <time>2024-04-29T21:20:55Z</time>
      </trkpt>
      <trkpt lat="47.70489" lon="-3.35069">
        <ele>10</ele>
        <time>2024-04-29T21:20:50Z</time>
      </trkpt>
      <trkpt lat="47.70475" lon="-3.35113">
        <ele>11</ele>
        <time>2024-04-29T21:20:43Z</time>
      </trkpt>
      <trkpt lat="47.70467" lon="-3.35118">
        <ele>10</ele>
        <time>2024-04-29T21:20:41Z</time>
      </trkpt>
      <trkpt lat="47.70455" lon="-3.35118">
        <ele>10</ele>
        <time>2024-04-29T21:20:38Z</time>
      </trkpt>
      <trkpt lat="47.70446" lon="-3.35113">
        <ele>10</ele>
        <time>2024-04-29T21:20:36Z</time>
      </trkpt>
      <trkpt lat="47.70434" lon="-3.3511">
        <ele>10</ele>
        <time>2024-04-29T21:20:33Z</time>
      </trkpt>
      <trkpt lat="47.70401" lon="-3.35126">
        <ele>8</ele>
        <time>2024-04-29T21:20:25Z</time>
      </trkpt>
      <trkpt lat="47.70383" lon="-3.35144">
        <ele>7</ele>
        <time>2024-04-29T21:20:20Z</time>
      </trkpt>
      <trkpt lat="47.70371" lon="-3.35211">
        <ele>7</ele>
        <time>2024-04-29T21:20:09Z</time>
      </trkpt>
      <trkpt lat="47.70373" lon="-3.35254">
        <ele>7</ele>
        <time>2024-04-29T21:20:02Z</time>
      </trkpt>
      <trkpt lat="47.7038" lon="-3.35383">
        <ele>6</ele>
        <time>2024-04-29T21:19:42Z</time>
      </trkpt>
      <trkpt lat="47.70383" lon="-3.35398">
        <ele>6</ele>
        <time>2024-04-29T21:19:39Z</time>
      </trkpt>
      <trkpt lat="47.70393" lon="-3.35432">
        <ele>5</ele>
        <time>2024-04-29T21:19:33Z</time>
      </trkpt>
      <trkpt lat="47.7043" lon="-3.3553">
        <ele>2</ele>
        <time>2024-04-29T21:19:16Z</time>
      </trkpt>
      <trkpt lat="47.70446" lon="-3.35555">
        <ele>1</ele>
        <time>2024-04-29T21:19:10Z</time>
      </trkpt>
      <trkpt lat="47.70499" lon="-3.356">
        <ele>2</ele>
        <time>2024-04-29T21:18:56Z</time>
      </trkpt>
      <trkpt lat="47.70503" lon="-3.35605">
        <ele>2</ele>
        <time>2024-04-29T21:18:55Z</time>
      </trkpt>
      <trkpt lat="47.70511" lon="-3.3562">
        <ele>2</ele>
        <time>2024-04-29T21:18:52Z</time>
      </trkpt>
      <trkpt lat="47.70543" lon="-3.35704">
        <ele>2</ele>
        <time>2024-04-29T21:18:37Z</time>
      </trkpt>
      <trkpt lat="47.70562" lon="-3.35742">
        <ele>2</ele>
        <time>2024-04-29T21:18:29Z</time>
      </trkpt>
      <trkpt lat="47.706" lon="-3.35779">
        <ele>3</ele>
        <time>2024-04-29T21:18:19Z</time>
      </trkpt>
      <trkpt lat="47.70634" lon="-3.35799">
        <ele>4</ele>
        <time>2024-04-29T21:18:10Z</time>
      </trkpt>
      <trkpt lat="47.70656" lon="-3.35807">
        <ele>5</ele>
        <time>2024-04-29T21:18:05Z</time>
      </trkpt>
      <trkpt lat="47.70666" lon="-3.35806">
        <ele>5</ele>
        <time>2024-04-29T21:18:02Z</time>
      </trkpt>
      <trkpt lat="47.70738" lon="-3.35766">
        <ele>8</ele>
        <time>2024-04-29T21:17:45Z</time>
      </trkpt>
      <trkpt lat="47.7075" lon="-3.35803">
        <ele>8</ele>
        <time>2024-04-29T21:17:38Z</time>
      </trkpt>
      <trkpt lat="47.70772" lon="-3.35767">
        <ele>9</ele>
        <time>2024-04-29T21:17:30Z</time>
      </trkpt>
      <trkpt lat="47.70782" lon="-3.35768">
        <ele>9</ele>
        <time>2024-04-29T21:17:28Z</time>
      </trkpt>
      <trkpt lat="47.70848" lon="-3.35766">
        <ele>9</ele>
        <time>2024-04-29T21:17:13Z</time>
      </trkpt>
      <trkpt lat="47.70852" lon="-3.35737">
        <ele>10</ele>
        <time>2024-04-29T21:17:08Z</time>
      </trkpt>
      <trkpt lat="47.70855" lon="-3.35715">
        <ele>11</ele>
        <time>2024-04-29T23:03:25Z</time>
      </trkpt>
      <trkpt lat="47.70848" lon="-3.35766">
        <ele>9</ele>
        <time>2024-04-29T23:03:17Z</time>
      </trkpt>
      <trkpt lat="47.70997" lon="-3.35825">
        <ele>5</ele>
        <time>2024-04-29T23:02:41Z</time>
      </trkpt>
      <trkpt lat="47.71004" lon="-3.35822">
        <ele>5</ele>
        <time>2024-04-29T23:02:39Z</time>
      </trkpt>
      <trkpt lat="47.71021" lon="-3.35804">
        <ele>6</ele>
        <time>2024-04-29T23:02:34Z</time>
      </trkpt>
      <trkpt lat="47.71081" lon="-3.35748">
        <ele>7</ele>
        <time>2024-04-29T23:02:18Z</time>
      </trkpt>
      <trkpt lat="47.71085" lon="-3.35729">
        <ele>7</ele>
        <time>2024-04-29T23:02:15Z</time>
      </trkpt>
      <trkpt lat="47.71085" lon="-3.35712">
        <ele>6</ele>
        <time>2024-04-29T23:02:12Z</time>
      </trkpt>
      <trkpt lat="47.71088" lon="-3.357">
        <ele>6</ele>
        <time>2024-04-29T23:02:10Z</time>
      </trkpt>
      <trkpt lat="47.71091" lon="-3.35679">
        <ele>6</ele>
        <time>2024-04-29T23:02:06Z</time>
      </trkpt>
      <trkpt lat="47.71056" lon="-3.35621">
        <ele>5</ele>
        <time>2024-04-29T23:01:54Z</time>
      </trkpt>
      <trkpt lat="47.71019" lon="-3.3557">
        <ele>6</ele>
        <time>2024-04-29T23:01:42Z</time>
      </trkpt>
      <trkpt lat="47.70995" lon="-3.35542">
        <ele>6</ele>
        <time>2024-04-29T23:01:35Z</time>
      </trkpt>
      <trkpt lat="47.70923" lon="-3.35464">
        <ele>8</ele>
        <time>2024-04-29T23:01:15Z</time>
      </trkpt>
      <trkpt lat="47.70825" lon="-3.35352">
        <ele>6</ele>
        <time>2024-04-29T23:00:46Z</time>
      </trkpt>
      <trkpt lat="47.7082" lon="-3.35345">
        <ele>6</ele>
        <time>2024-04-29T23:00:44Z</time>
      </trkpt>
      <trkpt lat="47.70823" lon="-3.35322">
        <ele>5</ele>
        <time>2024-04-29T23:00:40Z</time>
      </trkpt>
      <trkpt lat="47.70848" lon="-3.35268">
        <ele>2</ele>
        <time>2024-04-29T23:00:30Z</time>
      </trkpt>
      <trkpt lat="47.70854" lon="-3.35263">
        <ele>2</ele>
        <time>2024-04-29T23:00:28Z</time>
      </trkpt>
      <trkpt lat="47.70865" lon="-3.3526">
        <ele>2</ele>
        <time>2024-04-29T23:00:26Z</time>
      </trkpt>
      <trkpt lat="47.70884" lon="-3.35215">
        <ele>1</ele>
        <time>2024-04-29T23:00:17Z</time>
      </trkpt>
      <trkpt lat="47.70927" lon="-3.35125">
        <ele>1</ele>
        <time>2024-04-29T23:00:00Z</time>
      </trkpt>
      <trkpt lat="47.7099" lon="-3.35004">
        <ele>4</ele>
        <time>2024-04-29T22:59:36Z</time>
      </trkpt>
      <trkpt lat="47.71004" lon="-3.35022">
        <ele>3</ele>
        <time>2024-04-29T22:59:32Z</time>
      </trkpt>
      <trkpt lat="47.7103" lon="-3.3504">
        <ele>3</ele>
        <time>2024-04-29T22:59:25Z</time>
      </trkpt>
      <trkpt lat="47.71041" lon="-3.35042">
        <ele>3</ele>
        <time>2024-04-29T22:59:22Z</time>
      </trkpt>
      <trkpt lat="47.71094" lon="-3.35035">
        <ele>5</ele>
        <time>2024-04-29T22:59:10Z</time>
      </trkpt>
      <trkpt lat="47.7111" lon="-3.35035">
        <ele>6</ele>
        <time>2024-04-29T22:59:06Z</time>
      </trkpt>
      <trkpt lat="47.71142" lon="-3.3504">
        <ele>7</ele>
        <time>2024-04-29T22:58:59Z</time>
      </trkpt>
      <trkpt lat="47.7116" lon="-3.35051">
        <ele>7</ele>
        <time>2024-04-29T22:58:54Z</time>
      </trkpt>
      <trkpt lat="47.71176" lon="-3.35037">
        <ele>8</ele>
        <time>2024-04-29T22:58:50Z</time>
      </trkpt>
      <trkpt lat="47.71222" lon="-3.35028">
        <ele>10</ele>
        <time>2024-04-29T22:58:39Z</time>
      </trkpt>
      <trkpt lat="47.71323" lon="-3.3502">
        <ele>12</ele>
        <time>2024-04-29T22:58:15Z</time>
      </trkpt>
      <trkpt lat="47.71361" lon="-3.3502">
        <ele>11</ele>
        <time>2024-04-29T22:58:07Z</time>
      </trkpt>
      <trkpt lat="47.71366" lon="-3.35004">
        <ele>11</ele>
        <time>2024-04-29T22:58:04Z</time>
      </trkpt>
      <trkpt lat="47.71392" lon="-3.34964">
        <ele>8</ele>
        <time>2024-04-29T22:57:55Z</time>
      </trkpt>
      <trkpt lat="47.71376" lon="-3.34944">
        <ele>8</ele>
        <time>2024-04-29T22:57:50Z</time>
      </trkpt>
      <trkpt lat="47.71385" lon="-3.34929">
        <ele>7</ele>
        <time>2024-04-29T22:57:47Z</time>
      </trkpt>
      <trkpt lat="47.71402" lon="-3.34871">
        <ele>6</ele>
        <time>2024-04-29T22:57:37Z</time>
      </trkpt>
      <trkpt lat="47.71404" lon="-3.34854">
        <ele>6</ele>
        <time>2024-04-29T22:57:34Z</time>
      </trkpt>
      <trkpt lat="47.71396" lon="-3.34779">
        <ele>6</ele>
        <time>2024-04-29T22:57:22Z</time>
      </trkpt>
      <trkpt lat="47.71392" lon="-3.34766">
        <ele>6</ele>
        <time>2024-04-29T22:57:20Z</time>
      </trkpt>
      <trkpt lat="47.71351" lon="-3.34711">
        <ele>6</ele>
        <time>2024-04-29T22:57:07Z</time>
      </trkpt>
      <trkpt lat="47.71347" lon="-3.34702">
        <ele>6</ele>
        <time>2024-04-29T22:57:06Z</time>
      </trkpt>
      <trkpt lat="47.71346" lon="-3.34685">
        <ele>6</ele>
        <time>2024-04-29T22:57:03Z</time>
      </trkpt>
      <trkpt lat="47.71379" lon="-3.34553">
        <ele>4</ele>
        <time>2024-04-29T22:56:41Z</time>
      </trkpt>
      <trkpt lat="47.71403" lon="-3.34481">
        <ele>2</ele>
        <time>2024-04-29T22:56:28Z</time>
      </trkpt>
      <trkpt lat="47.71439" lon="-3.34399">
        <ele>3</ele>
        <time>2024-04-29T22:56:13Z</time>
      </trkpt>
      <trkpt lat="47.71442" lon="-3.34367">
        <ele>5</ele>
        <time>2024-04-29T22:56:08Z</time>
      </trkpt>
      <trkpt lat="47.71437" lon="-3.3433">
        <ele>7</ele>
        <time>2024-04-29T22:56:02Z</time>
      </trkpt>
      <trkpt lat="47.71436" lon="-3.34294">
        <ele>7</ele>
        <time>2024-04-29T22:55:56Z</time>
      </trkpt>
      <trkpt lat="47.7143" lon="-3.3424">
        <ele>8</ele>
        <time>2024-04-29T22:55:48Z</time>
      </trkpt>
      <trkpt lat="47.71429" lon="-3.34201">
        <ele>7</ele>
        <time>2024-04-29T22:55:41Z</time>
      </trkpt>
      <trkpt lat="47.71442" lon="-3.34186">
        <ele>7</ele>
        <time>2024-04-29T22:55:38Z</time>
      </trkpt>
      <trkpt lat="47.71447" lon="-3.34184">
        <ele>7</ele>
        <time>2024-04-29T22:55:36Z</time>
      </trkpt>
      <trkpt lat="47.7146" lon="-3.34167">
        <ele>6</ele>
        <time>2024-04-29T22:55:32Z</time>
      </trkpt>
      <trkpt lat="47.71569" lon="-3.34019">
        <ele>6</ele>
        <time>2024-04-29T22:54:58Z</time>
      </trkpt>
      <trkpt lat="47.7157" lon="-3.34007">
        <ele>6</ele>
        <time>2024-04-29T22:54:56Z</time>
      </trkpt>
      <trkpt lat="47.71572" lon="-3.34004">
        <ele>6</ele>
        <time>2024-04-29T22:54:55Z</time>
      </trkpt>
      <trkpt lat="47.71571" lon="-3.33995">
        <ele>6</ele>
        <time>2024-04-29T22:54:54Z</time>
      </trkpt>
      <trkpt lat="47.7157" lon="-3.33992">
        <ele>6</ele>
        <time>2024-04-29T22:54:53Z</time>
      </trkpt>
      <trkpt lat="47.71581" lon="-3.33983">
        <ele>5</ele>
        <time>2024-04-29T22:54:50Z</time>
      </trkpt>
      <trkpt lat="47.71624" lon="-3.3393">
        <ele>6</ele>
        <time>2024-04-29T22:54:37Z</time>
      </trkpt>
      <trkpt lat="47.71639" lon="-3.3395">
        <ele>5</ele>
        <time>2024-04-29T22:54:33Z</time>
      </trkpt>
      <trkpt lat="47.71651" lon="-3.33954">
        <ele>5</ele>
        <time>2024-04-29T22:54:30Z</time>
      </trkpt>
      <trkpt lat="47.71684" lon="-3.33947">
        <ele>6</ele>
        <time>2024-04-29T22:54:22Z</time>
      </trkpt>
      <trkpt lat="47.71697" lon="-3.33942">
        <ele>6</ele>
        <time>2024-04-29T22:54:19Z</time>
      </trkpt>
      <trkpt lat="47.71726" lon="-3.33926">
        <ele>7</ele>
        <time>2024-04-29T22:54:12Z</time>
      </trkpt>
      <trkpt lat="47.71753" lon="-3.33916">
        <ele>8</ele>
        <time>2024-04-29T22:54:05Z</time>
      </trkpt>
      <trkpt lat="47.71761" lon="-3.33906">
        <ele>8</ele>
        <time>2024-04-29T22:54:03Z</time>
      </trkpt>
      <trkpt lat="47.71774" lon="-3.33902">
        <ele>8</ele>
        <time>2024-04-29T22:54:00Z</time>
      </trkpt>
      <trkpt lat="47.7178" lon="-3.33906">
        <ele>8</ele>
        <time>2024-04-29T22:53:58Z</time>
      </trkpt>
      <trkpt lat="47.71834" lon="-3.34041">
        <ele>4</ele>
        <time>2024-04-29T22:53:33Z</time>
      </trkpt>
      <trkpt lat="47.71834" lon="-3.34046">
        <ele>4</ele>
        <time>2024-04-29T22:53:33Z</time>
      </trkpt>
      <trkpt lat="47.71852" lon="-3.34088">
        <ele>5</ele>
        <time>2024-04-29T22:53:25Z</time>
      </trkpt>
      <trkpt lat="47.71855" lon="-3.34093">
        <ele>5</ele>
        <time>2024-04-29T22:53:24Z</time>
      </trkpt>
      <trkpt lat="47.7189" lon="-3.34104">
        <ele>7</ele>
        <time>2024-04-29T22:53:15Z</time>
      </trkpt>
      <trkpt lat="47.7191" lon="-3.34128">
        <ele>8</ele>
        <time>2024-04-29T22:53:09Z</time>
      </trkpt>
      <trkpt lat="47.71974" lon="-3.3408">
        <ele>11</ele>
        <time>2024-04-29T22:52:53Z</time>
      </trkpt>
      <trkpt lat="47.71985" lon="-3.34111">
        <ele>11</ele>
        <time>2024-04-29T22:52:47Z</time>
      </trkpt>
      <trkpt lat="47.72015" lon="-3.34219">
        <ele>10</ele>
        <time>2024-04-29T22:52:29Z</time>
      </trkpt>
      <trkpt lat="47.72029" lon="-3.34212">
        <ele>11</ele>
        <time>2024-04-29T22:52:25Z</time>
      </trkpt>
      <trkpt lat="47.72071" lon="-3.34198">
        <ele>12</ele>
        <time>2024-04-29T22:52:15Z</time>
      </trkpt>
      <trkpt lat="47.72089" lon="-3.34194">
        <ele>13</ele>
        <time>2024-04-29T22:52:11Z</time>
      </trkpt>
      <trkpt lat="47.72105" lon="-3.3418">
        <ele>13</ele>
        <time>2024-04-29T22:52:07Z</time>
      </trkpt>
      <trkpt lat="47.72127" lon="-3.3415">
        <ele>14</ele>
        <time>2024-04-29T22:52:00Z</time>
      </trkpt>
      <trkpt lat="47.72162" lon="-3.34194">
        <ele>12</ele>
        <time>2024-04-29T22:51:49Z</time>
      </trkpt>
      <trkpt lat="47.72167" lon="-3.34202">
        <ele>12</ele>
        <time>2024-04-29T22:51:47Z</time>
      </trkpt>
      <trkpt lat="47.72187" lon="-3.34245">
        <ele>12</ele>
        <time>2024-04-29T22:51:39Z</time>
      </trkpt>
      <trkpt lat="47.72249" lon="-3.34397">
        <ele>12</ele>
        <time>2024-04-29T22:51:11Z</time>
      </trkpt>
      <trkpt lat="47.72273" lon="-3.3464">
        <ele>8</ele>
        <time>2024-04-29T22:50:33Z</time>
      </trkpt>
      <trkpt lat="47.72283" lon="-3.34756">
        <ele>8</ele>
        <time>2024-04-29T22:50:14Z</time>
      </trkpt>
      <trkpt lat="47.72338" lon="-3.34778">
        <ele>9</ele>
        <time>2024-04-29T22:50:01Z</time>
      </trkpt>
      <trkpt lat="47.72323" lon="-3.34879">
        <ele>5</ele>
        <time>2024-04-29T22:49:45Z</time>
      </trkpt>
      <trkpt lat="47.72323" lon="-3.34915">
        <ele>4</ele>
        <time>2024-04-29T22:49:39Z</time>
      </trkpt>
      <trkpt lat="47.72325" lon="-3.34925">
        <ele>4</ele>
        <time>2024-04-29T22:49:37Z</time>
      </trkpt>
      <trkpt lat="47.72336" lon="-3.34926">
        <ele>5</ele>
        <time>2024-04-29T22:49:35Z</time>
      </trkpt>
      <trkpt lat="47.7235" lon="-3.34927">
        <ele>4</ele>
        <time>2024-04-29T22:49:31Z</time>
      </trkpt>
      <trkpt lat="47.72357" lon="-3.34927">
        <ele>4</ele>
        <time>2024-04-29T22:49:30Z</time>
      </trkpt>
      <trkpt lat="47.72365" lon="-3.34928">
        <ele>4</ele>
        <time>2024-04-29T22:49:28Z</time>
      </trkpt>
      <trkpt lat="47.72373" lon="-3.34929">
        <ele>3</ele>
        <time>2024-04-29T22:49:26Z</time>
      </trkpt>
      <trkpt lat="47.72395" lon="-3.34929">
        <ele>2</ele>
        <time>2024-04-29T22:49:21Z</time>
      </trkpt>
      <trkpt lat="47.72415" lon="-3.3493">
        <ele>2</ele>
        <time>2024-04-29T22:49:16Z</time>
      </trkpt>
      <trkpt lat="47.72428" lon="-3.34924">
        <ele>1</ele>
        <time>2024-04-29T22:49:13Z</time>
      </trkpt>
      <trkpt lat="47.7244" lon="-3.34912">
        <ele>1</ele>
        <time>2024-04-29T22:49:10Z</time>
      </trkpt>
      <trkpt lat="47.72453" lon="-3.34893">
        <ele>1</ele>
        <time>2024-04-29T22:49:05Z</time>
      </trkpt>
      <trkpt lat="47.72465" lon="-3.34872">
        <ele>2</ele>
        <time>2024-04-29T22:49:01Z</time>
      </trkpt>
      <trkpt lat="47.72475" lon="-3.34854">
        <ele>2</ele>
        <time>2024-04-29T22:48:57Z</time>
      </trkpt>
      <trkpt lat="47.72483" lon="-3.34826">
        <ele>2</ele>
        <time>2024-04-29T22:48:53Z</time>
      </trkpt>
      <trkpt lat="47.72483" lon="-3.34813">
        <ele>2</ele>
        <time>2024-04-29T22:48:51Z</time>
      </trkpt>
      <trkpt lat="47.7247" lon="-3.34797">
        <ele>3</ele>
        <time>2024-04-29T22:48:47Z</time>
      </trkpt>
      <trkpt lat="47.7245" lon="-3.34769">
        <ele>3</ele>
        <time>2024-04-29T22:48:40Z</time>
      </trkpt>
      <trkpt lat="47.72447" lon="-3.34746">
        <ele>3</ele>
        <time>2024-04-29T22:48:37Z</time>
      </trkpt>
      <trkpt lat="47.72445" lon="-3.34717">
        <ele>4</ele>
        <time>2024-04-29T22:48:32Z</time>
      </trkpt>
      <trkpt lat="47.72447" lon="-3.34697">
        <ele>4</ele>
        <time>2024-04-29T22:48:29Z</time>
      </trkpt>
      <trkpt lat="47.72454" lon="-3.3468">
        <ele>4</ele>
        <time>2024-04-29T22:48:26Z</time>
      </trkpt>
      <trkpt lat="47.72472" lon="-3.3466">
        <ele>4</ele>
        <time>2024-04-29T22:48:20Z</time>
      </trkpt>
      <trkpt lat="47.72508" lon="-3.34639">
        <ele>4</ele>
        <time>2024-04-29T22:48:11Z</time>
      </trkpt>
      <trkpt lat="47.72523" lon="-3.34637">
        <ele>3</ele>
        <time>2024-04-29T22:48:08Z</time>
      </trkpt>
      <trkpt lat="47.72547" lon="-3.34641">
        <ele>2</ele>
        <time>2024-04-29T22:48:02Z</time>
      </trkpt>
      <trkpt lat="47.72561" lon="-3.34641">
        <ele>2</ele>
        <time>2024-04-29T22:47:59Z</time>
      </trkpt>
      <trkpt lat="47.72572" lon="-3.34638">
        <ele>1</ele>
        <time>2024-04-29T22:47:56Z</time>
      </trkpt>
      <trkpt lat="47.72581" lon="-3.34632">
        <ele>1</ele>
        <time>2024-04-29T22:47:54Z</time>
      </trkpt>
      <trkpt lat="47.72591" lon="-3.34621">
        <ele>1</ele>
        <time>2024-04-29T22:47:51Z</time>
      </trkpt>
      <trkpt lat="47.72598" lon="-3.34608">
        <ele>1</ele>
        <time>2024-04-29T22:47:49Z</time>
      </trkpt>
      <trkpt lat="47.72607" lon="-3.3458">
        <ele>2</ele>
        <time>2024-04-29T22:47:44Z</time>
      </trkpt>
      <trkpt lat="47.72608" lon="-3.34565">
        <ele>2</ele>
        <time>2024-04-29T22:47:41Z</time>
      </trkpt>
      <trkpt lat="47.72605" lon="-3.34527">
        <ele>3</ele>
        <time>2024-04-29T22:47:35Z</time>
      </trkpt>
      <trkpt lat="47.72605" lon="-3.34513">
        <ele>3</ele>
        <time>2024-04-29T22:47:33Z</time>
      </trkpt>
      <trkpt lat="47.72609" lon="-3.34498">
        <ele>3</ele>
        <time>2024-04-29T22:47:31Z</time>
      </trkpt>
      <trkpt lat="47.72627" lon="-3.34467">
        <ele>3</ele>
        <time>2024-04-29T22:47:24Z</time>
      </trkpt>
      <trkpt lat="47.72633" lon="-3.34451">
        <ele>3</ele>
        <time>2024-04-29T22:47:21Z</time>
      </trkpt>
      <trkpt lat="47.72634" lon="-3.34434">
        <ele>3</ele>
        <time>2024-04-29T22:47:19Z</time>
      </trkpt>
      <trkpt lat="47.72633" lon="-3.34427">
        <ele>3</ele>
        <time>2024-04-29T22:47:17Z</time>
      </trkpt>
      <trkpt lat="47.72613" lon="-3.34413">
        <ele>5</ele>
        <time>2024-04-29T22:47:12Z</time>
      </trkpt>
      <trkpt lat="47.72606" lon="-3.34402">
        <ele>5</ele>
        <time>2024-04-29T22:47:10Z</time>
      </trkpt>
      <trkpt lat="47.72623" lon="-3.34398">
        <ele>5</ele>
        <time>2024-04-29T22:47:06Z</time>
      </trkpt>
      <trkpt lat="47.72634" lon="-3.34408">
        <ele>4</ele>
        <time>2024-04-29T22:47:03Z</time>
      </trkpt>
      <trkpt lat="47.72642" lon="-3.3441">
        <ele>4</ele>
        <time>2024-04-29T22:47:01Z</time>
      </trkpt>
      <trkpt lat="47.72652" lon="-3.34407">
        <ele>3</ele>
        <time>2024-04-29T22:46:59Z</time>
      </trkpt>
      <trkpt lat="47.72655" lon="-3.34417">
        <ele>3</ele>
        <time>2024-04-29T22:46:57Z</time>
      </trkpt>
      <trkpt lat="47.72648" lon="-3.34421">
        <ele>3</ele>
        <time>2024-04-29T22:46:55Z</time>
      </trkpt>
      <trkpt lat="47.72651" lon="-3.34424">
        <ele>3</ele>
        <time>2024-04-29T22:46:54Z</time>
      </trkpt>
      <trkpt lat="47.7267" lon="-3.34412">
        <ele>2</ele>
        <time>2024-04-29T22:46:49Z</time>
      </trkpt>
      <trkpt lat="47.72679" lon="-3.34406">
        <ele>3</ele>
        <time>2024-04-29T22:46:47Z</time>
      </trkpt>
      <trkpt lat="47.72688" lon="-3.34395">
        <ele>3</ele>
        <time>2024-04-29T22:46:44Z</time>
      </trkpt>
      <trkpt lat="47.7271" lon="-3.34378">
        <ele>4</ele>
        <time>2024-04-29T22:46:39Z</time>
      </trkpt>
      <trkpt lat="47.72723" lon="-3.34373">
        <ele>4</ele>
        <time>2024-04-29T22:46:36Z</time>
      </trkpt>
      <trkpt lat="47.72746" lon="-3.34372">
        <ele>4</ele>
        <time>2024-04-29T22:46:30Z</time>
      </trkpt>
      <trkpt lat="47.72774" lon="-3.3438">
        <ele>3</ele>
        <time>2024-04-29T22:46:24Z</time>
      </trkpt>
      <trkpt lat="47.72832" lon="-3.34404">
        <ele>2</ele>
        <time>2024-04-29T22:46:09Z</time>
      </trkpt>
      <trkpt lat="47.72836" lon="-3.34408">
        <ele>2</ele>
        <time>2024-04-29T22:46:08Z</time>
      </trkpt>
      <trkpt lat="47.72854" lon="-3.34412">
        <ele>3</ele>
        <time>2024-04-29T22:46:04Z</time>
      </trkpt>
      <trkpt lat="47.72854" lon="-3.34407">
        <ele>3</ele>
        <time>2024-04-29T22:46:03Z</time>
      </trkpt>
      <trkpt lat="47.72871" lon="-3.34406">
        <ele>3</ele>
        <time>2024-04-29T22:45:59Z</time>
      </trkpt>
      <trkpt lat="47.72887" lon="-3.3441">
        <ele>3</ele>
        <time>2024-04-29T22:45:56Z</time>
      </trkpt>
      <trkpt lat="47.72897" lon="-3.34416">
        <ele>4</ele>
        <time>2024-04-29T22:45:53Z</time>
      </trkpt>
      <trkpt lat="47.72933" lon="-3.34474">
        <ele>3</ele>
        <time>2024-04-29T22:45:41Z</time>
      </trkpt>
      <trkpt lat="47.72986" lon="-3.34565">
        <ele>3</ele>
        <time>2024-04-29T22:45:22Z</time>
      </trkpt>
      <trkpt lat="47.72998" lon="-3.34605">
        <ele>3</ele>
        <time>2024-04-29T22:45:15Z</time>
      </trkpt>
      <trkpt lat="47.73002" lon="-3.34648">
        <ele>4</ele>
        <time>2024-04-29T22:45:08Z</time>
      </trkpt>
      <trkpt lat="47.72988" lon="-3.34772">
        <ele>3</ele>
        <time>2024-04-29T22:44:48Z</time>
      </trkpt>
      <trkpt lat="47.7299" lon="-3.34788">
        <ele>3</ele>
        <time>2024-04-29T22:44:46Z</time>
      </trkpt>
      <trkpt lat="47.72995" lon="-3.34799">
        <ele>3</ele>
        <time>2024-04-29T22:44:44Z</time>
      </trkpt>
      <trkpt lat="47.73006" lon="-3.34805">
        <ele>4</ele>
        <time>2024-04-29T22:44:41Z</time>
      </trkpt>
      <trkpt lat="47.73086" lon="-3.34773">
        <ele>6</ele>
        <time>2024-04-29T22:44:22Z</time>
      </trkpt>
      <trkpt lat="47.73115" lon="-3.3476">
        <ele>7</ele>
        <time>2024-04-29T22:44:14Z</time>
      </trkpt>
      <trkpt lat="47.73139" lon="-3.34747">
        <ele>8</ele>
        <time>2024-04-29T22:44:08Z</time>
      </trkpt>
      <trkpt lat="47.73158" lon="-3.34743">
        <ele>8</ele>
        <time>2024-04-29T22:44:04Z</time>
      </trkpt>
      <trkpt lat="47.73156" lon="-3.34718">
        <ele>8</ele>
        <time>2024-04-29T22:44:00Z</time>
      </trkpt>
      <trkpt lat="47.73157" lon="-3.34701">
        <ele>9</ele>
        <time>2024-04-29T22:43:57Z</time>
      </trkpt>
      <trkpt lat="47.73165" lon="-3.34668">
        <ele>10</ele>
        <time>2024-04-29T22:43:52Z</time>
      </trkpt>
      <trkpt lat="47.73172" lon="-3.346">
        <ele>7</ele>
        <time>2024-04-29T22:43:41Z</time>
      </trkpt>
      <trkpt lat="47.73208" lon="-3.34634">
        <ele>9</ele>
        <time>2024-04-29T22:43:31Z</time>
      </trkpt>
      <trkpt lat="47.73227" lon="-3.34647">
        <ele>9</ele>
        <time>2024-04-29T22:43:26Z</time>
      </trkpt>
      <trkpt lat="47.73248" lon="-3.34655">
        <ele>9</ele>
        <time>2024-04-29T22:43:21Z</time>
      </trkpt>
      <trkpt lat="47.73261" lon="-3.34557">
        <ele>8</ele>
        <time>2024-04-29T22:43:05Z</time>
      </trkpt>
      <trkpt lat="47.73225" lon="-3.34494">
        <ele>5</ele>
        <time>2024-04-29T22:42:52Z</time>
      </trkpt>
      <trkpt lat="47.73199" lon="-3.34454">
        <ele>5</ele>
        <time>2024-04-29T22:42:44Z</time>
      </trkpt>
      <trkpt lat="47.73174" lon="-3.34406">
        <ele>5</ele>
        <time>2024-04-29T22:42:34Z</time>
      </trkpt>
      <trkpt lat="47.73159" lon="-3.3434">
        <ele>4</ele>
        <time>2024-04-29T22:42:23Z</time>
      </trkpt>
      <trkpt lat="47.7315" lon="-3.34316">
        <ele>4</ele>
        <time>2024-04-29T22:42:19Z</time>
      </trkpt>
      <trkpt lat="47.7307" lon="-3.34173">
        <ele>5</ele>
        <time>2024-04-29T22:41:50Z</time>
      </trkpt>
      <trkpt lat="47.73018" lon="-3.34074">
        <ele>4</ele>
        <time>2024-04-29T22:41:30Z</time>
      </trkpt>
      <trkpt lat="47.73001" lon="-3.34038">
        <ele>3</ele>
        <time>2024-04-29T22:41:23Z</time>
      </trkpt>
      <trkpt lat="47.72981" lon="-3.33987">
        <ele>3</ele>
        <time>2024-04-29T22:41:14Z</time>
      </trkpt>
      <trkpt lat="47.72909" lon="-3.33753">
        <ele>4</ele>
        <time>2024-04-29T22:40:33Z</time>
      </trkpt>
      <trkpt lat="47.72882" lon="-3.33681">
        <ele>4</ele>
        <time>2024-04-29T22:40:20Z</time>
      </trkpt>
      <trkpt lat="47.7287" lon="-3.33631">
        <ele>4</ele>
        <time>2024-04-29T22:40:12Z</time>
      </trkpt>
      <trkpt lat="47.72868" lon="-3.33607">
        <ele>4</ele>
        <time>2024-04-29T22:40:08Z</time>
      </trkpt>
      <trkpt lat="47.72859" lon="-3.33543">
        <ele>4</ele>
        <time>2024-04-29T22:39:58Z</time>
      </trkpt>
      <trkpt lat="47.72859" lon="-3.33534">
        <ele>4</ele>
        <time>2024-04-29T22:39:57Z</time>
      </trkpt>
      <trkpt lat="47.72857" lon="-3.33527">
        <ele>4</ele>
        <time>2024-04-29T22:39:55Z</time>
      </trkpt>
      <trkpt lat="47.72858" lon="-3.33521">
        <ele>3</ele>
        <time>2024-04-29T22:39:54Z</time>
      </trkpt>
      <trkpt lat="47.7286" lon="-3.33511">
        <ele>3</ele>
        <time>2024-04-29T22:39:53Z</time>
      </trkpt>
      <trkpt lat="47.72862" lon="-3.33501">
        <ele>3</ele>
        <time>2024-04-29T22:39:51Z</time>
      </trkpt>
      <trkpt lat="47.72872" lon="-3.33478">
        <ele>2</ele>
        <time>2024-04-29T22:39:47Z</time>
      </trkpt>
      <trkpt lat="47.72894" lon="-3.3343">
        <ele>2</ele>
        <time>2024-04-29T22:39:38Z</time>
      </trkpt>
      <trkpt lat="47.72907" lon="-3.33401">
        <ele>2</ele>
        <time>2024-04-29T22:39:32Z</time>
      </trkpt>
      <trkpt lat="47.72932" lon="-3.33332">
        <ele>3</ele>
        <time>2024-04-29T22:39:20Z</time>
      </trkpt>
      <trkpt lat="47.72938" lon="-3.33283">
        <ele>3</ele>
        <time>2024-04-29T22:39:12Z</time>
      </trkpt>
      <trkpt lat="47.7294" lon="-3.33259">
        <ele>4</ele>
        <time>2024-04-29T22:39:08Z</time>
      </trkpt>
      <trkpt lat="47.7295" lon="-3.33258">
        <ele>3</ele>
        <time>2024-04-29T22:39:06Z</time>
      </trkpt>
      <trkpt lat="47.72964" lon="-3.33247">
        <ele>3</ele>
        <time>2024-04-29T22:39:02Z</time>
      </trkpt>
      <trkpt lat="47.72985" lon="-3.33187">
        <ele>3</ele>
        <time>2024-04-29T22:38:52Z</time>
      </trkpt>
      <trkpt lat="47.72997" lon="-3.33076">
        <ele>2</ele>
        <time>2024-04-29T22:38:34Z</time>
      </trkpt>
      <trkpt lat="47.73008" lon="-3.33011">
        <ele>4</ele>
        <time>2024-04-29T22:38:23Z</time>
      </trkpt>
      <trkpt lat="47.73059" lon="-3.32809">
        <ele>9</ele>
        <time>2024-04-29T22:37:50Z</time>
      </trkpt>
      <trkpt lat="47.7307" lon="-3.32479">
        <ele>13</ele>
        <time>2024-04-29T22:36:58Z</time>
      </trkpt>
      <trkpt lat="47.73079" lon="-3.3246">
        <ele>14</ele>
        <time>2024-04-29T22:36:54Z</time>
      </trkpt>
      <trkpt lat="47.73213" lon="-3.32344">
        <ele>11</ele>
        <time>2024-04-29T22:36:18Z</time>
      </trkpt>
      <trkpt lat="47.73217" lon="-3.32335">
        <ele>11</ele>
        <time>2024-04-29T22:36:16Z</time>
      </trkpt>
      <trkpt lat="47.73222" lon="-3.32338">
        <ele>11</ele>
        <time>2024-04-29T22:36:15Z</time>
      </trkpt>
      <trkpt lat="47.73291" lon="-3.32338">
        <ele>11</ele>
        <time>2024-04-29T22:35:59Z</time>
      </trkpt>
      <trkpt lat="47.73293" lon="-3.32336">
        <ele>11</ele>
        <time>2024-04-29T22:35:58Z</time>
      </trkpt>
      <trkpt lat="47.73294" lon="-3.32331">
        <ele>12</ele>
        <time>2024-04-29T22:35:57Z</time>
      </trkpt>
      <trkpt lat="47.73295" lon="-3.32318">
        <ele>12</ele>
        <time>2024-04-29T22:35:55Z</time>
      </trkpt>
      <trkpt lat="47.73291" lon="-3.32229">
        <ele>14</ele>
        <time>2024-04-29T22:35:41Z</time>
      </trkpt>
      <trkpt lat="47.73264" lon="-3.32035">
        <ele>15</ele>
        <time>2024-04-29T22:35:10Z</time>
      </trkpt>
      <trkpt lat="47.73231" lon="-3.31788">
        <ele>15</ele>
        <time>2024-04-29T22:34:31Z</time>
      </trkpt>
      <trkpt lat="47.73227" lon="-3.31772">
        <ele>15</ele>
        <time>2024-04-29T22:34:28Z</time>
      </trkpt>
      <trkpt lat="47.73223" lon="-3.31767">
        <ele>16</ele>
        <time>2024-04-29T22:34:27Z</time>
      </trkpt>
      <trkpt lat="47.73273" lon="-3.31691">
        <ele>16</ele>
        <time>2024-04-29T22:34:10Z</time>
      </trkpt>
      <trkpt lat="47.73298" lon="-3.31645">
        <ele>16</ele>
        <time>2024-04-29T22:34:01Z</time>
      </trkpt>
      <trkpt lat="47.73313" lon="-3.31612">
        <ele>16</ele>
        <time>2024-04-29T22:33:55Z</time>
      </trkpt>
      <trkpt lat="47.73341" lon="-3.31534">
        <ele>15</ele>
        <time>2024-04-29T22:33:41Z</time>
      </trkpt>
      <trkpt lat="47.73408" lon="-3.3132">
        <ele>14</ele>
        <time>2024-04-29T22:33:04Z</time>
      </trkpt>
      <trkpt lat="47.73491" lon="-3.31159">
        <ele>14</ele>
        <time>2024-04-29T22:32:32Z</time>
      </trkpt>
      <trkpt lat="47.7351" lon="-3.31128">
        <ele>13</ele>
        <time>2024-04-29T22:32:25Z</time>
      </trkpt>
      <trkpt lat="47.7354" lon="-3.31093">
        <ele>13</ele>
        <time>2024-04-29T22:32:16Z</time>
      </trkpt>
      <trkpt lat="47.73605" lon="-3.31034">
        <ele>10</ele>
        <time>2024-04-29T22:31:58Z</time>
      </trkpt>
      <trkpt lat="47.73704" lon="-3.3087">
        <ele>6</ele>
        <time>2024-04-29T22:31:24Z</time>
      </trkpt>
      <trkpt lat="47.73755" lon="-3.30779">
        <ele>7</ele>
        <time>2024-04-29T22:31:05Z</time>
      </trkpt>
      <trkpt lat="47.73823" lon="-3.30671">
        <ele>10</ele>
        <time>2024-04-29T22:30:42Z</time>
      </trkpt>
      <trkpt lat="47.73991" lon="-3.30394">
        <ele>17</ele>
        <time>2024-04-29T22:29:43Z</time>
      </trkpt>
      <trkpt lat="47.73997" lon="-3.3038">
        <ele>18</ele>
        <time>2024-04-29T22:29:41Z</time>
      </trkpt>
      <trkpt lat="47.74012" lon="-3.30355">
        <ele>18</ele>
        <time>2024-04-29T22:29:36Z</time>
      </trkpt>
      <trkpt lat="47.74018" lon="-3.30346">
        <ele>18</ele>
        <time>2024-04-29T22:29:34Z</time>
      </trkpt>
      <trkpt lat="47.74022" lon="-3.30334">
        <ele>18</ele>
        <time>2024-04-29T22:29:31Z</time>
      </trkpt>
      <trkpt lat="47.74021" lon="-3.30324">
        <ele>18</ele>
        <time>2024-04-29T22:29:30Z</time>
      </trkpt>
      <trkpt lat="47.74019" lon="-3.30323">
        <ele>19</ele>
        <time>2024-04-29T22:29:29Z</time>
      </trkpt>
      <trkpt lat="47.74011" lon="-3.30303">
        <ele>19</ele>
        <time>2024-04-29T22:29:26Z</time>
      </trkpt>
      <trkpt lat="47.74004" lon="-3.3028">
        <ele>18</ele>
        <time>2024-04-29T22:29:22Z</time>
      </trkpt>
      <trkpt lat="47.74007" lon="-3.30277">
        <ele>18</ele>
        <time>2024-04-29T22:29:21Z</time>
      </trkpt>
      <trkpt lat="47.74009" lon="-3.30269">
        <ele>18</ele>
        <time>2024-04-29T22:29:20Z</time>
      </trkpt>
      <trkpt lat="47.74008" lon="-3.30261">
        <ele>18</ele>
        <time>2024-04-29T22:29:18Z</time>
      </trkpt>
      <trkpt lat="47.74003" lon="-3.30255">
        <ele>18</ele>
        <time>2024-04-29T22:29:17Z</time>
      </trkpt>
      <trkpt lat="47.73997" lon="-3.30255">
        <ele>18</ele>
        <time>2024-04-29T22:29:15Z</time>
      </trkpt>
      <trkpt lat="47.73994" lon="-3.30257">
        <ele>18</ele>
        <time>2024-04-29T22:29:15Z</time>
      </trkpt>
      <trkpt lat="47.73987" lon="-3.30237">
        <ele>18</ele>
        <time>2024-04-29T22:29:11Z</time>
      </trkpt>
      <trkpt lat="47.73982" lon="-3.30217">
        <ele>17</ele>
        <time>2024-04-29T22:29:08Z</time>
      </trkpt>
      <trkpt lat="47.73957" lon="-3.29888">
        <ele>25</ele>
        <time>2024-04-29T22:28:16Z</time>
      </trkpt>
      <trkpt lat="47.73956" lon="-3.29828">
        <ele>27</ele>
        <time>2024-04-29T22:28:06Z</time>
      </trkpt>
      <trkpt lat="47.73961" lon="-3.29785">
        <ele>29</ele>
        <time>2024-04-29T22:27:59Z</time>
      </trkpt>
      <trkpt lat="47.73975" lon="-3.29709">
        <ele>32</ele>
        <time>2024-04-29T22:27:47Z</time>
      </trkpt>
      <trkpt lat="47.73978" lon="-3.29676">
        <ele>34</ele>
        <time>2024-04-29T22:27:42Z</time>
      </trkpt>
      <trkpt lat="47.73982" lon="-3.29624">
        <ele>34</ele>
        <time>2024-04-29T22:27:34Z</time>
      </trkpt>
      <trkpt lat="47.73979" lon="-3.29545">
        <ele>34</ele>
        <time>2024-04-29T22:27:21Z</time>
      </trkpt>
      <trkpt lat="47.7399" lon="-3.29551">
        <ele>35</ele>
        <time>2024-04-29T22:27:18Z</time>
      </trkpt>
      <trkpt lat="47.74024" lon="-3.29547">
        <ele>35</ele>
        <time>2024-04-29T22:27:10Z</time>
      </trkpt>
      <trkpt lat="47.74094" lon="-3.29533">
        <ele>37</ele>
        <time>2024-04-29T22:26:54Z</time>
      </trkpt>
      <trkpt lat="47.74145" lon="-3.29525">
        <ele>38</ele>
        <time>2024-04-29T22:26:42Z</time>
      </trkpt>
      <trkpt lat="47.7419" lon="-3.29514">
        <ele>38</ele>
        <time>2024-04-29T22:26:31Z</time>
      </trkpt>
      <trkpt lat="47.74214" lon="-3.29519">
        <ele>38</ele>
        <time>2024-04-29T22:26:26Z</time>
      </trkpt>
      <trkpt lat="47.74329" lon="-3.29567">
        <ele>38</ele>
        <time>2024-04-29T22:25:58Z</time>
      </trkpt>
      <trkpt lat="47.74387" lon="-3.29579">
        <ele>38</ele>
        <time>2024-04-29T22:25:44Z</time>
      </trkpt>
      <trkpt lat="47.74415" lon="-3.29579">
        <ele>38</ele>
        <time>2024-04-29T22:25:38Z</time>
      </trkpt>
      <trkpt lat="47.7444" lon="-3.29578">
        <ele>37</ele>
        <time>2024-04-29T22:25:32Z</time>
      </trkpt>
      <trkpt lat="47.74459" lon="-3.29574">
        <ele>36</ele>
        <time>2024-04-29T22:25:27Z</time>
      </trkpt>
      <trkpt lat="47.745" lon="-3.29558">
        <ele>35</ele>
        <time>2024-04-29T22:25:17Z</time>
      </trkpt>
      <trkpt lat="47.74513" lon="-3.29562">
        <ele>34</ele>
        <time>2024-04-29T22:25:14Z</time>
      </trkpt>
      <trkpt lat="47.74547" lon="-3.29588">
        <ele>33</ele>
        <time>2024-04-29T22:25:05Z</time>
      </trkpt>
      <trkpt lat="47.74621" lon="-3.29633">
        <ele>29</ele>
        <time>2024-04-29T22:24:47Z</time>
      </trkpt>
      <trkpt lat="47.74677" lon="-3.29669">
        <ele>26</ele>
        <time>2024-04-29T22:24:32Z</time>
      </trkpt>
      <trkpt lat="47.74688" lon="-3.29669">
        <ele>26</ele>
        <time>2024-04-29T22:24:30Z</time>
      </trkpt>
      <trkpt lat="47.747" lon="-3.29654">
        <ele>27</ele>
        <time>2024-04-29T22:24:26Z</time>
      </trkpt>
      <trkpt lat="47.74711" lon="-3.29634">
        <ele>28</ele>
        <time>2024-04-29T22:24:22Z</time>
      </trkpt>
      <trkpt lat="47.74729" lon="-3.29589">
        <ele>29</ele>
        <time>2024-04-29T22:24:14Z</time>
      </trkpt>
      <trkpt lat="47.74771" lon="-3.29496">
        <ele>33</ele>
        <time>2024-04-29T22:23:56Z</time>
      </trkpt>
      <trkpt lat="47.74821" lon="-3.29379">
        <ele>32</ele>
        <time>2024-04-29T22:23:35Z</time>
      </trkpt>
      <trkpt lat="47.74848" lon="-3.29323">
        <ele>32</ele>
        <time>2024-04-29T22:23:24Z</time>
      </trkpt>
      <trkpt lat="47.74879" lon="-3.29284">
        <ele>34</ele>
        <time>2024-04-29T22:23:14Z</time>
      </trkpt>
      <trkpt lat="47.74905" lon="-3.29266">
        <ele>35</ele>
        <time>2024-04-29T22:23:08Z</time>
      </trkpt>
      <trkpt lat="47.74955" lon="-3.29253">
        <ele>36</ele>
        <time>2024-04-29T22:22:56Z</time>
      </trkpt>
      <trkpt lat="47.74995" lon="-3.2921">
        <ele>39</ele>
        <time>2024-04-29T22:22:44Z</time>
      </trkpt>
      <trkpt lat="47.75009" lon="-3.29193">
        <ele>40</ele>
        <time>2024-04-29T22:22:40Z</time>
      </trkpt>
      <trkpt lat="47.75021" lon="-3.29173">
        <ele>40</ele>
        <time>2024-04-29T22:22:36Z</time>
      </trkpt>
      <trkpt lat="47.75047" lon="-3.29112">
        <ele>40</ele>
        <time>2024-04-29T22:22:24Z</time>
      </trkpt>
      <trkpt lat="47.75066" lon="-3.29057">
        <ele>38</ele>
        <time>2024-04-29T22:22:15Z</time>
      </trkpt>
      <trkpt lat="47.75074" lon="-3.29048">
        <ele>37</ele>
        <time>2024-04-29T22:22:12Z</time>
      </trkpt>
      <trkpt lat="47.75085" lon="-3.29047">
        <ele>37</ele>
        <time>2024-04-29T22:22:10Z</time>
      </trkpt>
      <trkpt lat="47.75093" lon="-3.29057">
        <ele>36</ele>
        <time>2024-04-29T22:22:07Z</time>
      </trkpt>
      <trkpt lat="47.75107" lon="-3.29081">
        <ele>36</ele>
        <time>2024-04-29T22:22:02Z</time>
      </trkpt>
      <trkpt lat="47.75115" lon="-3.29119">
        <ele>36</ele>
        <time>2024-04-29T22:21:56Z</time>
      </trkpt>
      <trkpt lat="47.7514" lon="-3.29154">
        <ele>34</ele>
        <time>2024-04-29T22:21:48Z</time>
      </trkpt>
      <trkpt lat="47.75162" lon="-3.29188">
        <ele>33</ele>
        <time>2024-04-29T22:21:41Z</time>
      </trkpt>
      <trkpt lat="47.75184" lon="-3.29201">
        <ele>33</ele>
        <time>2024-04-29T22:21:35Z</time>
      </trkpt>
      <trkpt lat="47.75198" lon="-3.29204">
        <ele>33</ele>
        <time>2024-04-29T22:21:32Z</time>
      </trkpt>
      <trkpt lat="47.75211" lon="-3.29204">
        <ele>34</ele>
        <time>2024-04-29T22:21:29Z</time>
      </trkpt>
      <trkpt lat="47.75217" lon="-3.29367">
        <ele>33</ele>
        <time>2024-04-29T22:21:03Z</time>
      </trkpt>
      <trkpt lat="47.75222" lon="-3.29391">
        <ele>32</ele>
        <time>2024-04-29T22:20:59Z</time>
      </trkpt>
      <trkpt lat="47.75258" lon="-3.29433">
        <ele>31</ele>
        <time>2024-04-29T22:20:49Z</time>
      </trkpt>
      <trkpt lat="47.75489" lon="-3.29275">
        <ele>34</ele>
        <time>2024-04-29T22:19:49Z</time>
      </trkpt>
      <trkpt lat="47.7568" lon="-3.29166">
        <ele>33</ele>
        <time>2024-04-29T22:19:01Z</time>
      </trkpt>
      <trkpt lat="47.75834" lon="-3.29112">
        <ele>34</ele>
        <time>2024-04-29T22:18:24Z</time>
      </trkpt>
      <trkpt lat="47.76032" lon="-3.28974">
        <ele>41</ele>
        <time>2024-04-29T22:17:33Z</time>
      </trkpt>
      <trkpt lat="47.7604" lon="-3.29017">
        <ele>40</ele>
        <time>2024-04-29T22:17:26Z</time>
      </trkpt>
      <trkpt lat="47.7602" lon="-3.29458">
        <ele>28</ele>
        <time>2024-04-29T22:16:17Z</time>
      </trkpt>
      <trkpt lat="47.76012" lon="-3.29505">
        <ele>28</ele>
        <time>2024-04-29T22:16:09Z</time>
      </trkpt>
      <trkpt lat="47.76038" lon="-3.29498">
        <ele>28</ele>
        <time>2024-04-29T22:16:03Z</time>
      </trkpt>
      <trkpt lat="47.76041" lon="-3.29505">
        <ele>28</ele>
        <time>2024-04-29T22:16:02Z</time>
      </trkpt>
      <trkpt lat="47.7607" lon="-3.29522">
        <ele>29</ele>
        <time>2024-04-29T22:15:55Z</time>
      </trkpt>
      <trkpt lat="47.7617" lon="-3.29589">
        <ele>24</ele>
        <time>2024-04-29T22:15:29Z</time>
      </trkpt>
      <trkpt lat="47.7623" lon="-3.29658">
        <ele>19</ele>
        <time>2024-04-29T22:15:11Z</time>
      </trkpt>
      <trkpt lat="47.76244" lon="-3.29754">
        <ele>16</ele>
        <time>2024-04-29T22:14:56Z</time>
      </trkpt>
      <trkpt lat="47.76152" lon="-3.29928">
        <ele>12</ele>
        <time>2024-04-29T22:14:21Z</time>
      </trkpt>
      <trkpt lat="47.76134" lon="-3.29975">
        <ele>13</ele>
        <time>2024-04-29T22:14:13Z</time>
      </trkpt>
      <trkpt lat="47.76122" lon="-3.3002">
        <ele>13</ele>
        <time>2024-04-29T22:14:05Z</time>
      </trkpt>
      <trkpt lat="47.76129" lon="-3.30075">
        <ele>15</ele>
        <time>2024-04-29T22:13:56Z</time>
      </trkpt>
      <trkpt lat="47.76158" lon="-3.30097">
        <ele>18</ele>
        <time>2024-04-29T22:13:49Z</time>
      </trkpt>
      <trkpt lat="47.76213" lon="-3.30132">
        <ele>20</ele>
        <time>2024-04-29T22:13:35Z</time>
      </trkpt>
      <trkpt lat="47.76223" lon="-3.3013">
        <ele>20</ele>
        <time>2024-04-29T22:13:32Z</time>
      </trkpt>
      <trkpt lat="47.76244" lon="-3.30104">
        <ele>22</ele>
        <time>2024-04-29T22:13:26Z</time>
      </trkpt>
      <trkpt lat="47.76328" lon="-3.29992">
        <ele>22</ele>
        <time>2024-04-29T22:13:00Z</time>
      </trkpt>
      <trkpt lat="47.76339" lon="-3.29983">
        <ele>22</ele>
        <time>2024-04-29T22:12:57Z</time>
      </trkpt>
      <trkpt lat="47.76356" lon="-3.29974">
        <ele>23</ele>
        <time>2024-04-29T22:12:52Z</time>
      </trkpt>
      <trkpt lat="47.76372" lon="-3.2997">
        <ele>23</ele>
        <time>2024-04-29T22:12:49Z</time>
      </trkpt>
      <trkpt lat="47.76372" lon="-3.29958">
        <ele>24</ele>
        <time>2024-04-29T22:12:47Z</time>
      </trkpt>
      <trkpt lat="47.76369" lon="-3.29937">
        <ele>26</ele>
        <time>2024-04-29T22:12:43Z</time>
      </trkpt>
      <trkpt lat="47.76363" lon="-3.29916">
        <ele>27</ele>
        <time>2024-04-29T22:12:40Z</time>
      </trkpt>
      <trkpt lat="47.76351" lon="-3.29891">
        <ele>27</ele>
        <time>2024-04-29T22:12:35Z</time>
      </trkpt>
      <trkpt lat="47.76337" lon="-3.29851">
        <ele>26</ele>
        <time>2024-04-29T22:12:28Z</time>
      </trkpt>
      <trkpt lat="47.76336" lon="-3.29824">
        <ele>26</ele>
        <time>2024-04-29T22:12:24Z</time>
      </trkpt>
      <trkpt lat="47.76344" lon="-3.29808">
        <ele>27</ele>
        <time>2024-04-29T22:12:21Z</time>
      </trkpt>
      <trkpt lat="47.7635" lon="-3.29801">
        <ele>27</ele>
        <time>2024-04-29T22:12:19Z</time>
      </trkpt>
      <trkpt lat="47.76368" lon="-3.29789">
        <ele>28</ele>
        <time>2024-04-29T22:12:14Z</time>
      </trkpt>
      <trkpt lat="47.76352" lon="-3.29827">
        <ele>-60.284053</ele>
        <time>2020-12-29T10:39:31.000Z</time>
      </trkpt>
      <trkpt lat="47.76356" lon="-3.29831">
        <ele>-60.251106</ele>
        <time>2020-12-29T10:39:30.000Z</time>
      </trkpt>
      <trkpt lat="47.76365" lon="-3.29858">
        <ele>-60.013416</ele>
        <time>2020-12-29T10:39:26.000Z</time>
      </trkpt>
      <trkpt lat="47.76368" lon="-3.29865">
        <ele>-59.935459</ele>
        <time>2020-12-29T10:39:25.000Z</time>
      </trkpt>
      <trkpt lat="47.76382" lon="-3.29901">
        <ele>-59.539412</ele>
        <time>2020-12-29T10:39:20.000Z</time>
      </trkpt>
      <trkpt lat="47.76387" lon="-3.29915">
        <ele>-59.382693</ele>
        <time>2020-12-29T10:39:18.000Z</time>
      </trkpt>
      <trkpt lat="47.76404" lon="-3.29962">
        <ele>-58.863672</ele>
        <time>2020-12-29T10:39:11.000Z</time>
      </trkpt>
      <trkpt lat="47.76412" lon="-3.29982">
        <ele>-58.645041</ele>
        <time>2020-12-29T10:39:08.000Z</time>
      </trkpt>
      <trkpt lat="47.76425" lon="-3.30013">
        <ele>-58.294903</ele>
        <time>2020-12-29T10:39:03.000Z</time>
      </trkpt>
      <trkpt lat="47.7643" lon="-3.30025">
        <ele>-58.156678</ele>
        <time>2020-12-29T10:39:01.000Z</time>
      </trkpt>
      <trkpt lat="47.76438" lon="-3.30043">
        <ele>-57.951318</ele>
        <time>2020-12-29T10:38:58.000Z</time>
      </trkpt>
      <trkpt lat="47.76461" lon="-3.30106">
        <ele>-57.486976</ele>
        <time>2020-12-29T10:38:49.000Z</time>
      </trkpt>
      <trkpt lat="47.76478" lon="-3.30151">
        <ele>-57.308833</ele>
        <time>2020-12-29T10:38:42.000Z</time>
      </trkpt>
      <trkpt lat="47.765" lon="-3.30212">
        <ele>-57.070596</ele>
        <time>2020-12-29T10:38:33.000Z</time>
      </trkpt>
      <trkpt lat="47.76503" lon="-3.30219">
        <ele>-57.042376</ele>
        <time>2020-12-29T10:38:32.000Z</time>
      </trkpt>
      <trkpt lat="47.76527" lon="-3.30281">
        <ele>-56.794357</ele>
        <time>2020-12-29T10:38:23.000Z</time>
      </trkpt>
      <trkpt lat="47.76534" lon="-3.30301">
        <ele>-56.716934</ele>
        <time>2020-12-29T10:38:20.000Z</time>
      </trkpt>
      <trkpt lat="47.76548" lon="-3.3034">
        <ele>-56.79021</ele>
        <time>2020-12-29T10:38:14.000Z</time>
      </trkpt>
      <trkpt lat="47.76573" lon="-3.30409">
        <ele>-56.995664</ele>
        <time>2020-12-29T10:38:04.000Z</time>
      </trkpt>
      <trkpt lat="47.76591" lon="-3.30466">
        <ele>-57.161642</ele>
        <time>2020-12-29T10:37:56.000Z</time>
      </trkpt>
      <trkpt lat="47.76602" lon="-3.30509">
        <ele>-57.281515</ele>
        <time>2020-12-29T10:37:50.000Z</time>
      </trkpt>
      <trkpt lat="47.76611" lon="-3.30556">
        <ele>-57.502461</ele>
        <time>2020-12-29T10:37:43.000Z</time>
      </trkpt>
      <trkpt lat="47.76612" lon="-3.30576">
        <ele>-57.903593</ele>
        <time>2020-12-29T10:37:40.000Z</time>
      </trkpt>
      <trkpt lat="47.76613" lon="-3.30582">
        <ele>-58.033837</ele>
        <time>2020-12-29T10:37:39.000Z</time>
      </trkpt>
      <trkpt lat="47.76614" lon="-3.30588">
        <ele>-58.165665</ele>
        <time>2020-12-29T10:37:38.000Z</time>
      </trkpt>
      <trkpt lat="47.76625" lon="-3.30626">
        <ele>-58.987769</ele>
        <time>2020-12-29T10:37:32.000Z</time>
      </trkpt>
      <trkpt lat="47.76627" lon="-3.30644">
        <ele>-59.353504</ele>
        <time>2020-12-29T10:37:29.000Z</time>
      </trkpt>
      <trkpt lat="47.76627" lon="-3.3065">
        <ele>-59.468547</ele>
        <time>2020-12-29T10:37:28.000Z</time>
      </trkpt>
      <trkpt lat="47.76622" lon="-3.30665">
        <ele>-59.809534</ele>
        <time>2020-12-29T10:37:25.000Z</time>
      </trkpt>
      <trkpt lat="47.76621" lon="-3.30677">
        <ele>-60.043111</ele>
        <time>2020-12-29T10:37:23.000Z</time>
      </trkpt>
      <trkpt lat="47.7662" lon="-3.30682">
        <ele>-60.15835</ele>
        <time>2020-12-29T10:37:22.000Z</time>
      </trkpt>
      <trkpt lat="47.76621" lon="-3.30704">
        <ele>-60.604282</ele>
        <time>2020-12-29T10:37:18.000Z</time>
      </trkpt>
      <trkpt lat="47.76621" lon="-3.3071">
        <ele>-60.709091</ele>
        <time>2020-12-29T10:37:17.000Z</time>
      </trkpt>
      <trkpt lat="47.76623" lon="-3.30751">
        <ele>-61.548385</ele>
        <time>2020-12-29T10:37:10.000Z</time>
      </trkpt>
      <trkpt lat="47.76624" lon="-3.30763">
        <ele>-61.784681</ele>
        <time>2020-12-29T10:37:08.000Z</time>
      </trkpt>
      <trkpt lat="47.76624" lon="-3.30769">
        <ele>-61.903938</ele>
        <time>2020-12-29T10:37:07.000Z</time>
      </trkpt>
      <trkpt lat="47.76626" lon="-3.30781">
        <ele>-62.149952</ele>
        <time>2020-12-29T10:37:05.000Z</time>
      </trkpt>
      <trkpt lat="47.76628" lon="-3.30801">
        <ele>-62.564881</ele>
        <time>2020-12-29T10:37:02.000Z</time>
      </trkpt>
      <trkpt lat="47.7663" lon="-3.30822">
        <ele>-62.776734</ele>
        <time>2020-12-29T10:36:59.000Z</time>
      </trkpt>
      <trkpt lat="47.76633" lon="-3.30844">
        <ele>-62.749811</ele>
        <time>2020-12-29T10:36:56.000Z</time>
      </trkpt>
      <trkpt lat="47.76635" lon="-3.3086">
        <ele>-62.7302</ele>
        <time>2020-12-29T10:36:54.000Z</time>
      </trkpt>
      <trkpt lat="47.76636" lon="-3.30868">
        <ele>-62.719579</ele>
        <time>2020-12-29T10:36:53.000Z</time>
      </trkpt>
      <trkpt lat="47.7664" lon="-3.30896">
        <ele>-62.685291</ele>
        <time>2020-12-29T10:36:50.000Z</time>
      </trkpt>
      <trkpt lat="47.76642" lon="-3.30914">
        <ele>-62.662015</ele>
        <time>2020-12-29T10:36:48.000Z</time>
      </trkpt>
      <trkpt lat="47.7664" lon="-3.30949">
        <ele>-62.619654</ele>
        <time>2020-12-29T10:36:44.000Z</time>
      </trkpt>
      <trkpt lat="47.76632" lon="-3.3097">
        <ele>-62.590243</ele>
        <time>2020-12-29T10:36:41.000Z</time>
      </trkpt>
      <trkpt lat="47.76621" lon="-3.30987">
        <ele>-62.561424</ele>
        <time>2020-12-29T10:36:38.000Z</time>
      </trkpt>
      <trkpt lat="47.7659" lon="-3.31029">
        <ele>-62.484762</ele>
        <time>2020-12-29T10:36:30.000Z</time>
      </trkpt>
      <trkpt lat="47.76582" lon="-3.3104">
        <ele>-62.464993</ele>
        <time>2020-12-29T10:36:28.000Z</time>
      </trkpt>
      <trkpt lat="47.76557" lon="-3.31074">
        <ele>-62.244824</ele>
        <time>2020-12-29T10:36:22.000Z</time>
      </trkpt>
      <trkpt lat="47.76523" lon="-3.3112">
        <ele>-61.931766</ele>
        <time>2020-12-29T10:36:15.000Z</time>
      </trkpt>
      <trkpt lat="47.76498" lon="-3.31155">
        <ele>-61.699925</ele>
        <time>2020-12-29T10:36:10.000Z</time>
      </trkpt>
      <trkpt lat="47.76494" lon="-3.31164">
        <ele>-61.652231</ele>
        <time>2020-12-29T10:36:09.000Z</time>
      </trkpt>
      <trkpt lat="47.7647" lon="-3.31219">
        <ele>-61.351909</ele>
        <time>2020-12-29T10:36:03.000Z</time>
      </trkpt>
      <trkpt lat="47.76458" lon="-3.31249">
        <ele>-60.90213</ele>
        <time>2020-12-29T10:36:00.000Z</time>
      </trkpt>
      <trkpt lat="47.76445" lon="-3.31279">
        <ele>-59.815235</ele>
        <time>2020-12-29T10:35:57.000Z</time>
      </trkpt>
      <trkpt lat="47.76437" lon="-3.31299">
        <ele>-59.114781</ele>
        <time>2020-12-29T10:35:55.000Z</time>
      </trkpt>
      <trkpt lat="47.76434" lon="-3.31309">
        <ele>-58.76873</ele>
        <time>2020-12-29T10:35:54.000Z</time>
      </trkpt>
      <trkpt lat="47.76428" lon="-3.31329">
        <ele>-58.08388</ele>
        <time>2020-12-29T10:35:52.000Z</time>
      </trkpt>
      <trkpt lat="47.76423" lon="-3.3135">
        <ele>-57.402894</ele>
        <time>2020-12-29T10:35:50.000Z</time>
      </trkpt>
      <trkpt lat="47.76415" lon="-3.31392">
        <ele>-56.081251</ele>
        <time>2020-12-29T10:35:46.000Z</time>
      </trkpt>
      <trkpt lat="47.76412" lon="-3.31411">
        <ele>-55.473742</ele>
        <time>2020-12-29T10:35:44.000Z</time>
      </trkpt>
      <trkpt lat="47.7641" lon="-3.31421">
        <ele>-55.185988</ele>
        <time>2020-12-29T10:35:43.000Z</time>
      </trkpt>
      <trkpt lat="47.76404" lon="-3.31455">
        <ele>-54.113646</ele>
        <time>2020-12-29T10:35:39.000Z</time>
      </trkpt>
      <trkpt lat="47.76401" lon="-3.3147">
        <ele>-53.618135</ele>
        <time>2020-12-29T10:35:37.000Z</time>
      </trkpt>
      <trkpt lat="47.76381" lon="-3.31527">
        <ele>-53.063716</ele>
        <time>2020-12-29T10:35:28.000Z</time>
      </trkpt>
      <trkpt lat="47.76364" lon="-3.31581">
        <ele>-53.03882</ele>
        <time>2020-12-29T10:35:19.000Z</time>
      </trkpt>
      <trkpt lat="47.76351" lon="-3.31635">
        <ele>-53.015406</ele>
        <time>2020-12-29T10:35:11.000Z</time>
      </trkpt>
      <trkpt lat="47.76344" lon="-3.31697">
        <ele>-52.988958</ele>
        <time>2020-12-29T10:35:02.000Z</time>
      </trkpt>
      <trkpt lat="47.76341" lon="-3.31724">
        <ele>-52.977771</ele>
        <time>2020-12-29T10:34:58.000Z</time>
      </trkpt>
      <trkpt lat="47.76339" lon="-3.31754">
        <ele>-53.484974</ele>
        <time>2020-12-29T10:34:53.000Z</time>
      </trkpt>
      <trkpt lat="47.76334" lon="-3.31789">
        <ele>-54.56119</ele>
        <time>2020-12-29T10:34:47.000Z</time>
      </trkpt>
      <trkpt lat="47.76334" lon="-3.31795">
        <ele>-54.740997</ele>
        <time>2020-12-29T10:34:46.000Z</time>
      </trkpt>
      <trkpt lat="47.76328" lon="-3.31828">
        <ele>-55.775238</ele>
        <time>2020-12-29T10:34:40.000Z</time>
      </trkpt>
      <trkpt lat="47.76325" lon="-3.31855">
        <ele>-56.630629</ele>
        <time>2020-12-29T10:34:35.000Z</time>
      </trkpt>
      <trkpt lat="47.76324" lon="-3.31867">
        <ele>-56.979707</ele>
        <time>2020-12-29T10:34:33.000Z</time>
      </trkpt>
      <trkpt lat="47.76318" lon="-3.319">
        <ele>-58.026975</ele>
        <time>2020-12-29T10:34:27.000Z</time>
      </trkpt>
      <trkpt lat="47.76312" lon="-3.31919">
        <ele>-58.674449</ele>
        <time>2020-12-29T10:34:23.000Z</time>
      </trkpt>
      <trkpt lat="47.76307" lon="-3.31934">
        <ele>-59.181932</ele>
        <time>2020-12-29T10:34:20.000Z</time>
      </trkpt>
      <trkpt lat="47.76306" lon="-3.31939">
        <ele>-59.342689</ele>
        <time>2020-12-29T10:34:19.000Z</time>
      </trkpt>
      <trkpt lat="47.76296" lon="-3.3197">
        <ele>-60.387181</ele>
        <time>2020-12-29T10:34:13.000Z</time>
      </trkpt>
      <trkpt lat="47.76284" lon="-3.31998">
        <ele>-61.416236</ele>
        <time>2020-12-29T10:34:07.000Z</time>
      </trkpt>
      <trkpt lat="47.76278" lon="-3.32013">
        <ele>-61.942725</ele>
        <time>2020-12-29T10:34:04.000Z</time>
      </trkpt>
      <trkpt lat="47.76273" lon="-3.32027">
        <ele>-62.454888</ele>
        <time>2020-12-29T10:34:01.000Z</time>
      </trkpt>
      <trkpt lat="47.76267" lon="-3.32043">
        <ele>-62.978572</ele>
        <time>2020-12-29T10:33:58.000Z</time>
      </trkpt>
      <trkpt lat="47.76263" lon="-3.32052">
        <ele>-63.324443</ele>
        <time>2020-12-29T10:33:56.000Z</time>
      </trkpt>
      <trkpt lat="47.7625" lon="-3.32073">
        <ele>-64.193452</ele>
        <time>2020-12-29T10:33:51.000Z</time>
      </trkpt>
      <trkpt lat="47.76248" lon="-3.32076">
        <ele>-64.359248</ele>
        <time>2020-12-29T10:33:50.000Z</time>
      </trkpt>
      <trkpt lat="47.76224" lon="-3.32088">
        <ele>-65.502145</ele>
        <time>2020-12-29T10:33:43.000Z</time>
      </trkpt>
      <trkpt lat="47.76206" lon="-3.32089">
        <ele>-66.347497</ele>
        <time>2020-12-29T10:33:38.000Z</time>
      </trkpt>
      <trkpt lat="47.76194" lon="-3.32087">
        <ele>-66.877582</ele>
        <time>2020-12-29T10:33:35.000Z</time>
      </trkpt>
      <trkpt lat="47.76167" lon="-3.32083">
        <ele>-68.125477</ele>
        <time>2020-12-29T10:33:28.000Z</time>
      </trkpt>
      <trkpt lat="47.76163" lon="-3.32082">
        <ele>-68.296381</ele>
        <time>2020-12-29T10:33:27.000Z</time>
      </trkpt>
      <trkpt lat="47.7614" lon="-3.32079">
        <ele>-69.360862</ele>
        <time>2020-12-29T10:33:21.000Z</time>
      </trkpt>
      <trkpt lat="47.76136" lon="-3.32079">
        <ele>-69.548889</ele>
        <time>2020-12-29T10:33:20.000Z</time>
      </trkpt>
      <trkpt lat="47.76125" lon="-3.32079">
        <ele>-70.116869</ele>
        <time>2020-12-29T10:33:17.000Z</time>
      </trkpt>
      <trkpt lat="47.76113" lon="-3.32081">
        <ele>-70.683041</ele>
        <time>2020-12-29T10:33:14.000Z</time>
      </trkpt>
      <trkpt lat="47.76102" lon="-3.32084">
        <ele>-71.245436</ele>
        <time>2020-12-29T10:33:11.000Z</time>
      </trkpt>
      <trkpt lat="47.76095" lon="-3.32087">
        <ele>-71.583964</ele>
        <time>2020-12-29T10:33:09.000Z</time>
      </trkpt>
      <trkpt lat="47.76089" lon="-3.3209">
        <ele>-71.885606</ele>
        <time>2020-12-29T10:33:07.000Z</time>
      </trkpt>
      <trkpt lat="47.76087" lon="-3.32093">
        <ele>-72.018705</ele>
        <time>2020-12-29T10:33:06.000Z</time>
      </trkpt>
      <trkpt lat="47.76085" lon="-3.32103">
        <ele>-72.369788</ele>
        <time>2020-12-29T10:33:04.000Z</time>
      </trkpt>
      <trkpt lat="47.76081" lon="-3.32117">
        <ele>-72.878302</ele>
        <time>2020-12-29T10:33:01.000Z</time>
      </trkpt>
      <trkpt lat="47.76079" lon="-3.32122">
        <ele>-73.042213</ele>
        <time>2020-12-29T10:33:00.000Z</time>
      </trkpt>
      <trkpt lat="47.76075" lon="-3.32136">
        <ele>-73.545487</ele>
        <time>2020-12-29T10:32:57.000Z</time>
      </trkpt>
      <trkpt lat="47.76074" lon="-3.32141">
        <ele>-73.731085</ele>
        <time>2020-12-29T10:32:56.000Z</time>
      </trkpt>
      <trkpt lat="47.76071" lon="-3.32155">
        <ele>-74.188723</ele>
        <time>2020-12-29T10:32:53.000Z</time>
      </trkpt>
      <trkpt lat="47.76071" lon="-3.32166">
        <ele>-74.562761</ele>
        <time>2020-12-29T10:32:50.000Z</time>
      </trkpt>
      <trkpt lat="47.7607" lon="-3.3217">
        <ele>-74.690399</ele>
        <time>2020-12-29T10:32:49.000Z</time>
      </trkpt>
      <trkpt lat="47.76071" lon="-3.32197">
        <ele>-75.588647</ele>
        <time>2020-12-29T10:32:44.000Z</time>
      </trkpt>
      <trkpt lat="47.76072" lon="-3.32211">
        <ele>-76.023101</ele>
        <time>2020-12-29T10:32:42.000Z</time>
      </trkpt>
      <trkpt lat="47.76071" lon="-3.32232">
        <ele>-76.72799</ele>
        <time>2020-12-29T10:32:39.000Z</time>
      </trkpt>
      <trkpt lat="47.76072" lon="-3.32239">
        <ele>-76.956473</ele>
        <time>2020-12-29T10:32:38.000Z</time>
      </trkpt>
      <trkpt lat="47.76071" lon="-3.32253">
        <ele>-77.401237</ele>
        <time>2020-12-29T10:32:36.000Z</time>
      </trkpt>
      <trkpt lat="47.76067" lon="-3.32279">
        <ele>-78.201987</ele>
        <time>2020-12-29T10:32:32.000Z</time>
      </trkpt>
      <trkpt lat="47.76065" lon="-3.32286">
        <ele>-78.308614</ele>
        <time>2020-12-29T10:32:31.000Z</time>
      </trkpt>
      <trkpt lat="47.76063" lon="-3.32291">
        <ele>-78.413995</ele>
        <time>2020-12-29T10:32:30.000Z</time>
      </trkpt>
      <trkpt lat="47.76055" lon="-3.32307">
        <ele>-78.732537</ele>
        <time>2020-12-29T10:32:27.000Z</time>
      </trkpt>
      <trkpt lat="47.76052" lon="-3.32312">
        <ele>-78.840292</ele>
        <time>2020-12-29T10:32:26.000Z</time>
      </trkpt>
      <trkpt lat="47.76032" lon="-3.32348">
        <ele>-79.581443</ele>
        <time>2020-12-29T10:32:19.000Z</time>
      </trkpt>
      <trkpt lat="47.76029" lon="-3.32353">
        <ele>-79.689524</ele>
        <time>2020-12-29T10:32:18.000Z</time>
      </trkpt>
      <trkpt lat="47.76008" lon="-3.32391">
        <ele>-80.478033</ele>
        <time>2020-12-29T10:32:11.000Z</time>
      </trkpt>
      <trkpt lat="47.76002" lon="-3.32402">
        <ele>-80.714373</ele>
        <time>2020-12-29T10:32:09.000Z</time>
      </trkpt>
      <trkpt lat="47.75996" lon="-3.32414">
        <ele>-80.94366</ele>
        <time>2020-12-29T10:32:07.000Z</time>
      </trkpt>
      <trkpt lat="47.75993" lon="-3.32419">
        <ele>-81.044269</ele>
        <time>2020-12-29T10:32:06.000Z</time>
      </trkpt>
      <trkpt lat="47.75988" lon="-3.32432">
        <ele>-81.285386</ele>
        <time>2020-12-29T10:32:02.000Z</time>
      </trkpt>
      <trkpt lat="47.75988" lon="-3.32434">
        <ele>-81.318878</ele>
        <time>2020-12-29T10:32:00.000Z</time>
      </trkpt>
      <trkpt lat="47.75992" lon="-3.3244">
        <ele>-81.446908</ele>
        <time>2020-12-29T10:31:42.000Z</time>
      </trkpt>
      <trkpt lat="47.75995" lon="-3.32441">
        <ele>-81.514869</ele>
        <time>2020-12-29T10:31:38.000Z</time>
      </trkpt>
      <trkpt lat="47.75997" lon="-3.32441">
        <ele>-81.560058</ele>
        <time>2020-12-29T10:31:37.000Z</time>
      </trkpt>
      <trkpt lat="47.7601" lon="-3.32431">
        <ele>-81.917277</ele>
        <time>2020-12-29T10:31:32.000Z</time>
      </trkpt>
      <trkpt lat="47.76025" lon="-3.32413">
        <ele>-82.373218</ele>
        <time>2020-12-29T10:31:28.000Z</time>
      </trkpt>
      <trkpt lat="47.76033" lon="-3.32402">
        <ele>-82.382977</ele>
        <time>2020-12-29T10:31:26.000Z</time>
      </trkpt>
      <trkpt lat="47.76039" lon="-3.32389">
        <ele>-82.370679</ele>
        <time>2020-12-29T10:31:24.000Z</time>
      </trkpt>
      <trkpt lat="47.76045" lon="-3.3238">
        <ele>-82.361068</ele>
        <time>2020-12-29T10:31:22.000Z</time>
      </trkpt>
      <trkpt lat="47.76057" lon="-3.32378">
        <ele>-82.347195</ele>
        <time>2020-12-29T10:31:19.000Z</time>
      </trkpt>
      <trkpt lat="47.76065" lon="-3.32381">
        <ele>-82.337014</ele>
        <time>2020-12-29T10:31:17.000Z</time>
      </trkpt>
      <trkpt lat="47.76094" lon="-3.32388">
        <ele>-82.302987</ele>
        <time>2020-12-29T10:31:11.000Z</time>
      </trkpt>
      <trkpt lat="47.76099" lon="-3.32388">
        <ele>-82.297561</ele>
        <time>2020-12-29T10:31:10.000Z</time>
      </trkpt>
      <trkpt lat="47.76113" lon="-3.32387">
        <ele>-82.281698</ele>
        <time>2020-12-29T10:31:07.000Z</time>
      </trkpt>
      <trkpt lat="47.76121" lon="-3.32378">
        <ele>-82.270395</ele>
        <time>2020-12-29T10:31:05.000Z</time>
      </trkpt>
      <trkpt lat="47.76126" lon="-3.32368">
        <ele>-82.260144</ele>
        <time>2020-12-29T10:31:03.000Z</time>
      </trkpt>
      <trkpt lat="47.76128" lon="-3.32363">
        <ele>-82.255822</ele>
        <time>2020-12-29T10:31:02.000Z</time>
      </trkpt>
      <trkpt lat="47.76131" lon="-3.3235">
        <ele>-82.245776</ele>
        <time>2020-12-29T10:30:59.000Z</time>
      </trkpt>
      <trkpt lat="47.76132" lon="-3.32347">
        <ele>-82.242865</ele>
        <time>2020-12-29T10:30:58.000Z</time>
      </trkpt>
      <trkpt lat="47.76139" lon="-3.32341">
        <ele>-82.233311</ele>
        <time>2020-12-29T10:30:55.000Z</time>
      </trkpt>
      <trkpt lat="47.76147" lon="-3.3234">
        <ele>-82.22361</ele>
        <time>2020-12-29T10:30:53.000Z</time>
      </trkpt>
      <trkpt lat="47.76157" lon="-3.32339">
        <ele>-82.213041</ele>
        <time>2020-12-29T10:30:51.000Z</time>
      </trkpt>
      <trkpt lat="47.76162" lon="-3.32339">
        <ele>-82.207154</ele>
        <time>2020-12-29T10:30:49.000Z</time>
      </trkpt>
      <trkpt lat="47.76164" lon="-3.32339">
        <ele>-82.204089</ele>
        <time>2020-12-29T10:30:44.000Z</time>
      </trkpt>
      <trkpt lat="47.76164" lon="-3.32339">
        <ele>-82.203858</ele>
        <time>2020-12-29T10:30:43.000Z</time>
      </trkpt>
      <trkpt lat="47.76165" lon="-3.32345">
        <ele>-82.199764</ele>
        <time>2020-12-29T10:30:40.000Z</time>
      </trkpt>
      <trkpt lat="47.76166" lon="-3.3235">
        <ele>-82.195549</ele>
        <time>2020-12-29T10:30:39.000Z</time>
      </trkpt>
      <trkpt lat="47.76167" lon="-3.32356">
        <ele>-82.19065</ele>
        <time>2020-12-29T10:30:38.000Z</time>
      </trkpt>
      <trkpt lat="47.76167" lon="-3.32377">
        <ele>-82.169618</ele>
        <time>2020-12-29T10:30:35.000Z</time>
      </trkpt>
      <trkpt lat="47.76167" lon="-3.32384">
        <ele>-82.161701</ele>
        <time>2020-12-29T10:30:34.000Z</time>
      </trkpt>
      <trkpt lat="47.76168" lon="-3.32412">
        <ele>-82.130573</ele>
        <time>2020-12-29T10:30:30.000Z</time>
      </trkpt>
      <trkpt lat="47.76168" lon="-3.32419">
        <ele>-82.122992</ele>
        <time>2020-12-29T10:30:29.000Z</time>
      </trkpt>
      <trkpt lat="47.76172" lon="-3.32446">
        <ele>-82.092789</ele>
        <time>2020-12-29T10:30:25.000Z</time>
      </trkpt>
      <trkpt lat="47.76186" lon="-3.32462">
        <ele>-82.064646</ele>
        <time>2020-12-29T10:30:21.000Z</time>
      </trkpt>
      <trkpt lat="47.76207" lon="-3.32466">
        <ele>-82.030544</ele>
        <time>2020-12-29T10:30:17.000Z</time>
      </trkpt>
      <trkpt lat="47.76218" lon="-3.32467">
        <ele>-82.012354</ele>
        <time>2020-12-29T10:30:15.000Z</time>
      </trkpt>
      <trkpt lat="47.76232" lon="-3.32475">
        <ele>-81.987498</ele>
        <time>2020-12-29T10:30:12.000Z</time>
      </trkpt>
      <trkpt lat="47.76237" lon="-3.32506">
        <ele>-81.952379</ele>
        <time>2020-12-29T10:30:07.000Z</time>
      </trkpt>
      <trkpt lat="47.7624" lon="-3.32524">
        <ele>-81.932081</ele>
        <time>2020-12-29T10:30:04.000Z</time>
      </trkpt>
      <trkpt lat="47.76248" lon="-3.32532">
        <ele>-81.917258</ele>
        <time>2020-12-29T10:30:02.000Z</time>
      </trkpt>
      <trkpt lat="47.76253" lon="-3.32534">
        <ele>-81.907447</ele>
        <time>2020-12-29T10:30:01.000Z</time>
      </trkpt>
      <trkpt lat="47.7626" lon="-3.32536">
        <ele>-81.896736</ele>
        <time>2020-12-29T10:30:00.000Z</time>
      </trkpt>
      <trkpt lat="47.76281" lon="-3.32541">
        <ele>-81.787303</ele>
        <time>2020-12-29T10:29:57.000Z</time>
      </trkpt>
      <trkpt lat="47.76288" lon="-3.3254">
        <ele>-81.745751</ele>
        <time>2020-12-29T10:29:56.000Z</time>
      </trkpt>
      <trkpt lat="47.76301" lon="-3.32534">
        <ele>-81.66883</ele>
        <time>2020-12-29T10:29:54.000Z</time>
      </trkpt>
      <trkpt lat="47.76308" lon="-3.3253">
        <ele>-81.630809</ele>
        <time>2020-12-29T10:29:53.000Z</time>
      </trkpt>
      <trkpt lat="47.76319" lon="-3.32523">
        <ele>-81.562587</ele>
        <time>2020-12-29T10:29:51.000Z</time>
      </trkpt>
      <trkpt lat="47.76334" lon="-3.32513">
        <ele>-81.472409</ele>
        <time>2020-12-29T10:29:48.000Z</time>
      </trkpt>
      <trkpt lat="47.76353" lon="-3.32503">
        <ele>-81.357885</ele>
        <time>2020-12-29T10:29:44.000Z</time>
      </trkpt>
      <trkpt lat="47.76362" lon="-3.32499">
        <ele>-81.302776</ele>
        <time>2020-12-29T10:29:42.000Z</time>
      </trkpt>
      <trkpt lat="47.76367" lon="-3.32497">
        <ele>-81.27592</ele>
        <time>2020-12-29T10:29:41.000Z</time>
      </trkpt>
      <trkpt lat="47.76376" lon="-3.32494">
        <ele>-81.223521</ele>
        <time>2020-12-29T10:29:39.000Z</time>
      </trkpt>
      <trkpt lat="47.76384" lon="-3.32489">
        <ele>-81.173341</ele>
        <time>2020-12-29T10:29:37.000Z</time>
      </trkpt>
      <trkpt lat="47.76402" lon="-3.32475">
        <ele>-81.061502</ele>
        <time>2020-12-29T10:29:32.000Z</time>
      </trkpt>
      <trkpt lat="47.76406" lon="-3.32473">
        <ele>-81.038653</ele>
        <time>2020-12-29T10:29:31.000Z</time>
      </trkpt>
      <trkpt lat="47.76416" lon="-3.32468">
        <ele>-80.976543</ele>
        <time>2020-12-29T10:29:28.000Z</time>
      </trkpt>
      <trkpt lat="47.76425" lon="-3.32468">
        <ele>-80.929994</ele>
        <time>2020-12-29T10:29:26.000Z</time>
      </trkpt>
      <trkpt lat="47.76437" lon="-3.3247">
        <ele>-80.925083</ele>
        <time>2020-12-29T10:29:23.000Z</time>
      </trkpt>
      <trkpt lat="47.76446" lon="-3.3247">
        <ele>-81.018005</ele>
        <time>2020-12-29T10:29:21.000Z</time>
      </trkpt>
      <trkpt lat="47.7645" lon="-3.3247">
        <ele>-81.06097</ele>
        <time>2020-12-29T10:29:20.000Z</time>
      </trkpt>
      <trkpt lat="47.76459" lon="-3.32471">
        <ele>-81.153179</ele>
        <time>2020-12-29T10:29:18.000Z</time>
      </trkpt>
      <trkpt lat="47.76468" lon="-3.32472">
        <ele>-81.243734</ele>
        <time>2020-12-29T10:29:16.000Z</time>
      </trkpt>
      <trkpt lat="47.76482" lon="-3.32475">
        <ele>-81.376051</ele>
        <time>2020-12-29T10:29:13.000Z</time>
      </trkpt>
      <trkpt lat="47.76491" lon="-3.32478">
        <ele>-81.475169</ele>
        <time>2020-12-29T10:29:11.000Z</time>
      </trkpt>
      <trkpt lat="47.76496" lon="-3.32478">
        <ele>-81.522431</ele>
        <time>2020-12-29T10:29:10.000Z</time>
      </trkpt>
      <trkpt lat="47.76501" lon="-3.32478">
        <ele>-81.568393</ele>
        <time>2020-12-29T10:29:09.000Z</time>
      </trkpt>
      <trkpt lat="47.76524" lon="-3.32473">
        <ele>-81.800714</ele>
        <time>2020-12-29T10:29:04.000Z</time>
      </trkpt>
      <trkpt lat="47.76535" lon="-3.3247">
        <ele>-81.914528</ele>
        <time>2020-12-29T10:29:02.000Z</time>
      </trkpt>
      <trkpt lat="47.76568" lon="-3.32461">
        <ele>-82.246886</ele>
        <time>2020-12-29T10:28:56.000Z</time>
      </trkpt>
      <trkpt lat="47.76573" lon="-3.32459">
        <ele>-82.301052</ele>
        <time>2020-12-29T10:28:55.000Z</time>
      </trkpt>
      <trkpt lat="47.7659" lon="-3.32459">
        <ele>-82.467896</ele>
        <time>2020-12-29T10:28:52.000Z</time>
      </trkpt>
      <trkpt lat="47.76618" lon="-3.32481">
        <ele>-82.62771</ele>
        <time>2020-12-29T10:28:46.000Z</time>
      </trkpt>
      <trkpt lat="47.76623" lon="-3.32486">
        <ele>-82.601832</ele>
        <time>2020-12-29T10:28:45.000Z</time>
      </trkpt>
      <trkpt lat="47.7664" lon="-3.32501">
        <ele>-82.50104</ele>
        <time>2020-12-29T10:28:41.000Z</time>
      </trkpt>
      <trkpt lat="47.76644" lon="-3.32505">
        <ele>-82.477915</ele>
        <time>2020-12-29T10:28:40.000Z</time>
      </trkpt>
      <trkpt lat="47.76648" lon="-3.32508">
        <ele>-82.455829</ele>
        <time>2020-12-29T10:28:39.000Z</time>
      </trkpt>
      <trkpt lat="47.76657" lon="-3.32518">
        <ele>-82.399117</ele>
        <time>2020-12-29T10:28:35.000Z</time>
      </trkpt>
      <trkpt lat="47.76659" lon="-3.32518">
        <ele>-82.391125</ele>
        <time>2020-12-29T10:28:34.000Z</time>
      </trkpt>
      <trkpt lat="47.76662" lon="-3.32509">
        <ele>-82.358797</ele>
        <time>2020-12-29T10:28:31.000Z</time>
      </trkpt>
      <trkpt lat="47.76664" lon="-3.32503">
        <ele>-82.334383</ele>
        <time>2020-12-29T10:28:29.000Z</time>
      </trkpt>
      <trkpt lat="47.76664" lon="-3.32498">
        <ele>-82.317925</ele>
        <time>2020-12-29T10:28:17.000Z</time>
      </trkpt>
      <trkpt lat="47.76663" lon="-3.32502">
        <ele>-82.304035</ele>
        <time>2020-12-29T10:28:14.000Z</time>
      </trkpt>
      <trkpt lat="47.7666" lon="-3.32513">
        <ele>-82.264859</ele>
        <time>2020-12-29T10:28:12.000Z</time>
      </trkpt>
      <trkpt lat="47.7665" lon="-3.32549">
        <ele>-82.133389</ele>
        <time>2020-12-29T10:28:07.000Z</time>
      </trkpt>
      <trkpt lat="47.76637" lon="-3.32595">
        <ele>-81.964852</ele>
        <time>2020-12-29T10:28:01.000Z</time>
      </trkpt>
      <trkpt lat="47.76634" lon="-3.32603">
        <ele>-81.935331</ele>
        <time>2020-12-29T10:28:00.000Z</time>
      </trkpt>
      <trkpt lat="47.76622" lon="-3.32647">
        <ele>-81.770673</ele>
        <time>2020-12-29T10:27:54.000Z</time>
      </trkpt>
      <trkpt lat="47.76614" lon="-3.32677">
        <ele>-81.575357</ele>
        <time>2020-12-29T10:27:50.000Z</time>
      </trkpt>
      <trkpt lat="47.76611" lon="-3.32685">
        <ele>-81.518953</ele>
        <time>2020-12-29T10:27:49.000Z</time>
      </trkpt>
      <trkpt lat="47.76608" lon="-3.32702">
        <ele>-81.412192</ele>
        <time>2020-12-29T10:27:47.000Z</time>
      </trkpt>
      <trkpt lat="47.76598" lon="-3.32744">
        <ele>-81.145958</ele>
        <time>2020-12-29T10:27:42.000Z</time>
      </trkpt>
      <trkpt lat="47.76589" lon="-3.32795">
        <ele>-80.82559</ele>
        <time>2020-12-29T10:27:36.000Z</time>
      </trkpt>
      <trkpt lat="47.76582" lon="-3.32854">
        <ele>-80.466924</ele>
        <time>2020-12-29T10:27:29.000Z</time>
      </trkpt>
      <trkpt lat="47.76581" lon="-3.32862">
        <ele>-80.417651</ele>
        <time>2020-12-29T10:27:28.000Z</time>
      </trkpt>
      <trkpt lat="47.76579" lon="-3.32885">
        <ele>-80.27591</ele>
        <time>2020-12-29T10:27:25.000Z</time>
      </trkpt>
      <trkpt lat="47.76578" lon="-3.32892">
        <ele>-80.233144</ele>
        <time>2020-12-29T10:27:24.000Z</time>
      </trkpt>
      <trkpt lat="47.76574" lon="-3.32897">
        <ele>-80.19016</ele>
        <time>2020-12-29T10:27:23.000Z</time>
      </trkpt>
      <trkpt lat="47.76561" lon="-3.32911">
        <ele>-79.959636</ele>
        <time>2020-12-29T10:27:20.000Z</time>
      </trkpt>
      <trkpt lat="47.76556" lon="-3.32914">
        <ele>-79.87748</ele>
        <time>2020-12-29T10:27:19.000Z</time>
      </trkpt>
      <trkpt lat="47.76552" lon="-3.32917">
        <ele>-79.802062</ele>
        <time>2020-12-29T10:27:18.000Z</time>
      </trkpt>
      <trkpt lat="47.76537" lon="-3.32918">
        <ele>-79.575271</ele>
        <time>2020-12-29T10:27:15.000Z</time>
      </trkpt>
      <trkpt lat="47.76526" lon="-3.32917">
        <ele>-79.41792</ele>
        <time>2020-12-29T10:27:13.000Z</time>
      </trkpt>
      <trkpt lat="47.7651" lon="-3.32917">
        <ele>-79.176145</ele>
        <time>2020-12-29T10:27:10.000Z</time>
      </trkpt>
      <trkpt lat="47.76485" lon="-3.32917">
        <ele>-78.795314</ele>
        <time>2020-12-29T10:27:05.000Z</time>
      </trkpt>
      <trkpt lat="47.76442" lon="-3.3291">
        <ele>-78.147029</ele>
        <time>2020-12-29T10:26:58.000Z</time>
      </trkpt>
      <trkpt lat="47.76402" lon="-3.32898">
        <ele>-77.528298</ele>
        <time>2020-12-29T10:26:51.000Z</time>
      </trkpt>
      <trkpt lat="47.7637" lon="-3.32884">
        <ele>-77.153418</ele>
        <time>2020-12-29T10:26:45.000Z</time>
      </trkpt>
      <trkpt lat="47.76355" lon="-3.32876">
        <ele>-76.985862</ele>
        <time>2020-12-29T10:26:42.000Z</time>
      </trkpt>
      <trkpt lat="47.76337" lon="-3.32864">
        <ele>-76.780307</ele>
        <time>2020-12-29T10:26:38.000Z</time>
      </trkpt>
      <trkpt lat="47.76328" lon="-3.32858">
        <ele>-76.684395</ele>
        <time>2020-12-29T10:26:36.000Z</time>
      </trkpt>
      <trkpt lat="47.76321" lon="-3.32855">
        <ele>-76.606334</ele>
        <time>2020-12-29T10:26:34.000Z</time>
      </trkpt>
      <trkpt lat="47.76311" lon="-3.32869">
        <ele>-76.461614</ele>
        <time>2020-12-29T10:26:29.000Z</time>
      </trkpt>
      <trkpt lat="47.76309" lon="-3.32875">
        <ele>-76.417845</ele>
        <time>2020-12-29T10:26:27.000Z</time>
      </trkpt>
      <trkpt lat="47.76306" lon="-3.32878">
        <ele>-76.378598</ele>
        <time>2020-12-29T10:26:25.000Z</time>
      </trkpt>
      <trkpt lat="47.76304" lon="-3.3288">
        <ele>-76.354044</ele>
        <time>2020-12-29T10:26:24.000Z</time>
      </trkpt>
      <trkpt lat="47.76293" lon="-3.32878">
        <ele>-76.24095</ele>
        <time>2020-12-29T10:26:20.000Z</time>
      </trkpt>
      <trkpt lat="47.76287" lon="-3.32875">
        <ele>-76.174379</ele>
        <time>2020-12-29T10:26:17.000Z</time>
      </trkpt>
      <trkpt lat="47.76284" lon="-3.32888">
        <ele>-76.075116</ele>
        <time>2020-12-29T10:26:14.000Z</time>
      </trkpt>
      <trkpt lat="47.76282" lon="-3.32895">
        <ele>-76.019408</ele>
        <time>2020-12-29T10:26:13.000Z</time>
      </trkpt>
      <trkpt lat="47.76277" lon="-3.32933">
        <ele>-75.751346</ele>
        <time>2020-12-29T10:26:09.000Z</time>
      </trkpt>
      <trkpt lat="47.76276" lon="-3.32943">
        <ele>-75.678327</ele>
        <time>2020-12-29T10:26:08.000Z</time>
      </trkpt>
      <trkpt lat="47.76271" lon="-3.33014">
        <ele>-74.611896</ele>
        <time>2020-12-29T10:26:01.000Z</time>
      </trkpt>
      <trkpt lat="47.76267" lon="-3.33071">
        <ele>-73.6394</ele>
        <time>2020-12-29T10:25:55.000Z</time>
      </trkpt>
      <trkpt lat="47.76266" lon="-3.33089">
        <ele>-73.321264</ele>
        <time>2020-12-29T10:25:53.000Z</time>
      </trkpt>
      <trkpt lat="47.76265" lon="-3.33099">
        <ele>-73.162341</ele>
        <time>2020-12-29T10:25:52.000Z</time>
      </trkpt>
      <trkpt lat="47.7626" lon="-3.33153">
        <ele>-72.234251</ele>
        <time>2020-12-29T10:25:46.000Z</time>
      </trkpt>
      <trkpt lat="47.76256" lon="-3.33214">
        <ele>-71.182249</ele>
        <time>2020-12-29T10:25:39.000Z</time>
      </trkpt>
      <trkpt lat="47.76251" lon="-3.33274">
        <ele>-70.554734</ele>
        <time>2020-12-29T10:25:32.000Z</time>
      </trkpt>
      <trkpt lat="47.76247" lon="-3.33317">
        <ele>-70.151292</ele>
        <time>2020-12-29T10:25:27.000Z</time>
      </trkpt>
      <trkpt lat="47.76245" lon="-3.33334">
        <ele>-69.989074</ele>
        <time>2020-12-29T10:25:25.000Z</time>
      </trkpt>
      <trkpt lat="47.76242" lon="-3.33379">
        <ele>-69.565866</ele>
        <time>2020-12-29T10:25:20.000Z</time>
      </trkpt>
      <trkpt lat="47.76241" lon="-3.33388">
        <ele>-69.481592</ele>
        <time>2020-12-29T10:25:19.000Z</time>
      </trkpt>
      <trkpt lat="47.76238" lon="-3.33441">
        <ele>-68.986337</ele>
        <time>2020-12-29T10:25:13.000Z</time>
      </trkpt>
      <trkpt lat="47.76232" lon="-3.33505">
        <ele>-68.346635</ele>
        <time>2020-12-29T10:25:06.000Z</time>
      </trkpt>
      <trkpt lat="47.76228" lon="-3.33557">
        <ele>-67.744764</ele>
        <time>2020-12-29T10:25:00.000Z</time>
      </trkpt>
      <trkpt lat="47.76228" lon="-3.33566">
        <ele>-67.651955</ele>
        <time>2020-12-29T10:24:59.000Z</time>
      </trkpt>
      <trkpt lat="47.76227" lon="-3.33582">
        <ele>-67.46802</ele>
        <time>2020-12-29T10:24:57.000Z</time>
      </trkpt>
      <trkpt lat="47.76226" lon="-3.33589">
        <ele>-67.376353</ele>
        <time>2020-12-29T10:24:56.000Z</time>
      </trkpt>
      <trkpt lat="47.76218" lon="-3.33626">
        <ele>-66.932635</ele>
        <time>2020-12-29T10:24:51.000Z</time>
      </trkpt>
      <trkpt lat="47.76218" lon="-3.33635">
        <ele>-66.838449</ele>
        <time>2020-12-29T10:24:50.000Z</time>
      </trkpt>
      <trkpt lat="47.76215" lon="-3.33681">
        <ele>-66.301648</ele>
        <time>2020-12-29T10:24:44.000Z</time>
      </trkpt>
      <trkpt lat="47.76213" lon="-3.33705">
        <ele>-66.025737</ele>
        <time>2020-12-29T10:24:40.000Z</time>
      </trkpt>
      <trkpt lat="47.76213" lon="-3.33709">
        <ele>-65.977592</ele>
        <time>2020-12-29T10:24:39.000Z</time>
      </trkpt>
      <trkpt lat="47.76213" lon="-3.33716">
        <ele>-65.896255</ele>
        <time>2020-12-29T10:24:07.000Z</time>
      </trkpt>
      <trkpt lat="47.76213" lon="-3.33717">
        <ele>-65.890652</ele>
        <time>2020-12-29T10:24:05.000Z</time>
      </trkpt>
      <trkpt lat="47.76213" lon="-3.33724">
        <ele>-65.810298</ele>
        <time>2020-12-29T10:24:03.000Z</time>
      </trkpt>
      <trkpt lat="47.76213" lon="-3.3373">
        <ele>-65.733543</ele>
        <time>2020-12-29T10:24:02.000Z</time>
      </trkpt>
      <trkpt lat="47.76211" lon="-3.33769">
        <ele>-65.374862</ele>
        <time>2020-12-29T10:23:58.000Z</time>
      </trkpt>
      <trkpt lat="47.76209" lon="-3.33799">
        <ele>-65.183275</ele>
        <time>2020-12-29T10:23:55.000Z</time>
      </trkpt>
      <trkpt lat="47.76208" lon="-3.33819">
        <ele>-65.056</ele>
        <time>2020-12-29T10:23:53.000Z</time>
      </trkpt>
      <trkpt lat="47.76203" lon="-3.33864">
        <ele>-64.774409</ele>
        <time>2020-12-29T10:23:48.000Z</time>
      </trkpt>
      <trkpt lat="47.76196" lon="-3.33936">
        <ele>-64.316437</ele>
        <time>2020-12-29T10:23:39.000Z</time>
      </trkpt>
      <trkpt lat="47.76195" lon="-3.33944">
        <ele>-64.267196</ele>
        <time>2020-12-29T10:23:38.000Z</time>
      </trkpt>
      <trkpt lat="47.76194" lon="-3.33959">
        <ele>-64.171315</ele>
        <time>2020-12-29T10:23:36.000Z</time>
      </trkpt>
      <trkpt lat="47.76193" lon="-3.3399">
        <ele>-63.980017</ele>
        <time>2020-12-29T10:23:32.000Z</time>
      </trkpt>
      <trkpt lat="47.76192" lon="-3.34043">
        <ele>-63.887282</ele>
        <time>2020-12-29T10:23:25.000Z</time>
      </trkpt>
      <trkpt lat="47.76191" lon="-3.34092">
        <ele>-64.05835</ele>
        <time>2020-12-29T10:23:19.000Z</time>
      </trkpt>
      <trkpt lat="47.7619" lon="-3.34108">
        <ele>-64.117424</ele>
        <time>2020-12-29T10:23:17.000Z</time>
      </trkpt>
      <trkpt lat="47.76189" lon="-3.34174">
        <ele>-64.352456</ele>
        <time>2020-12-29T10:23:09.000Z</time>
      </trkpt>
      <trkpt lat="47.76187" lon="-3.34232">
        <ele>-64.558272</ele>
        <time>2020-12-29T10:23:02.000Z</time>
      </trkpt>
      <trkpt lat="47.76185" lon="-3.34278">
        <ele>-64.7217</ele>
        <time>2020-12-29T10:22:56.000Z</time>
      </trkpt>
      <trkpt lat="47.76184" lon="-3.34328">
        <ele>-66.130224</ele>
        <time>2020-12-29T10:22:49.000Z</time>
      </trkpt>
      <trkpt lat="47.76184" lon="-3.34371">
        <ele>-67.515562</ele>
        <time>2020-12-29T10:22:42.000Z</time>
      </trkpt>
      <trkpt lat="47.76183" lon="-3.34396">
        <ele>-68.330789</ele>
        <time>2020-12-29T10:22:38.000Z</time>
      </trkpt>
      <trkpt lat="47.76182" lon="-3.34417">
        <ele>-69.003462</ele>
        <time>2020-12-29T10:22:35.000Z</time>
      </trkpt>
      <trkpt lat="47.76182" lon="-3.34437">
        <ele>-69.656008</ele>
        <time>2020-12-29T10:22:32.000Z</time>
      </trkpt>
      <trkpt lat="47.76182" lon="-3.34461">
        <ele>-70.441137</ele>
        <time>2020-12-29T10:22:28.000Z</time>
      </trkpt>
      <trkpt lat="47.76181" lon="-3.34473">
        <ele>-70.810903</ele>
        <time>2020-12-29T10:22:26.000Z</time>
      </trkpt>
      <trkpt lat="47.76178" lon="-3.34489">
        <ele>-71.34592</ele>
        <time>2020-12-29T10:22:23.000Z</time>
      </trkpt>
      <trkpt lat="47.76177" lon="-3.34505">
        <ele>-71.887575</ele>
        <time>2020-12-29T10:22:20.000Z</time>
      </trkpt>
      <trkpt lat="47.76177" lon="-3.34517">
        <ele>-72.280873</ele>
        <time>2020-12-29T10:22:18.000Z</time>
      </trkpt>
      <trkpt lat="47.76176" lon="-3.34537">
        <ele>-72.91211</ele>
        <time>2020-12-29T10:22:15.000Z</time>
      </trkpt>
      <trkpt lat="47.76175" lon="-3.34544">
        <ele>-73.133196</ele>
        <time>2020-12-29T10:22:14.000Z</time>
      </trkpt>
      <trkpt lat="47.76174" lon="-3.34564">
        <ele>-73.716699</ele>
        <time>2020-12-29T10:22:11.000Z</time>
      </trkpt>
      <trkpt lat="47.76174" lon="-3.34571">
        <ele>-73.900222</ele>
        <time>2020-12-29T10:22:10.000Z</time>
      </trkpt>
      <trkpt lat="47.76174" lon="-3.34578">
        <ele>-74.086602</ele>
        <time>2020-12-29T10:22:09.000Z</time>
      </trkpt>
      <trkpt lat="47.76173" lon="-3.34586">
        <ele>-74.271995</ele>
        <time>2020-12-29T10:22:08.000Z</time>
      </trkpt>
      <trkpt lat="47.76171" lon="-3.346">
        <ele>-74.64709</ele>
        <time>2020-12-29T10:22:06.000Z</time>
      </trkpt>
      <trkpt lat="47.76171" lon="-3.34607">
        <ele>-74.832483</ele>
        <time>2020-12-29T10:22:05.000Z</time>
      </trkpt>
      <trkpt lat="47.76169" lon="-3.34631">
        <ele>-75.446395</ele>
        <time>2020-12-29T10:22:02.000Z</time>
      </trkpt>
      <trkpt lat="47.76169" lon="-3.3464">
        <ele>-75.666734</ele>
        <time>2020-12-29T10:22:01.000Z</time>
      </trkpt>
      <trkpt lat="47.76168" lon="-3.34648">
        <ele>-75.88348</ele>
        <time>2020-12-29T10:22:00.000Z</time>
      </trkpt>
      <trkpt lat="47.76168" lon="-3.34672">
        <ele>-76.496045</ele>
        <time>2020-12-29T10:21:57.000Z</time>
      </trkpt>
      <trkpt lat="47.76168" lon="-3.34685">
        <ele>-76.831259</ele>
        <time>2020-12-29T10:21:55.000Z</time>
      </trkpt>
      <trkpt lat="47.76172" lon="-3.34697">
        <ele>-77.156163</ele>
        <time>2020-12-29T10:21:53.000Z</time>
      </trkpt>
      <trkpt lat="47.76178" lon="-3.3472">
        <ele>-77.786263</ele>
        <time>2020-12-29T10:21:48.000Z</time>
      </trkpt>
      <trkpt lat="47.76181" lon="-3.3473">
        <ele>-78.051002</ele>
        <time>2020-12-29T10:21:46.000Z</time>
      </trkpt>
      <trkpt lat="47.76187" lon="-3.34748">
        <ele>-78.58349</ele>
        <time>2020-12-29T10:21:42.000Z</time>
      </trkpt>
      <trkpt lat="47.76189" lon="-3.34753">
        <ele>-78.730846</ele>
        <time>2020-12-29T10:21:41.000Z</time>
      </trkpt>
      <trkpt lat="47.76201" lon="-3.34782">
        <ele>-79.600275</ele>
        <time>2020-12-29T10:21:36.000Z</time>
      </trkpt>
      <trkpt lat="47.76233" lon="-3.34825">
        <ele>-80.630566</ele>
        <time>2020-12-29T10:21:28.000Z</time>
      </trkpt>
      <trkpt lat="47.76272" lon="-3.34874">
        <ele>-81.377711</ele>
        <time>2020-12-29T10:21:19.000Z</time>
      </trkpt>
      <trkpt lat="47.76281" lon="-3.34886">
        <ele>-81.54869</ele>
        <time>2020-12-29T10:21:17.000Z</time>
      </trkpt>
      <trkpt lat="47.76293" lon="-3.34903">
        <ele>-81.787389</ele>
        <time>2020-12-29T10:21:14.000Z</time>
      </trkpt>
      <trkpt lat="47.76296" lon="-3.34908">
        <ele>-81.865434</ele>
        <time>2020-12-29T10:21:13.000Z</time>
      </trkpt>
      <trkpt lat="47.76305" lon="-3.34927">
        <ele>-82.08864</ele>
        <time>2020-12-29T10:21:10.000Z</time>
      </trkpt>
      <trkpt lat="47.76303" lon="-3.3495">
        <ele>-82.31297</ele>
        <time>2020-12-29T10:21:07.000Z</time>
      </trkpt>
      <trkpt lat="47.76301" lon="-3.34957">
        <ele>-82.390737</ele>
        <time>2020-12-29T10:21:06.000Z</time>
      </trkpt>
      <trkpt lat="47.76283" lon="-3.34988">
        <ele>-82.787653</ele>
        <time>2020-12-29T10:21:01.000Z</time>
      </trkpt>
      <trkpt lat="47.76274" lon="-3.35006">
        <ele>-82.933469</ele>
        <time>2020-12-29T10:20:58.000Z</time>
      </trkpt>
      <trkpt lat="47.7626" lon="-3.35029">
        <ele>-83.04368</ele>
        <time>2020-12-29T10:20:54.000Z</time>
      </trkpt>
      <trkpt lat="47.7623" lon="-3.35078">
        <ele>-83.28175</ele>
        <time>2020-12-29T10:20:46.000Z</time>
      </trkpt>
      <trkpt lat="47.76193" lon="-3.35137">
        <ele>-83.571877</ele>
        <time>2020-12-29T10:20:37.000Z</time>
      </trkpt>
      <trkpt lat="47.76156" lon="-3.35198">
        <ele>-83.795887</ele>
        <time>2020-12-29T10:20:28.000Z</time>
      </trkpt>
      <trkpt lat="47.76122" lon="-3.35255">
        <ele>-83.169892</ele>
        <time>2020-12-29T10:20:20.000Z</time>
      </trkpt>
      <trkpt lat="47.76113" lon="-3.3527">
        <ele>-83.003758</ele>
        <time>2020-12-29T10:20:18.000Z</time>
      </trkpt>
      <trkpt lat="47.76097" lon="-3.35301">
        <ele>-82.684079</ele>
        <time>2020-12-29T10:20:14.000Z</time>
      </trkpt>
      <trkpt lat="47.76084" lon="-3.35341">
        <ele>-82.310736</ele>
        <time>2020-12-29T10:20:09.000Z</time>
      </trkpt>
      <trkpt lat="47.76081" lon="-3.35365">
        <ele>-82.109245</ele>
        <time>2020-12-29T10:20:06.000Z</time>
      </trkpt>
      <trkpt lat="47.76078" lon="-3.35379">
        <ele>-81.988752</ele>
        <time>2020-12-29T10:20:04.000Z</time>
      </trkpt>
      <trkpt lat="47.76077" lon="-3.35386">
        <ele>-81.933915</ele>
        <time>2020-12-29T10:20:03.000Z</time>
      </trkpt>
      <trkpt lat="47.76082" lon="-3.35402">
        <ele>-81.785702</ele>
        <time>2020-12-29T10:20:00.000Z</time>
      </trkpt>
      <trkpt lat="47.76087" lon="-3.35419">
        <ele>-81.633731</ele>
        <time>2020-12-29T10:19:56.000Z</time>
      </trkpt>
      <trkpt lat="47.76092" lon="-3.35436">
        <ele>-81.650601</ele>
        <time>2020-12-29T10:19:52.000Z</time>
      </trkpt>
      <trkpt lat="47.76097" lon="-3.35447">
        <ele>-81.662513</ele>
        <time>2020-12-29T10:19:50.000Z</time>
      </trkpt>
      <trkpt lat="47.76114" lon="-3.35475">
        <ele>-81.695483</ele>
        <time>2020-12-29T10:19:45.000Z</time>
      </trkpt>
      <trkpt lat="47.76143" lon="-3.35524">
        <ele>-81.754058</ele>
        <time>2020-12-29T10:19:37.000Z</time>
      </trkpt>
      <trkpt lat="47.76165" lon="-3.35557">
        <ele>-81.795558</ele>
        <time>2020-12-29T10:19:31.000Z</time>
      </trkpt>
      <trkpt lat="47.7619" lon="-3.35599">
        <ele>-81.845245</ele>
        <time>2020-12-29T10:19:24.000Z</time>
      </trkpt>
      <trkpt lat="47.76207" lon="-3.35624">
        <ele>-81.875623</ele>
        <time>2020-12-29T10:19:19.000Z</time>
      </trkpt>
      <trkpt lat="47.76239" lon="-3.35681">
        <ele>-81.927499</ele>
        <time>2020-12-29T10:19:10.000Z</time>
      </trkpt>
      <trkpt lat="47.76263" lon="-3.35728">
        <ele>-81.967831</ele>
        <time>2020-12-29T10:19:03.000Z</time>
      </trkpt>
      <trkpt lat="47.76272" lon="-3.35756">
        <ele>-81.990062</ele>
        <time>2020-12-29T10:18:59.000Z</time>
      </trkpt>
      <trkpt lat="47.76274" lon="-3.35764">
        <ele>-81.995651</ele>
        <time>2020-12-29T10:18:58.000Z</time>
      </trkpt>
      <trkpt lat="47.76279" lon="-3.35815">
        <ele>-82.031462</ele>
        <time>2020-12-29T10:18:52.000Z</time>
      </trkpt>
      <trkpt lat="47.76275" lon="-3.35883">
        <ele>-81.810901</ele>
        <time>2020-12-29T10:18:44.000Z</time>
      </trkpt>
      <trkpt lat="47.76273" lon="-3.35907">
        <ele>-81.612712</ele>
        <time>2020-12-29T10:18:41.000Z</time>
      </trkpt>
      <trkpt lat="47.76272" lon="-3.35931">
        <ele>-81.417402</ele>
        <time>2020-12-29T10:18:38.000Z</time>
      </trkpt>
      <trkpt lat="47.76272" lon="-3.35939">
        <ele>-81.349564</ele>
        <time>2020-12-29T10:18:37.000Z</time>
      </trkpt>
      <trkpt lat="47.76264" lon="-3.35987">
        <ele>-80.946422</ele>
        <time>2020-12-29T10:18:31.000Z</time>
      </trkpt>
      <trkpt lat="47.76252" lon="-3.36033">
        <ele>-80.543594</ele>
        <time>2020-12-29T10:18:25.000Z</time>
      </trkpt>
      <trkpt lat="47.76251" lon="-3.3604">
        <ele>-80.480491</ele>
        <time>2020-12-29T10:18:24.000Z</time>
      </trkpt>
      <trkpt lat="47.76247" lon="-3.36054">
        <ele>-80.360652</ele>
        <time>2020-12-29T10:18:22.000Z</time>
      </trkpt>
      <trkpt lat="47.76244" lon="-3.36065">
        <ele>-80.261515</ele>
        <time>2020-12-29T10:18:20.000Z</time>
      </trkpt>
      <trkpt lat="47.76247" lon="-3.36075">
        <ele>-80.176516</ele>
        <time>2020-12-29T10:18:17.000Z</time>
      </trkpt>
      <trkpt lat="47.76259" lon="-3.36077">
        <ele>-80.031252</ele>
        <time>2020-12-29T10:18:13.000Z</time>
      </trkpt>
      <trkpt lat="47.7626" lon="-3.36079">
        <ele>-80.003457</ele>
        <time>2020-12-29T10:18:12.000Z</time>
      </trkpt>
      <trkpt lat="47.76262" lon="-3.36082">
        <ele>-79.97064</ele>
        <time>2020-12-29T10:18:04.000Z</time>
      </trkpt>
      <trkpt lat="47.76263" lon="-3.36084">
        <ele>-79.95028</ele>
        <time>2020-12-29T10:18:00.000Z</time>
      </trkpt>
      <trkpt lat="47.7627" lon="-3.36095">
        <ele>-79.773414</ele>
        <time>2020-12-29T10:17:56.000Z</time>
      </trkpt>
      <trkpt lat="47.76278" lon="-3.36105">
        <ele>-79.525911</ele>
        <time>2020-12-29T10:17:54.000Z</time>
      </trkpt>
      <trkpt lat="47.76289" lon="-3.36123">
        <ele>-79.108693</ele>
        <time>2020-12-29T10:17:51.000Z</time>
      </trkpt>
      <trkpt lat="47.76293" lon="-3.36129">
        <ele>-78.965729</ele>
        <time>2020-12-29T10:17:50.000Z</time>
      </trkpt>
      <trkpt lat="47.76303" lon="-3.36146">
        <ele>-78.581028</ele>
        <time>2020-12-29T10:17:47.000Z</time>
      </trkpt>
      <trkpt lat="47.76305" lon="-3.36152">
        <ele>-78.467486</ele>
        <time>2020-12-29T10:17:46.000Z</time>
      </trkpt>
      <trkpt lat="47.76311" lon="-3.36169">
        <ele>-78.144348</ele>
        <time>2020-12-29T10:17:42.000Z</time>
      </trkpt>
      <trkpt lat="47.7631" lon="-3.36178">
        <ele>-77.992007</ele>
        <time>2020-12-29T10:17:40.000Z</time>
      </trkpt>
      <trkpt lat="47.76306" lon="-3.36185">
        <ele>-77.837589</ele>
        <time>2020-12-29T10:17:38.000Z</time>
      </trkpt>
      <trkpt lat="47.76289" lon="-3.3621">
        <ele>-77.237561</ele>
        <time>2020-12-29T10:17:33.000Z</time>
      </trkpt>
      <trkpt lat="47.76269" lon="-3.36238">
        <ele>-76.551153</ele>
        <time>2020-12-29T10:17:28.000Z</time>
      </trkpt>
      <trkpt lat="47.76265" lon="-3.36244">
        <ele>-76.419729</ele>
        <time>2020-12-29T10:17:27.000Z</time>
      </trkpt>
      <trkpt lat="47.7625" lon="-3.36266">
        <ele>-75.876788</ele>
        <time>2020-12-29T10:17:23.000Z</time>
      </trkpt>
      <trkpt lat="47.76243" lon="-3.36277">
        <ele>-75.619292</ele>
        <time>2020-12-29T10:17:21.000Z</time>
      </trkpt>
      <trkpt lat="47.76235" lon="-3.36294">
        <ele>-75.33945</ele>
        <time>2020-12-29T10:17:18.000Z</time>
      </trkpt>
      <trkpt lat="47.76233" lon="-3.363">
        <ele>-75.31964</ele>
        <time>2020-12-29T10:17:17.000Z</time>
      </trkpt>
      <trkpt lat="47.76205" lon="-3.36334">
        <ele>-75.171731</ele>
        <time>2020-12-29T10:17:11.000Z</time>
      </trkpt>
      <trkpt lat="47.762" lon="-3.3634">
        <ele>-75.146237</ele>
        <time>2020-12-29T10:17:10.000Z</time>
      </trkpt>
      <trkpt lat="47.76158" lon="-3.36392">
        <ele>-74.920255</ele>
        <time>2020-12-29T10:17:01.000Z</time>
      </trkpt>
      <trkpt lat="47.76139" lon="-3.36414">
        <ele>-74.821214</ele>
        <time>2020-12-29T10:16:57.000Z</time>
      </trkpt>
      <trkpt lat="47.76112" lon="-3.36447">
        <ele>-74.679338</ele>
        <time>2020-12-29T10:16:51.000Z</time>
      </trkpt>
      <trkpt lat="47.76069" lon="-3.36501">
        <ele>-75.248558</ele>
        <time>2020-12-29T10:16:41.000Z</time>
      </trkpt>
      <trkpt lat="47.76031" lon="-3.36542">
        <ele>-75.979319</ele>
        <time>2020-12-29T10:16:33.000Z</time>
      </trkpt>
      <trkpt lat="47.76018" lon="-3.36558">
        <ele>-76.254756</ele>
        <time>2020-12-29T10:16:30.000Z</time>
      </trkpt>
      <trkpt lat="47.76009" lon="-3.36569">
        <ele>-76.430295</ele>
        <time>2020-12-29T10:16:28.000Z</time>
      </trkpt>
      <trkpt lat="47.75997" lon="-3.36584">
        <ele>-76.680678</ele>
        <time>2020-12-29T10:16:24.000Z</time>
      </trkpt>
      <trkpt lat="47.75994" lon="-3.366">
        <ele>-76.847464</ele>
        <time>2020-12-29T10:16:20.000Z</time>
      </trkpt>
      <trkpt lat="47.75994" lon="-3.36604">
        <ele>-76.898358</ele>
        <time>2020-12-29T10:16:19.000Z</time>
      </trkpt>
      <trkpt lat="47.75996" lon="-3.36615">
        <ele>-77.018496</ele>
        <time>2020-12-29T10:16:17.000Z</time>
      </trkpt>
      <trkpt lat="47.76004" lon="-3.36623">
        <ele>-77.163567</ele>
        <time>2020-12-29T10:16:15.000Z</time>
      </trkpt>
      <trkpt lat="47.76009" lon="-3.36624">
        <ele>-77.24598</ele>
        <time>2020-12-29T10:16:14.000Z</time>
      </trkpt>
      <trkpt lat="47.76019" lon="-3.36623">
        <ele>-77.410043</ele>
        <time>2020-12-29T10:16:12.000Z</time>
      </trkpt>
      <trkpt lat="47.7603" lon="-3.36624">
        <ele>-77.65168</ele>
        <time>2020-12-29T10:16:10.000Z</time>
      </trkpt>
      <trkpt lat="47.76041" lon="-3.36626">
        <ele>-77.913598</ele>
        <time>2020-12-29T10:16:08.000Z</time>
      </trkpt>
      <trkpt lat="47.76063" lon="-3.36628">
        <ele>-78.452812</ele>
        <time>2020-12-29T10:16:04.000Z</time>
      </trkpt>
      <trkpt lat="47.76069" lon="-3.36629">
        <ele>-78.592841</ele>
        <time>2020-12-29T10:16:03.000Z</time>
      </trkpt>
      <trkpt lat="47.76084" lon="-3.36627">
        <ele>-78.951242</ele>
        <time>2020-12-29T10:16:00.000Z</time>
      </trkpt>
      <trkpt lat="47.76088" lon="-3.36624">
        <ele>-79.066659</ele>
        <time>2020-12-29T10:15:59.000Z</time>
      </trkpt>
      <trkpt lat="47.76101" lon="-3.36612">
        <ele>-79.432256</ele>
        <time>2020-12-29T10:15:56.000Z</time>
      </trkpt>
      <trkpt lat="47.76108" lon="-3.36602">
        <ele>-79.663452</ele>
        <time>2020-12-29T10:15:54.000Z</time>
      </trkpt>
      <trkpt lat="47.76117" lon="-3.3658">
        <ele>-80.083743</ele>
        <time>2020-12-29T10:15:50.000Z</time>
      </trkpt>
      <trkpt lat="47.76118" lon="-3.36576">
        <ele>-80.151413</ele>
        <time>2020-12-29T10:15:49.000Z</time>
      </trkpt>
      <trkpt lat="47.76121" lon="-3.36574">
        <ele>-80.245762</ele>
        <time>2020-12-29T10:15:47.000Z</time>
      </trkpt>
      <trkpt lat="47.76128" lon="-3.36582">
        <ele>-80.456634</ele>
        <time>2020-12-29T10:15:44.000Z</time>
      </trkpt>
      <trkpt lat="47.76131" lon="-3.36586">
        <ele>-80.560327</ele>
        <time>2020-12-29T10:15:43.000Z</time>
      </trkpt>
      <trkpt lat="47.76144" lon="-3.36604">
        <ele>-80.995055</ele>
        <time>2020-12-29T10:15:39.000Z</time>
      </trkpt>
      <trkpt lat="47.76167" lon="-3.36627">
        <ele>-81.651464</ele>
        <time>2020-12-29T10:15:34.000Z</time>
      </trkpt>
      <trkpt lat="47.76172" lon="-3.36631">
        <ele>-81.780366</ele>
        <time>2020-12-29T10:15:33.000Z</time>
      </trkpt>
      <trkpt lat="47.76187" lon="-3.36639">
        <ele>-81.754546</ele>
        <time>2020-12-29T10:15:30.000Z</time>
      </trkpt>
      <trkpt lat="47.76191" lon="-3.3664">
        <ele>-81.746301</ele>
        <time>2020-12-29T10:15:29.000Z</time>
      </trkpt>
      <trkpt lat="47.76235" lon="-3.36658">
        <ele>-81.672085</ele>
        <time>2020-12-29T10:15:21.000Z</time>
      </trkpt>
      <trkpt lat="47.76285" lon="-3.36679">
        <ele>-81.586332</ele>
        <time>2020-12-29T10:15:12.000Z</time>
      </trkpt>
      <trkpt lat="47.76337" lon="-3.36702">
        <ele>-81.49776</ele>
        <time>2020-12-29T10:15:03.000Z</time>
      </trkpt>
      <trkpt lat="47.76354" lon="-3.3671">
        <ele>-81.321103</ele>
        <time>2020-12-29T10:15:00.000Z</time>
      </trkpt>
      <trkpt lat="47.76382" lon="-3.36727">
        <ele>-80.844634</ele>
        <time>2020-12-29T10:14:55.000Z</time>
      </trkpt>
      <trkpt lat="47.76393" lon="-3.36734">
        <ele>-80.656274</ele>
        <time>2020-12-29T10:14:53.000Z</time>
      </trkpt>
      <trkpt lat="47.76408" lon="-3.36744">
        <ele>-80.385293</ele>
        <time>2020-12-29T10:14:50.000Z</time>
      </trkpt>
      <trkpt lat="47.76414" lon="-3.36746">
        <ele>-80.299909</ele>
        <time>2020-12-29T10:14:49.000Z</time>
      </trkpt>
      <trkpt lat="47.76426" lon="-3.36759">
        <ele>-80.058694</ele>
        <time>2020-12-29T10:14:46.000Z</time>
      </trkpt>
      <trkpt lat="47.7643" lon="-3.36779">
        <ele>-79.838008</ele>
        <time>2020-12-29T10:14:43.000Z</time>
      </trkpt>
      <trkpt lat="47.76426" lon="-3.36803">
        <ele>-79.576174</ele>
        <time>2020-12-29T10:14:39.000Z</time>
      </trkpt>
      <trkpt lat="47.76413" lon="-3.36825">
        <ele>-79.259973</ele>
        <time>2020-12-29T10:14:34.000Z</time>
      </trkpt>
      <trkpt lat="47.76409" lon="-3.3683">
        <ele>-79.184881</ele>
        <time>2020-12-29T10:14:33.000Z</time>
      </trkpt>
      <trkpt lat="47.76398" lon="-3.36859">
        <ele>-78.830829</ele>
        <time>2020-12-29T10:14:29.000Z</time>
      </trkpt>
      <trkpt lat="47.76391" lon="-3.36894">
        <ele>-78.364673</ele>
        <time>2020-12-29T10:14:25.000Z</time>
      </trkpt>
      <trkpt lat="47.76389" lon="-3.36903">
        <ele>-78.232463</ele>
        <time>2020-12-29T10:14:24.000Z</time>
      </trkpt>
      <trkpt lat="47.76388" lon="-3.36912">
        <ele>-78.096213</ele>
        <time>2020-12-29T10:14:23.000Z</time>
      </trkpt>
      <trkpt lat="47.76387" lon="-3.36921">
        <ele>-77.954892</ele>
        <time>2020-12-29T10:14:22.000Z</time>
      </trkpt>
      <trkpt lat="47.76383" lon="-3.3695">
        <ele>-77.520248</ele>
        <time>2020-12-29T10:14:19.000Z</time>
      </trkpt>
      <trkpt lat="47.76381" lon="-3.3696">
        <ele>-77.383265</ele>
        <time>2020-12-29T10:14:18.000Z</time>
      </trkpt>
      <trkpt lat="47.7638" lon="-3.36969">
        <ele>-77.238663</ele>
        <time>2020-12-29T10:14:17.000Z</time>
      </trkpt>
      <trkpt lat="47.76377" lon="-3.36987">
        <ele>-76.967918</ele>
        <time>2020-12-29T10:14:15.000Z</time>
      </trkpt>
      <trkpt lat="47.76377" lon="-3.36996">
        <ele>-76.842116</ele>
        <time>2020-12-29T10:14:14.000Z</time>
      </trkpt>
      <trkpt lat="47.76372" lon="-3.37021">
        <ele>-76.465711</ele>
        <time>2020-12-29T10:14:11.000Z</time>
      </trkpt>
      <trkpt lat="47.76369" lon="-3.37047">
        <ele>-76.074746</ele>
        <time>2020-12-29T10:14:08.000Z</time>
      </trkpt>
      <trkpt lat="47.76367" lon="-3.37055">
        <ele>-75.951056</ele>
        <time>2020-12-29T10:14:07.000Z</time>
      </trkpt>
      <trkpt lat="47.76365" lon="-3.3707">
        <ele>-75.728472</ele>
        <time>2020-12-29T10:14:05.000Z</time>
      </trkpt>
      <trkpt lat="47.76363" lon="-3.37084">
        <ele>-75.521518</ele>
        <time>2020-12-29T10:14:03.000Z</time>
      </trkpt>
      <trkpt lat="47.76361" lon="-3.37107">
        <ele>-75.179825</ele>
        <time>2020-12-29T10:13:59.000Z</time>
      </trkpt>
      <trkpt lat="47.7636" lon="-3.3711">
        <ele>-75.127526</ele>
        <time>2020-12-29T10:13:58.000Z</time>
      </trkpt>
      <trkpt lat="47.76356" lon="-3.37115">
        <ele>-75.010601</ele>
        <time>2020-12-29T10:13:55.000Z</time>
      </trkpt>
      <trkpt lat="47.76353" lon="-3.37118">
        <ele>-74.940742</ele>
        <time>2020-12-29T10:13:54.000Z</time>
      </trkpt>
      <trkpt lat="47.7634" lon="-3.37143">
        <ele>-74.783869</ele>
        <time>2020-12-29T10:13:49.000Z</time>
      </trkpt>
      <trkpt lat="47.76335" lon="-3.37155">
        <ele>-74.846041</ele>
        <time>2020-12-29T10:13:47.000Z</time>
      </trkpt>
      <trkpt lat="47.76326" lon="-3.37174">
        <ele>-74.951331</ele>
        <time>2020-12-29T10:13:44.000Z</time>
      </trkpt>
      <trkpt lat="47.76304" lon="-3.37222">
        <ele>-75.213245</ele>
        <time>2020-12-29T10:13:37.000Z</time>
      </trkpt>
      <trkpt lat="47.76278" lon="-3.37281">
        <ele>-75.530943</ele>
        <time>2020-12-29T10:13:29.000Z</time>
      </trkpt>
      <trkpt lat="47.76256" lon="-3.37327">
        <ele>-75.78094</ele>
        <time>2020-12-29T10:13:23.000Z</time>
      </trkpt>
      <trkpt lat="47.76235" lon="-3.37376">
        <ele>-75.4567</ele>
        <time>2020-12-29T10:13:17.000Z</time>
      </trkpt>
      <trkpt lat="47.76232" lon="-3.37385">
        <ele>-75.29532</ele>
        <time>2020-12-29T10:13:16.000Z</time>
      </trkpt>
      <trkpt lat="47.76221" lon="-3.37411">
        <ele>-74.816398</ele>
        <time>2020-12-29T10:13:13.000Z</time>
      </trkpt>
      <trkpt lat="47.76207" lon="-3.37445">
        <ele>-74.195386</ele>
        <time>2020-12-29T10:13:09.000Z</time>
      </trkpt>
      <trkpt lat="47.76193" lon="-3.37476">
        <ele>-73.602045</ele>
        <time>2020-12-29T10:13:05.000Z</time>
      </trkpt>
      <trkpt lat="47.76187" lon="-3.37491">
        <ele>-73.332573</ele>
        <time>2020-12-29T10:13:03.000Z</time>
      </trkpt>
      <trkpt lat="47.7618" lon="-3.37506">
        <ele>-73.052746</ele>
        <time>2020-12-29T10:13:01.000Z</time>
      </trkpt>
      <trkpt lat="47.76176" lon="-3.37521">
        <ele>-72.789517</ele>
        <time>2020-12-29T10:12:59.000Z</time>
      </trkpt>
      <trkpt lat="47.76174" lon="-3.3753">
        <ele>-72.651311</ele>
        <time>2020-12-29T10:12:58.000Z</time>
      </trkpt>
      <trkpt lat="47.76173" lon="-3.37538">
        <ele>-72.51619</ele>
        <time>2020-12-29T10:12:57.000Z</time>
      </trkpt>
      <trkpt lat="47.76172" lon="-3.37547">
        <ele>-72.382464</ele>
        <time>2020-12-29T10:12:56.000Z</time>
      </trkpt>
      <trkpt lat="47.76171" lon="-3.37563">
        <ele>-72.122763</ele>
        <time>2020-12-29T10:12:54.000Z</time>
      </trkpt>
      <trkpt lat="47.76171" lon="-3.37571">
        <ele>-71.998924</ele>
        <time>2020-12-29T10:12:53.000Z</time>
      </trkpt>
      <trkpt lat="47.76178" lon="-3.37594">
        <ele>-71.500082</ele>
        <time>2020-12-29T10:12:49.000Z</time>
      </trkpt>
      <trkpt lat="47.76181" lon="-3.37609">
        <ele>-71.081031</ele>
        <time>2020-12-29T10:12:46.000Z</time>
      </trkpt>
      <trkpt lat="47.76175" lon="-3.37624">
        <ele>-70.593358</ele>
        <time>2020-12-29T10:12:42.000Z</time>
      </trkpt>
      <trkpt lat="47.7617" lon="-3.37641">
        <ele>-70.094236</ele>
        <time>2020-12-29T10:12:39.000Z</time>
      </trkpt>
      <trkpt lat="47.7617" lon="-3.37648">
        <ele>-69.880023</ele>
        <time>2020-12-29T10:12:38.000Z</time>
      </trkpt>
      <trkpt lat="47.7617" lon="-3.37665">
        <ele>-69.418436</ele>
        <time>2020-12-29T10:12:36.000Z</time>
      </trkpt>
      <trkpt lat="47.76169" lon="-3.37689">
        <ele>-68.753145</ele>
        <time>2020-12-29T10:12:33.000Z</time>
      </trkpt>
      <trkpt lat="47.7617" lon="-3.3771">
        <ele>-68.192462</ele>
        <time>2020-12-29T10:12:31.000Z</time>
      </trkpt>
      <trkpt lat="47.76171" lon="-3.37721">
        <ele>-67.893643</ele>
        <time>2020-12-29T10:12:30.000Z</time>
      </trkpt>
      <trkpt lat="47.76174" lon="-3.37742">
        <ele>-67.289865</ele>
        <time>2020-12-29T10:12:28.000Z</time>
      </trkpt>
      <trkpt lat="47.76179" lon="-3.37764">
        <ele>-66.654709</ele>
        <time>2020-12-29T10:12:26.000Z</time>
      </trkpt>
      <trkpt lat="47.76188" lon="-3.37796">
        <ele>-65.70945</ele>
        <time>2020-12-29T10:12:23.000Z</time>
      </trkpt>
      <trkpt lat="47.76194" lon="-3.37816">
        <ele>-65.103062</ele>
        <time>2020-12-29T10:12:21.000Z</time>
      </trkpt>
      <trkpt lat="47.76199" lon="-3.37836">
        <ele>-64.51734</ele>
        <time>2020-12-29T10:12:19.000Z</time>
      </trkpt>
      <trkpt lat="47.76208" lon="-3.37871">
        <ele>-64.087156</ele>
        <time>2020-12-29T10:12:15.000Z</time>
      </trkpt>
      <trkpt lat="47.76212" lon="-3.37889">
        <ele>-63.921112</ele>
        <time>2020-12-29T10:12:13.000Z</time>
      </trkpt>
      <trkpt lat="47.76215" lon="-3.37905">
        <ele>-63.775527</ele>
        <time>2020-12-29T10:12:11.000Z</time>
      </trkpt>
      <trkpt lat="47.76216" lon="-3.37911">
        <ele>-63.714678</ele>
        <time>2020-12-29T10:12:10.000Z</time>
      </trkpt>
      <trkpt lat="47.7622" lon="-3.37929">
        <ele>-63.549908</ele>
        <time>2020-12-29T10:12:07.000Z</time>
      </trkpt>
      <trkpt lat="47.76221" lon="-3.37935">
        <ele>-63.498251</ele>
        <time>2020-12-29T10:12:06.000Z</time>
      </trkpt>
      <trkpt lat="47.76226" lon="-3.37961">
        <ele>-63.256862</ele>
        <time>2020-12-29T10:12:01.000Z</time>
      </trkpt>
      <trkpt lat="47.76227" lon="-3.37965">
        <ele>-63.220888</ele>
        <time>2020-12-29T10:12:00.000Z</time>
      </trkpt>
      <trkpt lat="47.76231" lon="-3.37974">
        <ele>-63.124962</ele>
        <time>2020-12-29T10:10:15.000Z</time>
      </trkpt>
      <trkpt lat="47.76231" lon="-3.37974">
        <ele>-63.120564</ele>
        <time>2020-12-29T10:10:13.000Z</time>
      </trkpt>
      <trkpt lat="47.76226" lon="-3.37986">
        <ele>-63.002404</ele>
        <time>2020-12-29T10:10:09.000Z</time>
      </trkpt>
      <trkpt lat="47.76218" lon="-3.37997">
        <ele>-62.85297</ele>
        <time>2020-12-29T10:10:06.000Z</time>
      </trkpt>
      <trkpt lat="47.7621" lon="-3.38003">
        <ele>-62.732642</ele>
        <time>2020-12-29T10:10:04.000Z</time>
      </trkpt>
      <trkpt lat="47.76205" lon="-3.38006">
        <ele>-62.672049</ele>
        <time>2020-12-29T10:10:03.000Z</time>
      </trkpt>
      <trkpt lat="47.76198" lon="-3.3801">
        <ele>-62.573169</ele>
        <time>2020-12-29T10:10:01.000Z</time>
      </trkpt>
      <trkpt lat="47.76201" lon="-3.38031">
        <ele>-62.388611</ele>
        <time>2020-12-29T10:09:57.000Z</time>
      </trkpt>
      <trkpt lat="47.76201" lon="-3.38048">
        <ele>-62.236858</ele>
        <time>2020-12-29T10:09:55.000Z</time>
      </trkpt>
      <trkpt lat="47.76199" lon="-3.38057">
        <ele>-62.15364</ele>
        <time>2020-12-29T10:09:54.000Z</time>
      </trkpt>
      <trkpt lat="47.76192" lon="-3.38075">
        <ele>-61.884747</ele>
        <time>2020-12-29T10:09:52.000Z</time>
      </trkpt>
      <trkpt lat="47.76173" lon="-3.38122">
        <ele>-60.431852</ele>
        <time>2020-12-29T10:09:47.000Z</time>
      </trkpt>
      <trkpt lat="47.76169" lon="-3.38132">
        <ele>-60.132011</ele>
        <time>2020-12-29T10:09:46.000Z</time>
      </trkpt>
      <trkpt lat="47.76166" lon="-3.38141">
        <ele>-59.843474</ele>
        <time>2020-12-29T10:09:45.000Z</time>
      </trkpt>
      <trkpt lat="47.76157" lon="-3.38158">
        <ele>-59.263706</ele>
        <time>2020-12-29T10:09:43.000Z</time>
      </trkpt>
      <trkpt lat="47.76148" lon="-3.38174">
        <ele>-58.722362</ele>
        <time>2020-12-29T10:09:41.000Z</time>
      </trkpt>
      <trkpt lat="47.76126" lon="-3.38208">
        <ele>-57.478611</ele>
        <time>2020-12-29T10:09:36.000Z</time>
      </trkpt>
      <trkpt lat="47.76122" lon="-3.38214">
        <ele>-57.249545</ele>
        <time>2020-12-29T10:09:35.000Z</time>
      </trkpt>
      <trkpt lat="47.76109" lon="-3.38228">
        <ele>-56.600408</ele>
        <time>2020-12-29T10:09:32.000Z</time>
      </trkpt>
      <trkpt lat="47.76094" lon="-3.38241">
        <ele>-55.929549</ele>
        <time>2020-12-29T10:09:29.000Z</time>
      </trkpt>
      <trkpt lat="47.76089" lon="-3.38246">
        <ele>-55.704217</ele>
        <time>2020-12-29T10:09:28.000Z</time>
      </trkpt>
      <trkpt lat="47.76074" lon="-3.3826">
        <ele>-55.013957</ele>
        <time>2020-12-29T10:09:25.000Z</time>
      </trkpt>
      <trkpt lat="47.76066" lon="-3.38266">
        <ele>-54.821058</ele>
        <time>2020-12-29T10:09:23.000Z</time>
      </trkpt>
      <trkpt lat="47.76049" lon="-3.38279">
        <ele>-54.578033</ele>
        <time>2020-12-29T10:09:18.000Z</time>
      </trkpt>
      <trkpt lat="47.76043" lon="-3.38285">
        <ele>-54.491373</ele>
        <time>2020-12-29T10:09:16.000Z</time>
      </trkpt>
      <trkpt lat="47.76037" lon="-3.3829">
        <ele>-54.39744</ele>
        <time>2020-12-29T10:09:14.000Z</time>
      </trkpt>
      <trkpt lat="47.76028" lon="-3.38297">
        <ele>-54.265569</ele>
        <time>2020-12-29T10:09:10.000Z</time>
      </trkpt>
      <trkpt lat="47.76025" lon="-3.38299">
        <ele>-54.227629</ele>
        <time>2020-12-29T10:09:08.000Z</time>
      </trkpt>
      <trkpt lat="47.76024" lon="-3.38304">
        <ele>-54.186196</ele>
        <time>2020-12-29T10:09:06.000Z</time>
      </trkpt>
      <trkpt lat="47.76029" lon="-3.38331">
        <ele>-53.939099</ele>
        <time>2020-12-29T10:09:01.000Z</time>
      </trkpt>
      <trkpt lat="47.76033" lon="-3.38347">
        <ele>-53.791829</ele>
        <time>2020-12-29T10:08:58.000Z</time>
      </trkpt>
      <trkpt lat="47.76034" lon="-3.38352">
        <ele>-53.749741</ele>
        <time>2020-12-29T10:08:57.000Z</time>
      </trkpt>
      <trkpt lat="47.76034" lon="-3.38374">
        <ele>-53.557463</ele>
        <time>2020-12-29T10:08:52.000Z</time>
      </trkpt>
      <trkpt lat="47.76035" lon="-3.38382">
        <ele>-53.491192</ele>
        <time>2020-12-29T10:08:50.000Z</time>
      </trkpt>
      <trkpt lat="47.76035" lon="-3.38391">
        <ele>-53.414297</ele>
        <time>2020-12-29T10:08:45.000Z</time>
      </trkpt>
      <trkpt lat="47.76034" lon="-3.38393">
        <ele>-53.386934</ele>
        <time>2020-12-29T10:08:42.000Z</time>
      </trkpt>
      <trkpt lat="47.76033" lon="-3.38394">
        <ele>-53.369441</ele>
        <time>2020-12-29T10:08:41.000Z</time>
      </trkpt>
      <trkpt lat="47.76031" lon="-3.38395">
        <ele>-53.340759</ele>
        <time>2020-12-29T10:08:40.000Z</time>
      </trkpt>
      <trkpt lat="47.76016" lon="-3.38402">
        <ele>-53.142682</ele>
        <time>2020-12-29T10:08:35.000Z</time>
      </trkpt>
      <trkpt lat="47.76004" lon="-3.38405">
        <ele>-52.991103</ele>
        <time>2020-12-29T10:08:32.000Z</time>
      </trkpt>
      <trkpt lat="47.75987" lon="-3.38408">
        <ele>-52.771249</ele>
        <time>2020-12-29T10:08:28.000Z</time>
      </trkpt>
      <trkpt lat="47.75954" lon="-3.38416">
        <ele>-52.70852</ele>
        <time>2020-12-29T10:08:21.000Z</time>
      </trkpt>
      <trkpt lat="47.75949" lon="-3.38417">
        <ele>-52.731708</ele>
        <time>2020-12-29T10:08:20.000Z</time>
      </trkpt>
      <trkpt lat="47.7594" lon="-3.38419">
        <ele>-52.781085</ele>
        <time>2020-12-29T10:08:17.000Z</time>
      </trkpt>
      <trkpt lat="47.75937" lon="-3.38422">
        <ele>-52.79528</ele>
        <time>2020-12-29T10:08:16.000Z</time>
      </trkpt>
      <trkpt lat="47.75937" lon="-3.38438">
        <ele>-52.848536</ele>
        <time>2020-12-29T10:08:13.000Z</time>
      </trkpt>
      <trkpt lat="47.75937" lon="-3.38445">
        <ele>-52.873314</ele>
        <time>2020-12-29T10:08:12.000Z</time>
      </trkpt>
      <trkpt lat="47.75939" lon="-3.38477">
        <ele>-52.979128</ele>
        <time>2020-12-29T10:08:08.000Z</time>
      </trkpt>
      <trkpt lat="47.75941" lon="-3.38498">
        <ele>-53.050783</ele>
        <time>2020-12-29T10:08:05.000Z</time>
      </trkpt>
      <trkpt lat="47.75942" lon="-3.38517">
        <ele>-53.116375</ele>
        <time>2020-12-29T10:08:02.000Z</time>
      </trkpt>
      <trkpt lat="47.75944" lon="-3.3853">
        <ele>-53.159284</ele>
        <time>2020-12-29T10:08:00.000Z</time>
      </trkpt>
      <trkpt lat="47.75948" lon="-3.38554">
        <ele>-53.240963</ele>
        <time>2020-12-29T10:07:56.000Z</time>
      </trkpt>
      <trkpt lat="47.75949" lon="-3.38567">
        <ele>-53.285094</ele>
        <time>2020-12-29T10:07:53.000Z</time>
      </trkpt>
      <trkpt lat="47.75948" lon="-3.38568">
        <ele>-53.292333</ele>
        <time>2020-12-29T10:07:52.000Z</time>
      </trkpt>
      <trkpt lat="47.75942" lon="-3.38567">
        <ele>-53.323105</ele>
        <time>2020-12-29T10:07:49.000Z</time>
      </trkpt>
      <trkpt lat="47.75933" lon="-3.38563">
        <ele>-53.371953</ele>
        <time>2020-12-29T10:07:46.000Z</time>
      </trkpt>
      <trkpt lat="47.7593" lon="-3.38561">
        <ele>-53.388943</ele>
        <time>2020-12-29T10:07:45.000Z</time>
      </trkpt>
      <trkpt lat="47.75926" lon="-3.3856">
        <ele>-53.406897</ele>
        <time>2020-12-29T10:07:44.000Z</time>
      </trkpt>
      <trkpt lat="47.75913" lon="-3.38563">
        <ele>-53.475276</ele>
        <time>2020-12-29T10:07:40.000Z</time>
      </trkpt>
      <trkpt lat="47.75908" lon="-3.38572">
        <ele>-53.495279</ele>
        <time>2020-12-29T10:07:38.000Z</time>
      </trkpt>
      <trkpt lat="47.75906" lon="-3.38587">
        <ele>-53.476093</ele>
        <time>2020-12-29T10:07:36.000Z</time>
      </trkpt>
      <trkpt lat="47.75902" lon="-3.3862">
        <ele>-53.430709</ele>
        <time>2020-12-29T10:07:32.000Z</time>
      </trkpt>
      <trkpt lat="47.75897" lon="-3.38651">
        <ele>-53.388707</ele>
        <time>2020-12-29T10:07:28.000Z</time>
      </trkpt>
      <trkpt lat="47.75888" lon="-3.38694">
        <ele>-53.328946</ele>
        <time>2020-12-29T10:07:22.000Z</time>
      </trkpt>
      <trkpt lat="47.7587" lon="-3.38741">
        <ele>-53.257413</ele>
        <time>2020-12-29T10:07:14.000Z</time>
      </trkpt>
      <trkpt lat="47.75855" lon="-3.38768">
        <ele>-53.211236</ele>
        <time>2020-12-29T10:07:09.000Z</time>
      </trkpt>
      <trkpt lat="47.75853" lon="-3.38774">
        <ele>-53.202217</ele>
        <time>2020-12-29T10:07:08.000Z</time>
      </trkpt>
      <trkpt lat="47.75848" lon="-3.38784">
        <ele>-53.185934</ele>
        <time>2020-12-29T10:07:06.000Z</time>
      </trkpt>
      <trkpt lat="47.75846" lon="-3.38789">
        <ele>-53.178314</ele>
        <time>2020-12-29T10:07:05.000Z</time>
      </trkpt>
      <trkpt lat="47.75847" lon="-3.38798">
        <ele>-53.16646</ele>
        <time>2020-12-29T10:07:03.000Z</time>
      </trkpt>
      <trkpt lat="47.75855" lon="-3.38807">
        <ele>-53.146158</ele>
        <time>2020-12-29T10:07:00.000Z</time>
      </trkpt>
      <trkpt lat="47.75862" lon="-3.3882">
        <ele>-53.144105</ele>
        <time>2020-12-29T10:06:56.000Z</time>
      </trkpt>
      <trkpt lat="47.75858" lon="-3.38835">
        <ele>-53.142061</ele>
        <time>2020-12-29T10:06:52.000Z</time>
      </trkpt>
      <trkpt lat="47.75849" lon="-3.38861">
        <ele>-53.138306</ele>
        <time>2020-12-29T10:06:47.000Z</time>
      </trkpt>
      <trkpt lat="47.75845" lon="-3.38872">
        <ele>-53.136722</ele>
        <time>2020-12-29T10:06:45.000Z</time>
      </trkpt>
      <trkpt lat="47.75838" lon="-3.38893">
        <ele>-53.133745</ele>
        <time>2020-12-29T10:06:41.000Z</time>
      </trkpt>
      <trkpt lat="47.75837" lon="-3.38921">
        <ele>-53.130125</ele>
        <time>2020-12-29T10:06:36.000Z</time>
      </trkpt>
      <trkpt lat="47.75833" lon="-3.38949">
        <ele>-53.126508</ele>
        <time>2020-12-29T10:06:31.000Z</time>
      </trkpt>
      <trkpt lat="47.75831" lon="-3.38954">
        <ele>-53.125718</ele>
        <time>2020-12-29T10:06:30.000Z</time>
      </trkpt>
      <trkpt lat="47.75828" lon="-3.38977">
        <ele>-53.122789</ele>
        <time>2020-12-29T10:06:25.000Z</time>
      </trkpt>
      <trkpt lat="47.75827" lon="-3.38979">
        <ele>-53.122466</ele>
        <time>2020-12-29T10:06:24.000Z</time>
      </trkpt>
      <trkpt lat="47.75821" lon="-3.38979">
        <ele>-53.121246</ele>
        <time>2020-12-29T10:06:20.000Z</time>
      </trkpt>
      <trkpt lat="47.75812" lon="-3.38971">
        <ele>-53.119185</ele>
        <time>2020-12-29T10:06:15.000Z</time>
      </trkpt>
      <trkpt lat="47.75809" lon="-3.38969">
        <ele>-53.118724</ele>
        <time>2020-12-29T10:06:14.000Z</time>
      </trkpt>
      <trkpt lat="47.75804" lon="-3.38974">
        <ele>-53.117529</ele>
        <time>2020-12-29T10:06:12.000Z</time>
      </trkpt>
      <trkpt lat="47.75798" lon="-3.38981">
        <ele>-53.116139</ele>
        <time>2020-12-29T10:06:10.000Z</time>
      </trkpt>
      <trkpt lat="47.75795" lon="-3.38989">
        <ele>-53.114926</ele>
        <time>2020-12-29T10:06:08.000Z</time>
      </trkpt>
      <trkpt lat="47.75793" lon="-3.38996">
        <ele>-53.113924</ele>
        <time>2020-12-29T10:06:06.000Z</time>
      </trkpt>
      <trkpt lat="47.75792" lon="-3.39001">
        <ele>-53.11331</ele>
        <time>2020-12-29T10:06:05.000Z</time>
      </trkpt>
      <trkpt lat="47.75782" lon="-3.39013">
        <ele>-52.982837</ele>
        <time>2020-12-29T10:06:01.000Z</time>
      </trkpt>
      <trkpt lat="47.7578" lon="-3.39015">
        <ele>-52.919774</ele>
        <time>2020-12-29T10:06:00.000Z</time>
      </trkpt>
      <trkpt lat="47.75768" lon="-3.39021">
        <ele>-52.624694</ele>
        <time>2020-12-29T10:05:56.000Z</time>
      </trkpt>
      <trkpt lat="47.7575" lon="-3.39031">
        <ele>-52.164324</ele>
        <time>2020-12-29T10:05:51.000Z</time>
      </trkpt>
      <trkpt lat="47.75729" lon="-3.39044">
        <ele>-51.633387</ele>
        <time>2020-12-29T10:05:46.000Z</time>
      </trkpt>
      <trkpt lat="47.75724" lon="-3.39047">
        <ele>-51.512468</ele>
        <time>2020-12-29T10:05:45.000Z</time>
      </trkpt>
      <trkpt lat="47.75711" lon="-3.39054">
        <ele>-51.181336</ele>
        <time>2020-12-29T10:05:42.000Z</time>
      </trkpt>
      <trkpt lat="47.75695" lon="-3.39064">
        <ele>-50.755798</ele>
        <time>2020-12-29T10:05:38.000Z</time>
      </trkpt>
      <trkpt lat="47.7569" lon="-3.39067">
        <ele>-50.645926</ele>
        <time>2020-12-29T10:05:37.000Z</time>
      </trkpt>
      <trkpt lat="47.75671" lon="-3.39077">
        <ele>-50.151644</ele>
        <time>2020-12-29T10:05:32.000Z</time>
      </trkpt>
      <trkpt lat="47.75671" lon="-3.39077">
        <ele>-50.151644</ele>
        <time>2020-12-29T10:05:32.000Z</time>
      </trkpt>
      <trkpt lat="47.75676" lon="-3.39092">
        <ele>31.2</ele>
      </trkpt>
      <trkpt lat="47.75754" lon="-3.39529">
        <ele>29.1</ele>
      </trkpt>
      <trkpt lat="47.75788" lon="-3.39688">
        <ele>28</ele>
      </trkpt>
      <trkpt lat="47.75757" lon="-3.39881">
        <ele>25.4</ele>
      </trkpt>
      <trkpt lat="47.75716" lon="-3.39958">
        <ele>25</ele>
      </trkpt>
      <trkpt lat="47.75453" lon="-3.40153">
        <ele>-97.353287</ele>
        <time>2020-12-29T17:09:27.000Z</time>
      </trkpt>
      <trkpt lat="47.75443" lon="-3.40154">
        <ele>-97.263555</ele>
        <time>2020-12-29T17:09:30.000Z</time>
      </trkpt>
      <trkpt lat="47.75439" lon="-3.40157">
        <ele>-97.230159</ele>
        <time>2020-12-29T17:09:31.000Z</time>
      </trkpt>
      <trkpt lat="47.75421" lon="-3.40172">
        <ele>-97.050899</ele>
        <time>2020-12-29T17:09:36.000Z</time>
      </trkpt>
      <trkpt lat="47.75416" lon="-3.40176">
        <ele>-97.006426</ele>
        <time>2020-12-29T17:09:39.000Z</time>
      </trkpt>
      <trkpt lat="47.75414" lon="-3.40179">
        <ele>-96.980194</ele>
        <time>2020-12-29T17:10:32.000Z</time>
      </trkpt>
      <trkpt lat="47.75411" lon="-3.40181">
        <ele>-96.953212</ele>
        <time>2020-12-29T17:10:33.000Z</time>
      </trkpt>
      <trkpt lat="47.75388" lon="-3.40197">
        <ele>-96.733078</ele>
        <time>2020-12-29T17:10:39.000Z</time>
      </trkpt>
      <trkpt lat="47.75358" lon="-3.4022">
        <ele>-96.452372</ele>
        <time>2020-12-29T17:10:46.000Z</time>
      </trkpt>
      <trkpt lat="47.75347" lon="-3.4023">
        <ele>-96.342029</ele>
        <time>2020-12-29T17:10:49.000Z</time>
      </trkpt>
      <trkpt lat="47.75338" lon="-3.40237">
        <ele>-96.252443</ele>
        <time>2020-12-29T17:10:51.000Z</time>
      </trkpt>
      <trkpt lat="47.75325" lon="-3.40247">
        <ele>-96.124409</ele>
        <time>2020-12-29T17:10:54.000Z</time>
      </trkpt>
      <trkpt lat="47.75316" lon="-3.40255">
        <ele>-96.10729</ele>
        <time>2020-12-29T17:10:56.000Z</time>
      </trkpt>
      <trkpt lat="47.75311" lon="-3.40258">
        <ele>-96.137458</ele>
        <time>2020-12-29T17:10:57.000Z</time>
      </trkpt>
      <trkpt lat="47.75279" lon="-3.4028">
        <ele>-96.337838</ele>
        <time>2020-12-29T17:11:03.000Z</time>
      </trkpt>
      <trkpt lat="47.75255" lon="-3.40298">
        <ele>-96.49387</ele>
        <time>2020-12-29T17:11:08.000Z</time>
      </trkpt>
      <trkpt lat="47.75225" lon="-3.40321">
        <ele>-96.687285</ele>
        <time>2020-12-29T17:11:14.000Z</time>
      </trkpt>
      <trkpt lat="47.75199" lon="-3.40341">
        <ele>-96.856273</ele>
        <time>2020-12-29T17:11:19.000Z</time>
      </trkpt>
      <trkpt lat="47.75195" lon="-3.40346">
        <ele>-96.890099</ele>
        <time>2020-12-29T17:11:20.000Z</time>
      </trkpt>
      <trkpt lat="47.75171" lon="-3.40374">
        <ele>-97.063292</ele>
        <time>2020-12-29T17:11:25.000Z</time>
      </trkpt>
      <trkpt lat="47.75152" lon="-3.40399">
        <ele>-97.226237</ele>
        <time>2020-12-29T17:11:29.000Z</time>
      </trkpt>
      <trkpt lat="47.75148" lon="-3.40405">
        <ele>-97.268712</ele>
        <time>2020-12-29T17:11:30.000Z</time>
      </trkpt>
      <trkpt lat="47.75127" lon="-3.40441">
        <ele>-97.488748</ele>
        <time>2020-12-29T17:11:35.000Z</time>
      </trkpt>
      <trkpt lat="47.75123" lon="-3.40449">
        <ele>-97.531933</ele>
        <time>2020-12-29T17:11:36.000Z</time>
      </trkpt>
      <trkpt lat="47.75104" lon="-3.40495">
        <ele>-97.780661</ele>
        <time>2020-12-29T17:11:42.000Z</time>
      </trkpt>
      <trkpt lat="47.75091" lon="-3.40547">
        <ele>-98.037488</ele>
        <time>2020-12-29T17:11:48.000Z</time>
      </trkpt>
      <trkpt lat="47.7509" lon="-3.40557">
        <ele>-98.081979</ele>
        <time>2020-12-29T17:11:49.000Z</time>
      </trkpt>
      <trkpt lat="47.75087" lon="-3.40575">
        <ele>-98.168564</ele>
        <time>2020-12-29T17:11:51.000Z</time>
      </trkpt>
      <trkpt lat="47.75082" lon="-3.40613">
        <ele>-98.346108</ele>
        <time>2020-12-29T17:11:55.000Z</time>
      </trkpt>
      <trkpt lat="47.75075" lon="-3.40666">
        <ele>-98.106676</ele>
        <time>2020-12-29T17:12:01.000Z</time>
      </trkpt>
      <trkpt lat="47.75067" lon="-3.40725">
        <ele>-97.833817</ele>
        <time>2020-12-29T17:12:08.000Z</time>
      </trkpt>
      <trkpt lat="47.75058" lon="-3.40783">
        <ele>-97.568198</ele>
        <time>2020-12-29T17:12:15.000Z</time>
      </trkpt>
      <trkpt lat="47.75051" lon="-3.40842">
        <ele>-97.298254</ele>
        <time>2020-12-29T17:12:22.000Z</time>
      </trkpt>
      <trkpt lat="47.75044" lon="-3.40889">
        <ele>-97.016882</ele>
        <time>2020-12-29T17:12:28.000Z</time>
      </trkpt>
      <trkpt lat="47.75042" lon="-3.40905">
        <ele>-96.866103</ele>
        <time>2020-12-29T17:12:30.000Z</time>
      </trkpt>
      <trkpt lat="47.75036" lon="-3.40949">
        <ele>-96.460753</ele>
        <time>2020-12-29T17:12:36.000Z</time>
      </trkpt>
      <trkpt lat="47.75031" lon="-3.40986">
        <ele>-96.107744</ele>
        <time>2020-12-29T17:12:41.000Z</time>
      </trkpt>
      <trkpt lat="47.75027" lon="-3.41008">
        <ele>-95.900457</ele>
        <time>2020-12-29T17:12:44.000Z</time>
      </trkpt>
      <trkpt lat="47.75022" lon="-3.41046">
        <ele>-95.550125</ele>
        <time>2020-12-29T17:12:49.000Z</time>
      </trkpt>
      <trkpt lat="47.7502" lon="-3.41054">
        <ele>-95.476964</ele>
        <time>2020-12-29T17:12:50.000Z</time>
      </trkpt>
      <trkpt lat="47.75014" lon="-3.411">
        <ele>-95.046907</ele>
        <time>2020-12-29T17:12:56.000Z</time>
      </trkpt>
      <trkpt lat="47.75007" lon="-3.41145">
        <ele>-94.656293</ele>
        <time>2020-12-29T17:13:02.000Z</time>
      </trkpt>
      <trkpt lat="47.75006" lon="-3.41153">
        <ele>-94.615292</ele>
        <time>2020-12-29T17:13:03.000Z</time>
      </trkpt>
      <trkpt lat="47.74998" lon="-3.41206">
        <ele>-94.335332</ele>
        <time>2020-12-29T17:13:10.000Z</time>
      </trkpt>
      <trkpt lat="47.74993" lon="-3.4126">
        <ele>-94.054373</ele>
        <time>2020-12-29T17:13:17.000Z</time>
      </trkpt>
      <trkpt lat="47.74987" lon="-3.41306">
        <ele>-93.815307</ele>
        <time>2020-12-29T17:13:23.000Z</time>
      </trkpt>
      <trkpt lat="47.74986" lon="-3.41322">
        <ele>-93.733854</ele>
        <time>2020-12-29T17:13:25.000Z</time>
      </trkpt>
      <trkpt lat="47.74982" lon="-3.41355">
        <ele>-93.563667</ele>
        <time>2020-12-29T17:13:29.000Z</time>
      </trkpt>
      <trkpt lat="47.74974" lon="-3.41402">
        <ele>-93.318982</ele>
        <time>2020-12-29T17:13:35.000Z</time>
      </trkpt>
      <trkpt lat="47.74965" lon="-3.41458">
        <ele>-93.11218</ele>
        <time>2020-12-29T17:13:42.000Z</time>
      </trkpt>
      <trkpt lat="47.74955" lon="-3.41533">
        <ele>-92.839148</ele>
        <time>2020-12-29T17:13:51.000Z</time>
      </trkpt>
      <trkpt lat="47.74954" lon="-3.41541">
        <ele>-92.809334</ele>
        <time>2020-12-29T17:13:52.000Z</time>
      </trkpt>
      <trkpt lat="47.74948" lon="-3.41597">
        <ele>-92.60576</ele>
        <time>2020-12-29T17:13:59.000Z</time>
      </trkpt>
      <trkpt lat="47.74941" lon="-3.41644">
        <ele>-92.43353</ele>
        <time>2020-12-29T17:14:05.000Z</time>
      </trkpt>
      <trkpt lat="47.7494" lon="-3.41652">
        <ele>-92.404772</ele>
        <time>2020-12-29T17:14:06.000Z</time>
      </trkpt>
      <trkpt lat="47.74937" lon="-3.417">
        <ele>-92.393796</ele>
        <time>2020-12-29T17:14:12.000Z</time>
      </trkpt>
      <trkpt lat="47.74935" lon="-3.41724">
        <ele>-92.408737</ele>
        <time>2020-12-29T17:14:15.000Z</time>
      </trkpt>
      <trkpt lat="47.74935" lon="-3.41741">
        <ele>-92.418725</ele>
        <time>2020-12-29T17:14:17.000Z</time>
      </trkpt>
      <trkpt lat="47.74935" lon="-3.41757">
        <ele>-92.428821</ele>
        <time>2020-12-29T17:14:19.000Z</time>
      </trkpt>
      <trkpt lat="47.74934" lon="-3.41799">
        <ele>-92.454469</ele>
        <time>2020-12-29T17:14:24.000Z</time>
      </trkpt>
      <trkpt lat="47.74934" lon="-3.41823">
        <ele>-92.469347</ele>
        <time>2020-12-29T17:14:27.000Z</time>
      </trkpt>
      <trkpt lat="47.74933" lon="-3.4184">
        <ele>-92.479324</ele>
        <time>2020-12-29T17:14:29.000Z</time>
      </trkpt>
      <trkpt lat="47.74933" lon="-3.41856">
        <ele>-92.48949</ele>
        <time>2020-12-29T17:14:31.000Z</time>
      </trkpt>
      <trkpt lat="47.74931" lon="-3.41898">
        <ele>-92.515211</ele>
        <time>2020-12-29T17:14:36.000Z</time>
      </trkpt>
      <trkpt lat="47.7493" lon="-3.4196">
        <ele>-92.763581</ele>
        <time>2020-12-29T17:14:43.000Z</time>
      </trkpt>
      <trkpt lat="47.74931" lon="-3.41968">
        <ele>-92.830847</ele>
        <time>2020-12-29T17:14:44.000Z</time>
      </trkpt>
      <trkpt lat="47.74934" lon="-3.41998">
        <ele>-93.053711</ele>
        <time>2020-12-29T17:14:47.000Z</time>
      </trkpt>
      <trkpt lat="47.74933" lon="-3.42016">
        <ele>-93.189673</ele>
        <time>2020-12-29T17:14:49.000Z</time>
      </trkpt>
      <trkpt lat="47.74933" lon="-3.42025">
        <ele>-93.256773</ele>
        <time>2020-12-29T17:14:50.000Z</time>
      </trkpt>
      <trkpt lat="47.74933" lon="-3.42043">
        <ele>-93.390955</ele>
        <time>2020-12-29T17:14:52.000Z</time>
      </trkpt>
      <trkpt lat="47.74932" lon="-3.4211">
        <ele>-93.888297</ele>
        <time>2020-12-29T17:14:59.000Z</time>
      </trkpt>
      <trkpt lat="47.74931" lon="-3.4212">
        <ele>-93.96064</ele>
        <time>2020-12-29T17:15:00.000Z</time>
      </trkpt>
      <trkpt lat="47.74932" lon="-3.42138">
        <ele>-94.093335</ele>
        <time>2020-12-29T17:15:02.000Z</time>
      </trkpt>
      <trkpt lat="47.7493" lon="-3.42154">
        <ele>-94.219398</ele>
        <time>2020-12-29T17:15:04.000Z</time>
      </trkpt>
      <trkpt lat="47.7493" lon="-3.42171">
        <ele>-94.346891</ele>
        <time>2020-12-29T17:15:06.000Z</time>
      </trkpt>
      <trkpt lat="47.7493" lon="-3.42198">
        <ele>-94.543014</ele>
        <time>2020-12-29T17:15:09.000Z</time>
      </trkpt>
      <trkpt lat="47.74932" lon="-3.42236">
        <ele>-94.777844</ele>
        <time>2020-12-29T17:15:13.000Z</time>
      </trkpt>
      <trkpt lat="47.74932" lon="-3.42254">
        <ele>-94.889511</ele>
        <time>2020-12-29T17:15:15.000Z</time>
      </trkpt>
      <trkpt lat="47.74935" lon="-3.42319">
        <ele>-95.295121</ele>
        <time>2020-12-29T17:15:22.000Z</time>
      </trkpt>
      <trkpt lat="47.74939" lon="-3.42352">
        <ele>-95.503963</ele>
        <time>2020-12-29T17:15:26.000Z</time>
      </trkpt>
      <trkpt lat="47.74944" lon="-3.42376">
        <ele>-95.665078</ele>
        <time>2020-12-29T17:15:29.000Z</time>
      </trkpt>
      <trkpt lat="47.74953" lon="-3.42427">
        <ele>-95.991754</ele>
        <time>2020-12-29T17:15:35.000Z</time>
      </trkpt>
      <trkpt lat="47.74954" lon="-3.42436">
        <ele>-96.044873</ele>
        <time>2020-12-29T17:15:36.000Z</time>
      </trkpt>
      <trkpt lat="47.74955" lon="-3.42452">
        <ele>-96.149462</ele>
        <time>2020-12-29T17:15:38.000Z</time>
      </trkpt>
      <trkpt lat="47.74957" lon="-3.4247">
        <ele>-96.108038</ele>
        <time>2020-12-29T17:15:40.000Z</time>
      </trkpt>
      <trkpt lat="47.74962" lon="-3.4252">
        <ele>-95.698381</ele>
        <time>2020-12-29T17:15:46.000Z</time>
      </trkpt>
      <trkpt lat="47.74965" lon="-3.42584">
        <ele>-95.166794</ele>
        <time>2020-12-29T17:15:54.000Z</time>
      </trkpt>
      <trkpt lat="47.74966" lon="-3.42625">
        <ele>-94.83601</ele>
        <time>2020-12-29T17:15:59.000Z</time>
      </trkpt>
      <trkpt lat="47.74966" lon="-3.42641">
        <ele>-94.699298</ele>
        <time>2020-12-29T17:16:01.000Z</time>
      </trkpt>
      <trkpt lat="47.74969" lon="-3.42698">
        <ele>-94.237755</ele>
        <time>2020-12-29T17:16:08.000Z</time>
      </trkpt>
      <trkpt lat="47.7497" lon="-3.42706">
        <ele>-94.172911</ele>
        <time>2020-12-29T17:16:09.000Z</time>
      </trkpt>
      <trkpt lat="47.74971" lon="-3.4276">
        <ele>-93.816155</ele>
        <time>2020-12-29T17:16:16.000Z</time>
      </trkpt>
      <trkpt lat="47.74975" lon="-3.42809">
        <ele>-93.549041</ele>
        <time>2020-12-29T17:16:22.000Z</time>
      </trkpt>
      <trkpt lat="47.74976" lon="-3.42855">
        <ele>-93.294662</ele>
        <time>2020-12-29T17:16:28.000Z</time>
      </trkpt>
      <trkpt lat="47.74976" lon="-3.42862">
        <ele>-93.252191</ele>
        <time>2020-12-29T17:16:29.000Z</time>
      </trkpt>
      <trkpt lat="47.74977" lon="-3.429">
        <ele>-93.042727</ele>
        <time>2020-12-29T17:16:34.000Z</time>
      </trkpt>
      <trkpt lat="47.74979" lon="-3.42957">
        <ele>-92.730894</ele>
        <time>2020-12-29T17:16:41.000Z</time>
      </trkpt>
      <trkpt lat="47.74979" lon="-3.4298">
        <ele>-92.601363</ele>
        <time>2020-12-29T17:16:44.000Z</time>
      </trkpt>
      <trkpt lat="47.74981" lon="-3.43012">
        <ele>-92.36208</ele>
        <time>2020-12-29T17:16:48.000Z</time>
      </trkpt>
      <trkpt lat="47.74983" lon="-3.43035">
        <ele>-92.160755</ele>
        <time>2020-12-29T17:16:51.000Z</time>
      </trkpt>
      <trkpt lat="47.74984" lon="-3.43049">
        <ele>-92.033998</ele>
        <time>2020-12-29T17:16:53.000Z</time>
      </trkpt>
      <trkpt lat="47.74986" lon="-3.4308">
        <ele>-91.759588</ele>
        <time>2020-12-29T17:16:57.000Z</time>
      </trkpt>
      <trkpt lat="47.74987" lon="-3.43094">
        <ele>-91.634379</ele>
        <time>2020-12-29T17:16:59.000Z</time>
      </trkpt>
      <trkpt lat="47.74989" lon="-3.43116">
        <ele>-91.43704</ele>
        <time>2020-12-29T17:17:02.000Z</time>
      </trkpt>
      <trkpt lat="47.7499" lon="-3.43139">
        <ele>-91.231716</ele>
        <time>2020-12-29T17:17:05.000Z</time>
      </trkpt>
      <trkpt lat="47.74994" lon="-3.4319">
        <ele>-90.780134</ele>
        <time>2020-12-29T17:17:12.000Z</time>
      </trkpt>
      <trkpt lat="47.74999" lon="-3.43231">
        <ele>-90.414857</ele>
        <time>2020-12-29T17:17:18.000Z</time>
      </trkpt>
      <trkpt lat="47.75004" lon="-3.43259">
        <ele>-90.152441</ele>
        <time>2020-12-29T17:17:22.000Z</time>
      </trkpt>
      <trkpt lat="47.7501" lon="-3.43294">
        <ele>-89.716615</ele>
        <time>2020-12-29T17:17:27.000Z</time>
      </trkpt>
      <trkpt lat="47.75012" lon="-3.43302">
        <ele>-89.619433</ele>
        <time>2020-12-29T17:17:28.000Z</time>
      </trkpt>
      <trkpt lat="47.75018" lon="-3.43331">
        <ele>-89.249573</ele>
        <time>2020-12-29T17:17:32.000Z</time>
      </trkpt>
      <trkpt lat="47.75026" lon="-3.43373">
        <ele>-88.718465</ele>
        <time>2020-12-29T17:17:38.000Z</time>
      </trkpt>
      <trkpt lat="47.75027" lon="-3.4338">
        <ele>-88.634982</ele>
        <time>2020-12-29T17:17:39.000Z</time>
      </trkpt>
      <trkpt lat="47.75031" lon="-3.43393">
        <ele>-88.460359</ele>
        <time>2020-12-29T17:17:42.000Z</time>
      </trkpt>
      <trkpt lat="47.75034" lon="-3.43402">
        <ele>-88.341799</ele>
        <time>2020-12-29T17:17:45.000Z</time>
      </trkpt>
      <trkpt lat="47.75033" lon="-3.43406">
        <ele>-88.295441</ele>
        <time>2020-12-29T17:17:46.000Z</time>
      </trkpt>
      <trkpt lat="47.75021" lon="-3.43422">
        <ele>-88.003407</ele>
        <time>2020-12-29T17:17:50.000Z</time>
      </trkpt>
      <trkpt lat="47.75016" lon="-3.43424">
        <ele>-87.913152</ele>
        <time>2020-12-29T17:17:51.000Z</time>
      </trkpt>
      <trkpt lat="47.74994" lon="-3.43434">
        <ele>-87.494295</ele>
        <time>2020-12-29T17:17:55.000Z</time>
      </trkpt>
      <trkpt lat="47.75011" lon="-3.43444">
        <ele>32.6</ele>
      </trkpt>
      <trkpt lat="47.75035" lon="-3.43573">
        <ele>33</ele>
      </trkpt>
      <trkpt lat="47.75164" lon="-3.44191">
        <ele>39.2</ele>
      </trkpt>
      <trkpt lat="47.75173" lon="-3.44448">
        <ele>36.4</ele>
      </trkpt>
      <trkpt lat="47.75092" lon="-3.44693">
        <ele>35.7</ele>
      </trkpt>
      <trkpt lat="47.74735" lon="-3.45058">
        <ele>37</ele>
      </trkpt>
      <trkpt lat="47.74339" lon="-3.45023">
        <ele>30.8</ele>
      </trkpt>
      <trkpt lat="47.74215" lon="-3.45105">
        <ele>30.8</ele>
      </trkpt>
      <trkpt lat="47.74059" lon="-3.45435">
        <ele>37.6</ele>
      </trkpt>
      <trkpt lat="47.7386" lon="-3.45487">
        <ele>38</ele>
      </trkpt>
      <trkpt lat="47.73526" lon="-3.45766">
        <ele>33</ele>
      </trkpt>
      <trkpt lat="47.7294" lon="-3.45748">
        <ele>33.3</ele>
      </trkpt>
      <trkpt lat="47.72775" lon="-3.45808">
        <ele>32.7</ele>
      </trkpt>
      <trkpt lat="47.72625" lon="-3.46053">
        <ele>32.9</ele>
      </trkpt>
      <trkpt lat="47.72519" lon="-3.46607">
        <ele>23.7</ele>
      </trkpt>
      <trkpt lat="47.72527" lon="-3.46838">
        <ele>21.6</ele>
      </trkpt>
      <trkpt lat="47.72721" lon="-3.47267">
        <ele>17.4</ele>
      </trkpt>
      <trkpt lat="47.72747" lon="-3.47439">
        <ele>12.3</ele>
      </trkpt>
      <trkpt lat="47.72928" lon="-3.47469">
        <ele>18.4</ele>
      </trkpt>
      <trkpt lat="47.72888" lon="-3.47525">
        <ele>14.3</ele>
      </trkpt>
      <trkpt lat="47.72894" lon="-3.47714">
        <ele>8.3</ele>
      </trkpt>
      <trkpt lat="47.72876" lon="-3.47864">
        <ele>7.9</ele>
      </trkpt>
      <trkpt lat="47.72951" lon="-3.4789">
        <ele>9.5</ele>
      </trkpt>
      <trkpt lat="47.73015" lon="-3.47834">
        <ele>12.5</ele>
      </trkpt>
      <trkpt lat="47.73029" lon="-3.48108">
        <ele>14.1</ele>
      </trkpt>
      <trkpt lat="47.72882" lon="-3.48568">
        <ele>18.4</ele>
      </trkpt>
      <trkpt lat="47.72571" lon="-3.48623">
        <ele>10</ele>
      </trkpt>
      <trkpt lat="47.72625" lon="-3.48864">
        <ele>13</ele>
      </trkpt>
      <trkpt lat="47.72539" lon="-3.48928">
        <ele>13.2</ele>
      </trkpt>
      <trkpt lat="47.72654" lon="-3.49258">
        <ele>10.3</ele>
      </trkpt>
      <trkpt lat="47.73133" lon="-3.49683">
        <ele>9.1</ele>
      </trkpt>
      <trkpt lat="47.73133" lon="-3.49683">
        <ele>9.1</ele>
      </trkpt>
      <trkpt lat="47.73302" lon="-3.49794">
        <ele>7</ele>
      </trkpt>
    </trkseg>
  </trk>
</gpx>